GFSSGP_700_rhum_000.txt.gz
RH
45 45 44 40 43 29 24 30 35 47 49 44 45 45 40 36 38 38 38 37 35 35 38 36 36 35 36 36 36 35 37 38 29 12 6 6 5 3 2 3 5 6 6 6 6 7 7 8 10
46 45 45 44 47 35 32 39 33 39 45 46 46 44 41 40 38 37 39 38 37 37 39 38 37 36 35 33 32 33 37 38 37 37 30 12 6 6 6 6 7 7 7 8 8 8 9 9 9
48 46 44 45 42 46 31 29 35 46 46 43 43 44 42 40 38 39 40 40 41 40 39 38 36 36 36 34 32 31 32 33 34 36 36 34 28 12 6 6 8 7 8 8 8 8 8 8 7
49 48 46 44 39 43 40 31 25 36 47 49 41 43 44 40 40 39 39 40 41 41 40 39 38 37 38 36 33 33 30 30 28 28 30 34 33 30 25 11 6 7 7 7 7 7 7 7 7
53 48 48 47 38 32 43 45 32 37 38 44 45 46 47 44 40 40 40 40 39 41 40 39 40 40 40 38 36 35 30 24 22 20 18 22 27 31 28 24 19 12 10 8 8 8 9 9 10
59 54 53 46 35 33 42 44 43 43 40 29 38 46 47 49 46 45 41 40 40 39 40 40 40 41 40 39 38 37 32 23 21 18 12 10 14 24 27 25 22 20 18 16 15 15 15 14 15
49 60 53 46 40 36 37 45 42 43 43 35 32 44 45 45 47 47 47 44 40 40 40 41 40 42 40 39 39 37 33 25 22 18 15 13 11 17 20 22 21 22 21 22 23 25 26 26 26
51 61 59 54 46 32 43 50 44 45 44 41 34 46 44 45 46 49 48 45 41 40 41 40 40 42 40 39 39 36 33 28 25 21 18 20 15 14 14 16 18 18 20 21 22 25 27 29 29
48 70 59 51 46 28 36 50 49 49 47 43 40 41 47 49 50 52 49 48 43 41 41 39 40 42 40 39 39 37 34 32 29 23 17 23 22 21 20 21 23 23 24 24 26 28 29 30 30
48 56 54 36 37 32 32 50 53 52 50 48 43 38 45 47 47 46 48 47 46 44 40 39 41 42 40 41 40 36 35 34 32 27 19 23 24 24 25 27 27 26 27 28 31 31 28 26 25
49 45 50 40 38 40 37 40 44 54 53 50 48 44 56 52 52 48 44 45 46 44 43 41 42 42 40 42 40 36 35 34 33 33 31 20 26 25 26 26 26 28 29 31 29 27 27 26 22
49 44 47 43 42 42 46 40 52 54 53 55 53 48 49 55 49 56 45 42 41 42 42 41 43 43 44 45 41 38 36 34 34 37 34 28 24 26 26 27 28 29 29 28 26 22 19 19 21
60 48 46 44 42 50 53 51 58 55 55 62 58 52 49 50 54 60 60 50 43 44 42 43 44 45 46 46 41 36 35 34 35 36 35 32 27 28 28 29 30 29 30 27 23 23 25 26 26
63 79 60 53 48 48 52 49 58 56 52 54 56 49 42 40 44 51 53 54 46 43 41 44 44 44 45 46 40 34 36 35 36 36 36 34 31 28 30 31 31 30 29 27 28 29 29 31 33
73 77 93 62 59 70 78 76 59 62 60 55 51 42 38 37 54 43 37 36 36 37 37 41 43 44 47 46 34 32 37 37 35 34 37 34 32 31 32 31 31 30 31 31 30 34 36 32 21
83 81 97 77 83 71 88 73 60 63 64 60 56 41 49 57 61 54 53 44 28 25 32 35 41 44 43 37 26 33 39 37 34 36 34 36 33 33 31 31 32 32 32 33 37 33 20 6 3
99 97 92 87 83 87 79 79 70 63 70 63 55 57 57 61 60 50 40 35 34 28 26 30 29 32 30 26 30 41 39 33 34 36 37 34 35 32 31 33 33 34 39 37 26 12 2 3 6
88 86 76 85 84 74 75 73 72 70 65 63 51 56 56 54 47 44 41 40 32 27 24 24 25 24 24 31 42 40 34 32 32 34 35 34 31 32 34 37 42 41 34 22 8 2 7 8 8
87 85 85 89 85 83 90 88 80 68 57 60 52 54 49 46 44 43 39 39 29 27 25 25 27 26 36 42 40 31 27 28 32 33 32 31 32 35 44 45 39 32 19 4 5 9 9 8 7
100 97 87 79 82 93 90 81 80 71 69 63 53 61 54 45 48 46 40 38 28 30 26 29 31 42 43 37 30 29 31 34 34 33 32 34 42 48 46 40 29 11 4 8 10 10 8 7 7
65 87 92 91 71 83 87 80 81 62 64 65 55 59 58 53 49 48 44 37 34 34 38 43 44 41 33 30 30 33 34 31 30 34 43 50 51 49 42 28 12 6 8 10 10 10 10 8 7
79 64 64 66 89 93 86 91 77 57 59 63 58 54 61 56 54 52 49 40 38 41 45 43 38 33 32 32 34 32 27 35 42 46 50 53 50 41 28 15 8 7 8 10 10 10 10 9 8
77 69 76 83 89 88 69 95 90 70 69 56 54 53 58 62 55 53 49 46 40 44 43 38 34 33 34 34 28 32 38 42 45 49 49 44 36 28 18 10 7 7 8 10 10 11 10 10 9
89 93 86 89 87 92 75 89 74 65 51 50 50 53 53 64 56 52 52 47 39 43 40 36 34 34 34 29 36 41 44 46 47 46 43 37 31 25 16 11 8 8 10 11 11 12 11 11 11
79 92 93 97 91 81 62 77 71 59 49 45 50 52 59 56 52 53 54 47 40 43 39 36 35 35 32 36 42 46 46 47 49 47 42 38 35 29 24 16 11 10 12 13 13 12 12 12 13
82 80 85 91 97 77 58 76 72 44 40 52 47 46 51 52 50 53 54 49 40 41 38 36 36 34 35 41 44 46 47 49 50 52 55 54 48 42 32 20 13 13 14 14 14 14 13 14 15
81 96 53 92 71 79 77 76 38 22 27 41 45 38 40 48 54 55 55 52 43 41 38 38 37 36 37 40 43 46 49 50 51 54 58 62 60 52 42 26 17 16 16 15 15 14 15 16 16
79 60 89 92 100 92 77 82 56 35 35 37 39 40 42 46 54 56 56 52 44 40 40 41 40 40 42 42 44 47 50 51 53 55 59 64 66 60 48 28 20 18 17 16 15 16 17 16 18
100 94 76 67 79 98 92 77 44 43 42 43 44 37 40 42 43 44 52 55 44 42 43 44 43 44 45 44 47 51 55 56 56 58 61 66 68 61 42 25 21 19 18 17 17 17 18 18 20
86 94 84 71 63 78 99 69 55 44 39 39 38 36 35 38 40 50 57 56 45 44 45 46 48 49 48 50 53 57 60 61 60 62 64 68 69 55 29 23 20 20 18 18 18 18 20 21 21

GFSSGP_700_rhum_003.txt.gz
RH
46 45 44 43 42 33 26 28 33 46 43 44 44 45 44 40 36 39 38 37 36 34 33 37 35 33 32 30 30 30 33 35 36 37 32 14 7 6 5 4 5 6 7 6 6 7 7 8 9
46 46 44 44 41 47 33 34 32 39 47 48 46 45 44 43 39 38 39 39 38 35 37 38 36 35 33 31 31 30 30 30 30 32 34 34 27 10 7 7 8 8 8 8 8 9 9 9 9
46 46 46 45 44 42 36 31 30 43 46 47 45 45 43 42 40 39 41 40 40 39 40 39 38 36 35 34 33 31 29 26 23 22 25 30 33 31 18 8 7 7 8 8 8 8 8 8 8
48 50 48 45 37 33 41 37 26 27 34 48 47 46 44 42 40 39 40 38 40 40 41 40 40 40 38 36 35 34 28 22 20 18 15 18 25 31 29 26 15 9 8 7 7 7 7 7 7
46 50 51 46 33 29 35 44 44 34 38 35 46 46 46 42 40 40 39 39 40 40 40 40 41 41 40 38 37 34 30 24 21 17 12 9 13 23 29 26 24 20 16 14 12 11 11 11 12
51 51 55 45 29 30 32 43 46 41 42 44 35 36 45 46 43 40 40 40 40 40 40 40 41 42 40 38 38 34 31 27 25 19 16 14 9 12 20 23 23 21 20 19 19 19 19 20 20
40 52 48 41 33 33 28 40 45 42 42 45 40 30 36 46 49 46 44 43 40 40 40 41 41 42 41 39 37 35 32 31 29 23 19 20 15 12 12 12 14 16 16 19 20 22 23 25 26
44 60 59 47 37 25 30 40 47 42 42 46 43 37 34 46 48 50 47 46 45 40 40 41 41 42 41 39 37 36 34 34 33 27 20 23 22 20 19 19 20 22 23 23 25 26 28 30 31
47 66 48 40 36 25 28 42 51 46 47 50 49 44 39 47 46 50 48 47 45 41 40 41 41 42 41 39 39 37 35 33 33 30 26 20 26 24 25 26 28 30 30 30 31 32 29 28 26
54 55 48 38 38 31 33 40 50 50 51 49 50 48 45 42 48 50 49 48 48 45 43 41 39 42 42 40 41 40 36 36 33 32 31 25 22 26 25 26 28 29 30 29 29 28 28 28 29
51 44 48 44 42 43 36 37 44 51 52 52 56 54 51 43 42 46 48 49 48 47 44 43 40 43 42 41 42 41 38 36 34 34 35 32 26 24 27 27 27 28 29 30 29 29 28 26 25
50 45 49 44 47 53 42 38 41 46 50 55 57 58 55 52 46 42 46 45 45 44 44 42 41 42 42 42 44 42 39 35 35 36 38 36 35 27 28 28 29 30 31 31 29 26 26 28 27
43 34 50 53 46 47 56 45 43 43 48 57 57 59 60 54 51 51 50 44 43 44 44 42 42 42 43 43 45 44 39 36 35 37 39 39 38 36 33 30 32 31 32 30 29 30 29 29 33
50 52 49 54 57 53 54 55 52 39 42 56 59 59 60 54 48 49 55 56 47 38 45 46 43 42 43 44 44 44 38 36 37 38 41 40 39 39 36 32 32 32 32 32 32 29 34 35 26
65 56 61 65 51 57 56 50 47 45 39 48 57 58 61 51 41 41 45 54 58 56 53 50 44 43 43 43 45 44 35 36 38 40 40 40 41 43 36 34 33 33 34 31 33 37 31 16 4
94 85 70 46 65 62 60 53 56 50 42 39 46 54 53 46 41 42 40 49 48 44 41 43 40 38 42 44 45 40 33 38 40 39 38 40 43 41 36 34 33 33 31 38 39 29 17 4 4
88 89 84 90 60 73 76 64 56 50 60 46 50 44 46 50 35 39 46 48 51 55 48 37 33 36 37 41 40 30 37 43 41 34 34 41 40 38 34 32 31 34 41 39 30 18 3 6 8
98 98 92 92 76 82 62 76 87 78 69 51 57 50 50 58 57 56 48 50 46 42 40 34 31 35 34 30 29 30 44 42 35 33 36 37 38 35 32 32 40 44 40 30 12 4 8 9 10
94 96 97 85 89 76 83 90 71 72 75 62 56 58 51 56 54 50 45 45 43 43 42 36 30 29 30 29 28 45 43 36 31 32 36 35 34 32 36 47 47 42 29 9 6 9 10 10 11
85 94 87 83 84 86 82 77 64 65 62 62 60 52 46 50 53 49 45 42 42 42 43 34 33 30 29 34 48 43 33 28 32 35 35 31 35 44 49 50 43 26 12 8 9 10 10 11 13
64 75 88 92 92 81 79 70 60 66 52 48 48 46 54 57 62 51 42 47 46 42 38 35 31 31 41 47 43 32 29 32 35 31 32 42 48 52 52 41 26 14 9 8 9 11 13 14 14
78 69 65 65 77 89 66 73 65 69 53 39 39 49 54 58 63 52 49 49 49 49 36 38 36 46 46 37 31 32 35 34 31 39 44 48 52 47 37 28 20 12 9 10 13 16 17 18 17
91 75 83 78 83 89 73 87 72 61 61 50 45 44 49 58 63 60 51 49 51 49 39 46 46 43 34 32 33 35 30 35 41 44 48 45 42 38 33 27 19 13 12 13 16 19 19 19 18
85 89 91 98 93 96 82 84 58 58 56 47 57 46 44 53 58 62 58 62 52 51 42 47 44 37 33 34 34 30 38 44 46 46 46 47 48 48 44 35 24 17 15 16 18 20 20 19 17
82 92 96 98 96 82 69 67 57 52 56 40 40 42 45 43 54 58 60 62 52 52 42 45 40 35 34 34 31 38 45 48 50 50 51 56 58 59 55 46 34 24 17 18 20 22 20 18 16
79 78 87 84 96 78 50 60 56 52 38 31 32 43 48 47 50 57 57 64 53 52 42 44 38 36 35 32 39 44 49 51 52 52 52 54 55 59 60 58 48 30 18 18 21 21 19 17 16
96 97 65 73 79 97 64 59 45 28 24 28 29 41 44 54 53 57 56 56 52 53 43 43 38 37 35 38 44 48 50 51 53 53 54 55 58 60 63 64 54 33 17 19 21 21 18 17 17
98 85 96 97 95 94 69 64 58 33 21 18 27 33 44 45 48 48 57 49 52 52 45 41 40 38 36 43 46 49 50 53 57 58 59 61 63 63 65 67 57 28 16 20 21 19 18 18 18
98 98 93 82 74 93 91 53 38 55 49 32 26 30 41 44 42 42 53 52 55 52 46 41 42 38 39 45 47 51 54 57 61 63 65 66 66 67 68 67 44 16 19 22 20 20 20 19 19
93 83 84 96 79 68 73 73 61 61 60 45 51 30 39 44 38 43 54 55 57 55 45 45 44 41 44 49 51 55 61 64 67 68 68 67 68 68 68 59 17 18 22 20 20 21 20 20 20

GFSSGP_700_rhum_006.txt.gz
RH
44 44 44 44 40 44 28 21 32 45 40 40 46 46 42 40 40 40 37 37 36 35 32 32 35 32 31 29 28 28 27 27 30 33 35 33 14 7 7 5 6 7 8 8 7 7 7 8 8
41 45 46 45 42 41 42 24 33 41 47 48 46 46 46 42 39 36 37 36 39 35 35 38 36 33 32 31 30 26 22 21 21 22 27 33 33 19 8 7 8 8 9 9 9 9 9 9 9
39 43 49 48 44 39 38 34 32 37 47 48 46 46 44 43 41 40 39 39 40 39 40 40 38 36 34 33 32 30 24 20 18 17 16 20 30 31 27 14 8 8 8 8 8 8 8 8 8
44 44 47 48 38 33 30 35 30 30 35 42 48 47 45 44 42 40 41 41 40 40 40 40 40 40 38 34 34 32 27 25 22 16 12 9 17 28 29 27 20 14 10 9 8 8 8 8 8
41 48 47 49 33 31 31 36 43 29 33 36 35 46 46 43 41 40 41 42 42 40 40 41 41 42 40 36 35 32 29 29 26 20 17 14 10 15 25 26 24 22 20 18 17 16 14 14 13
40 46 56 44 26 28 32 34 39 43 35 40 43 39 41 46 43 41 41 41 40 41 40 40 42 43 41 38 36 33 31 32 30 25 19 19 14 10 14 21 21 21 20 19 20 21 21 22 24
42 44 46 41 30 28 28 36 38 45 38 41 44 42 35 38 47 44 40 41 40 41 41 40 42 43 42 39 36 35 34 33 33 29 22 22 22 18 16 16 16 17 18 20 21 22 22 23 24
48 52 49 40 36 27 26 33 38 50 42 41 46 44 35 34 40 48 48 45 42 41 41 41 42 43 43 40 38 37 35 34 33 32 29 23 26 26 26 27 28 30 30 30 32 32 32 30 30
49 61 48 42 39 30 34 31 37 51 45 42 47 48 43 39 40 46 50 49 46 46 42 41 42 42 43 41 40 40 37 37 35 34 32 30 24 27 27 29 31 31 31 32 32 32 28 28 27
54 55 42 40 40 38 37 42 48 50 52 48 51 47 45 46 42 47 48 51 48 45 41 42 42 42 43 42 41 42 40 38 36 35 34 34 32 25 27 30 30 30 30 31 31 30 29 25 24
51 45 40 39 36 39 38 36 42 50 53 51 54 55 56 52 45 47 50 49 49 49 46 42 41 41 42 44 43 44 42 39 37 36 36 37 36 33 25 29 30 31 32 32 32 30 30 28 29
39 32 38 42 44 46 42 40 36 40 44 51 55 57 57 57 51 42 40 47 49 48 47 45 42 42 44 45 44 45 44 41 39 37 37 39 39 37 35 33 32 32 33 33 32 30 30 30 26
54 42 38 39 42 42 45 41 38 36 37 43 52 58 56 57 53 51 52 46 41 46 46 45 43 43 44 44 44 44 45 43 41 39 39 40 41 40 42 39 35 34 34 32 32 32 29 27 32
56 44 45 43 42 42 42 37 46 28 35 40 48 64 64 60 53 50 50 48 52 46 46 46 46 45 44 44 44 44 45 45 43 41 40 42 43 40 44 42 37 34 33 34 32 28 31 33 23
50 53 52 47 35 36 34 30 29 28 32 36 41 58 64 64 60 52 50 49 48 46 50 50 51 51 50 45 43 44 49 46 43 42 43 44 44 43 42 42 38 35 34 32 29 36 33 24 9
84 83 59 44 43 51 55 41 42 41 33 31 35 42 51 60 59 51 51 51 44 40 42 57 55 53 50 44 44 49 55 53 44 43 45 46 43 42 43 40 37 34 31 36 39 35 26 8 4
70 83 88 84 83 68 67 59 43 44 40 33 29 31 37 44 47 38 49 49 42 39 45 53 49 46 44 43 43 47 53 52 38 45 47 39 39 42 44 39 34 32 42 40 37 26 6 5 9
59 93 91 89 88 67 73 88 60 57 55 40 34 38 35 37 37 37 54 53 45 46 51 53 53 45 40 38 41 41 45 38 41 48 40 35 41 40 37 33 36 44 43 38 28 8 8 9 10
73 85 98 91 88 90 78 76 67 74 51 49 32 35 42 43 37 47 62 63 52 43 54 45 43 42 38 36 36 38 35 39 51 41 36 38 41 37 33 44 46 45 38 24 9 8 9 10 12
100 99 94 84 81 77 77 68 67 66 54 42 39 30 39 46 41 52 61 57 52 50 46 42 43 45 40 40 37 39 40 51 44 35 38 40 36 38 47 47 42 33 20 13 10 9 11 14 18
95 100 99 73 52 50 76 56 48 36 45 41 33 28 30 41 39 49 54 55 55 45 44 43 43 42 42 39 40 44 51 46 32 37 38 34 44 46 44 37 29 24 19 13 10 12 16 19 21
84 74 68 74 77 93 60 74 51 46 37 32 32 35 28 40 47 46 50 53 47 46 48 48 46 41 38 38 45 51 43 33 36 35 38 45 46 42 38 33 31 26 19 15 14 16 20 22 23
96 81 79 90 90 94 91 92 67 46 37 27 30 30 24 32 46 60 60 59 45 50 50 51 43 43 37 48 47 38 32 34 34 39 44 48 46 45 49 53 50 39 28 21 18 19 22 24 25
93 93 90 94 100 95 88 86 58 50 37 32 29 28 35 25 47 62 64 64 50 51 52 52 43 48 48 44 35 32 35 34 41 46 48 50 52 53 55 56 55 51 41 30 21 18 21 24 25
97 97 96 98 97 88 66 79 56 47 44 50 36 24 48 35 38 53 63 65 58 58 56 53 44 49 44 36 33 35 34 41 48 51 53 54 52 53 55 55 55 55 54 40 22 15 20 24 24
82 88 91 88 92 85 60 72 61 52 48 51 30 25 44 47 44 45 60 62 61 64 60 53 45 47 40 35 35 34 40 46 52 56 56 54 54 57 59 61 59 58 57 44 16 13 21 23 21
98 97 68 82 70 92 70 59 52 42 32 25 26 24 28 42 46 50 46 52 60 62 63 54 46 44 38 37 35 36 46 50 53 57 57 58 61 63 64 64 63 60 58 42 10 17 22 21 21
97 96 98 98 96 94 69 63 60 44 52 64 45 20 21 32 44 50 53 50 58 64 64 55 46 42 39 38 36 44 48 50 53 56 59 63 66 67 66 66 67 63 60 21 12 21 21 21 22
94 99 97 92 92 91 86 52 36 32 49 56 55 42 21 28 39 42 55 52 60 63 58 54 47 41 40 38 41 46 48 51 54 58 63 68 70 69 68 70 70 65 51 11 18 20 21 23 21
68 68 74 85 81 82 71 57 39 66 61 60 70 39 34 25 21 47 47 48 58 58 59 53 47 41 41 42 46 48 51 54 59 64 70 73 74 72 70 73 68 62 13 17 20 22 24 22 23

GFSSGP_700_rhum_009.txt.gz
RH
42 44 44 44 41 39 41 24 23 41 38 32 31 44 43 40 42 43 40 36 34 35 35 35 34 33 30 29 27 24 22 22 23 26 31 33 20 7 7 5 6 7 7 7 7 7 7 8 8
38 42 46 47 43 40 35 34 27 39 47 44 38 46 45 43 46 40 37 36 37 36 35 37 37 34 31 30 30 26 21 19 17 17 20 29 32 23 8 8 8 8 8 9 9 10 10 10 10
34 38 47 51 47 38 35 30 26 38 47 48 47 46 46 49 48 46 39 38 40 39 39 40 39 37 35 32 31 29 27 26 21 14 11 14 29 31 24 12 8 8 8 8 8 8 8 8 8
33 38 47 51 38 33 30 34 31 36 40 45 49 47 46 44 42 41 42 43 46 45 41 40 40 40 38 34 32 30 30 30 27 19 15 10 12 27 29 26 21 14 10 9 9 8 8 8 8
33 35 44 50 34 31 32 34 39 31 31 34 36 46 48 45 43 41 43 43 44 43 42 40 41 42 41 36 34 31 31 31 30 25 19 16 11 11 23 26 23 22 21 20 20 19 18 18 17
36 35 48 40 30 28 30 34 35 37 32 36 39 41 43 47 45 43 42 42 43 42 42 40 41 42 43 39 35 34 33 32 31 29 23 21 19 14 12 15 20 20 20 19 19 20 21 20 21
47 38 39 35 31 30 28 34 35 37 39 36 41 41 40 42 47 45 42 41 41 42 42 41 41 43 44 41 38 36 34 33 32 31 29 24 24 22 21 21 22 23 24 26 27 28 29 28 30
46 48 49 39 36 31 28 30 35 41 45 43 42 44 40 37 38 44 47 42 41 41 41 41 41 42 44 42 39 38 37 36 35 34 32 31 26 25 26 28 29 30 31 32 32 34 35 32 30
38 54 47 38 37 34 36 33 30 38 50 46 41 46 46 38 32 37 48 50 49 47 42 42 42 43 43 43 40 40 40 38 36 35 34 34 34 29 27 29 29 30 31 32 33 32 30 29 29
44 42 28 25 30 36 37 38 39 42 45 48 43 47 50 45 39 33 43 53 50 44 43 42 42 43 43 43 42 41 42 40 39 36 36 37 37 36 33 30 32 32 31 32 32 32 31 29 26
50 33 27 26 28 33 34 34 37 40 49 51 49 54 51 49 45 36 43 51 53 50 43 42 42 43 44 44 44 42 44 43 41 40 38 38 39 39 38 36 32 32 31 32 32 32 32 31 31
42 25 30 32 39 43 34 34 33 34 34 52 54 54 55 50 46 42 36 50 50 50 48 45 42 42 42 43 44 44 44 45 44 42 42 40 40 41 40 39 36 34 32 32 32 33 33 34 29
60 45 40 34 32 32 32 27 25 26 30 37 49 53 54 55 49 40 42 40 44 47 49 47 46 44 44 45 46 46 45 46 46 45 44 43 42 42 41 40 39 39 34 33 33 34 33 30 33
58 46 42 44 41 37 32 21 33 16 23 31 36 42 50 53 54 49 42 42 44 41 45 49 49 48 45 44 45 47 46 46 46 48 47 45 45 44 44 41 42 40 37 35 34 31 34 37 31
64 60 56 40 35 44 39 32 29 22 21 22 28 35 40 48 52 52 49 43 47 49 49 49 49 54 52 50 49 46 48 48 48 53 49 46 47 47 45 43 44 41 37 34 31 39 37 31 16
61 69 55 44 38 38 45 40 35 32 26 22 21 26 34 40 51 52 52 49 46 47 43 43 43 52 57 56 53 53 50 52 54 55 54 47 49 48 44 43 42 39 34 33 42 39 32 13 5
52 60 66 59 61 60 56 52 38 35 33 28 23 22 26 33 40 51 53 50 52 52 44 38 39 45 56 56 56 52 51 50 52 55 54 44 49 45 41 45 41 34 35 42 40 32 16 8 9
53 63 68 70 67 62 61 58 44 41 40 29 29 26 26 27 33 39 46 48 51 53 49 44 40 49 53 52 50 45 47 48 46 52 44 50 46 40 43 43 34 41 42 39 28 15 9 9 10
66 72 87 88 79 81 60 51 51 44 43 36 29 25 28 28 33 33 35 38 45 57 59 48 50 58 57 57 46 46 42 46 44 44 47 50 39 40 41 34 44 43 34 25 19 13 10 10 12
68 82 78 81 80 77 73 43 44 40 37 34 30 28 25 26 29 36 36 34 41 64 62 49 57 62 51 46 44 45 44 44 48 47 51 41 40 40 34 44 41 33 27 23 19 16 12 12 16
92 100 99 98 96 64 62 45 34 29 28 28 29 29 26 24 24 30 37 41 38 63 57 46 55 48 46 51 47 44 47 46 48 54 43 40 40 37 44 40 36 36 38 37 31 22 16 17 20
82 86 82 83 93 96 73 70 51 38 36 34 28 25 26 26 25 26 33 42 50 60 55 52 46 46 49 52 46 45 46 52 56 41 42 40 40 45 41 44 53 56 55 53 44 30 19 17 21
89 88 83 80 91 98 99 97 57 52 45 37 31 27 26 24 26 26 31 39 55 55 55 47 49 51 51 44 43 41 50 55 38 38 39 41 45 44 48 52 52 53 53 52 50 43 23 14 16
87 97 100 92 94 96 79 90 59 55 42 34 31 26 24 26 27 26 33 47 47 53 52 49 50 51 47 45 39 48 50 38 35 37 42 47 46 48 50 52 55 58 59 53 50 48 26 9 12
91 97 94 97 97 83 61 85 60 49 48 42 34 29 32 30 32 30 38 46 52 51 51 51 52 52 47 48 49 46 36 37 38 43 49 47 48 49 51 56 60 62 61 60 55 52 29 9 14
88 90 90 89 81 73 67 83 62 54 42 31 35 30 34 36 56 47 40 58 64 61 52 51 55 54 48 51 47 36 36 37 40 47 50 50 49 51 56 62 64 63 63 64 59 55 23 12 18
98 100 69 96 95 97 72 56 49 43 31 53 52 49 27 30 45 60 47 59 66 62 57 61 61 55 49 50 38 36 38 38 44 50 52 50 52 57 62 66 66 64 65 67 61 48 16 16 20
90 100 99 98 95 90 69 70 52 37 39 33 56 64 56 26 39 51 60 51 61 64 60 65 65 58 48 44 38 38 37 44 51 54 52 52 56 62 67 70 69 67 69 69 62 26 16 19 22
91 99 99 97 97 86 71 46 36 38 42 46 49 66 53 42 27 36 55 59 53 59 61 64 66 58 48 42 41 38 42 49 52 53 53 56 61 66 71 73 74 72 72 69 40 18 18 21 23
73 78 82 96 87 94 80 66 47 39 46 60 55 76 75 56 28 30 48 56 50 52 59 66 66 58 48 45 40 42 47 50 52 53 56 62 67 72 76 78 79 74 74 52 20 18 21 22 20

GFSSGP_700_rhum_012.txt.gz
RH
40 41 44 45 49 44 36 34 23 38 39 29 28 34 46 46 52 42 41 36 34 35 37 36 34 32 30 28 27 22 19 18 18 20 29 33 24 8 6 4 5 7 7 8 8 8 8 8 9
35 40 44 48 45 38 30 36 26 35 42 38 28 28 43 46 42 43 40 37 35 38 36 37 37 34 32 30 29 27 26 25 18 14 14 24 31 22 8 8 8 8 8 9 9 9 10 10 10
33 38 48 54 45 37 34 37 34 25 44 46 43 32 44 49 43 45 39 38 38 40 38 38 38 37 36 33 31 29 29 29 25 17 13 10 22 30 20 11 8 8 8 8 8 8 9 9 9
31 35 41 49 40 41 40 40 32 30 41 47 47 46 46 46 48 46 45 41 43 41 43 43 40 39 38 35 32 30 30 30 29 23 17 12 11 25 28 24 19 13 11 10 10 9 9 8 8
31 32 52 52 43 41 36 36 36 32 34 36 47 46 47 45 45 44 46 46 44 44 44 42 41 41 40 37 34 31 32 31 29 28 23 18 13 12 23 25 24 22 21 20 20 20 19 19 19
37 45 51 43 41 45 29 31 33 34 37 33 36 44 47 46 44 44 43 43 43 44 43 42 42 41 42 40 36 34 33 31 29 29 28 23 20 17 12 14 16 18 18 18 17 17 19 21 21
50 53 44 43 40 44 34 29 34 38 39 38 37 42 46 45 47 45 45 44 45 44 43 43 42 40 42 42 38 36 34 34 34 32 30 29 24 23 23 24 25 26 26 27 28 29 31 30 31
47 68 53 56 45 45 41 26 29 34 42 37 38 41 43 40 41 47 46 43 42 42 44 43 43 42 42 43 41 38 37 36 36 34 33 32 32 28 26 28 29 30 29 29 30 31 32 32 29
34 69 53 54 56 48 34 28 27 30 36 40 42 42 42 39 37 38 43 49 46 42 42 42 43 43 44 44 43 40 40 39 38 36 35 34 34 34 32 28 29 30 29 30 31 31 31 31 30
40 70 55 57 60 55 50 37 37 31 33 40 45 43 44 42 39 34 37 47 50 49 48 44 44 43 44 44 44 42 42 42 41 40 37 36 36 37 37 35 31 31 32 32 32 32 33 33 31
50 64 63 40 31 32 41 28 35 35 44 36 50 46 43 45 42 38 35 44 52 52 47 44 43 48 49 45 47 44 43 44 44 42 41 39 38 38 39 38 37 36 35 34 33 33 33 34 34
38 22 42 33 32 37 33 35 24 30 29 56 47 47 44 48 46 42 36 42 50 52 51 47 44 44 45 45 44 45 45 44 45 45 44 43 42 40 40 40 40 39 39 35 34 33 34 34 33
58 45 35 32 27 28 34 28 34 40 23 31 43 52 49 51 49 44 38 35 45 50 51 49 47 44 47 49 47 48 45 46 46 47 47 46 44 44 42 42 41 41 41 40 35 34 34 31 32
60 47 43 42 40 41 37 25 46 15 19 25 32 39 53 52 52 49 42 39 38 46 48 51 50 49 47 45 46 46 49 49 47 47 48 47 48 46 46 44 44 42 42 41 37 34 31 36 37
61 51 47 38 38 43 39 35 33 23 25 20 20 29 33 48 52 52 47 42 43 43 50 51 51 51 51 51 48 46 46 47 47 48 48 51 54 50 48 47 45 42 43 40 34 31 39 38 32
56 53 66 56 43 44 47 50 62 31 25 23 21 19 24 30 36 44 48 46 44 46 46 50 49 50 51 54 56 55 54 52 49 50 50 55 55 51 48 49 45 44 44 36 33 40 36 28 13
78 68 84 76 44 56 56 72 74 41 36 33 29 29 24 21 28 34 41 44 44 45 49 50 48 45 43 49 58 58 56 55 53 50 50 51 54 48 48 45 41 45 37 36 40 33 22 12 9
66 86 80 70 74 47 49 70 54 56 42 41 36 31 28 24 21 28 35 41 43 44 45 48 47 45 42 44 51 60 58 54 50 49 50 48 52 44 50 41 47 38 39 39 28 20 16 12 10
57 68 81 83 55 55 37 34 49 38 37 39 34 34 31 26 24 23 27 36 40 45 45 46 46 45 45 46 50 58 56 52 44 42 45 45 44 47 42 46 40 41 38 28 25 23 18 15 13
62 86 83 82 85 70 70 24 31 28 21 25 29 29 29 29 30 25 27 29 34 41 46 46 48 45 44 57 64 64 67 54 47 41 46 48 46 48 43 43 41 39 33 40 48 46 40 28 19
92 94 88 87 88 92 81 44 30 37 27 21 24 26 26 27 29 29 27 29 30 34 36 41 52 49 51 63 66 65 57 54 44 41 47 54 61 47 45 40 41 40 49 50 49 48 48 43 26
91 92 93 98 99 81 84 55 42 44 42 30 25 26 27 24 24 27 27 27 31 34 32 36 60 52 51 62 62 57 55 53 52 51 56 71 52 53 40 45 44 49 48 50 52 50 47 46 34
93 81 96 100 96 95 76 98 45 42 51 49 33 30 31 30 26 26 28 26 29 39 36 36 59 55 52 53 54 59 58 51 54 53 58 50 54 43 46 46 50 50 53 55 56 56 55 50 48
88 99 100 100 100 92 55 63 52 40 42 45 36 33 38 31 26 24 26 28 28 35 40 48 58 56 49 50 53 56 51 52 50 52 46 45 44 47 46 49 51 54 57 59 59 59 59 56 50
100 100 74 82 93 64 44 51 48 46 50 41 35 32 38 39 33 27 31 30 28 29 38 58 57 50 50 51 52 50 50 64 64 50 45 43 47 49 50 51 56 60 62 62 60 60 61 60 48
95 96 66 62 43 41 45 58 39 38 52 46 36 26 30 33 38 35 43 40 31 34 42 56 55 48 50 52 47 47 48 99 51 44 42 47 50 51 53 56 62 65 66 64 62 62 64 63 40
100 99 85 87 72 82 58 53 55 44 59 46 45 44 54 39 32 41 58 61 34 45 50 52 53 49 52 53 48 51 53 98 45 40 41 47 52 55 57 61 66 68 69 68 66 66 66 57 30
90 99 94 99 79 66 40 50 46 36 43 47 61 79 66 57 53 28 47 63 45 54 64 60 59 51 55 55 51 53 80 44 42 41 45 52 56 57 60 64 68 72 74 74 72 69 68 41 20
97 100 98 93 88 70 64 39 32 40 46 43 50 41 50 64 51 38 46 62 52 67 68 68 61 57 62 58 52 53 92 42 41 44 51 55 58 60 63 67 72 76 78 77 75 72 58 26 18
86 89 98 97 81 97 83 64 46 47 47 38 47 48 54 49 64 44 44 57 57 62 68 66 65 67 65 58 50 60 45 42 42 50 55 59 60 62 67 72 76 80 82 79 78 69 36 18 23

GFSSGP_700_rhum_015.txt.gz
RH
35 38 40 42 50 42 32 30 30 30 30 32 39 38 40 43 43 43 46 41 35 34 34 35 31 29 30 29 28 25 23 22 16 15 17 26 31 14 7 4 5 6 7 8 8 8 8 8 9
30 35 40 55 48 34 30 28 32 25 35 40 35 28 36 43 45 48 43 39 34 36 36 34 34 34 33 32 29 28 28 28 24 16 12 13 26 29 12 7 7 8 8 8 9 9 9 9 9
28 32 55 54 44 35 28 31 33 33 38 36 39 30 42 48 46 43 42 40 36 38 38 38 37 37 36 34 32 29 29 29 28 22 15 10 13 28 24 12 8 8 8 8 8 9 9 9 9
30 33 54 52 41 34 32 31 34 38 35 39 42 39 43 38 45 45 44 39 40 41 41 40 41 39 38 36 33 31 30 31 29 27 21 16 10 20 27 24 19 15 12 10 10 9 9 9 9
30 51 53 44 38 33 32 37 40 39 37 39 42 37 43 44 44 47 47 43 42 42 42 43 43 41 41 39 35 32 32 31 28 27 27 22 17 10 18 25 24 23 22 21 21 21 20 20 20
60 54 47 37 35 35 33 37 39 39 37 37 39 42 42 45 44 45 46 46 46 44 44 44 42 41 42 41 38 34 33 32 31 29 28 27 23 20 16 13 13 14 14 16 16 18 20 20 21
58 56 42 37 34 30 32 42 43 40 37 36 36 41 42 48 46 44 43 44 44 43 43 43 42 42 43 41 40 36 34 34 34 33 31 29 29 25 23 25 25 26 27 26 27 27 28 29 29
74 61 50 43 34 32 32 39 46 41 40 40 41 39 39 52 46 46 45 45 44 44 44 44 43 43 44 43 42 40 36 36 36 35 33 32 31 31 30 25 26 28 28 28 28 29 29 29 29
37 71 54 47 38 37 38 42 48 44 42 42 42 41 44 44 44 43 46 46 44 43 42 44 44 43 46 45 44 42 39 39 39 38 36 35 34 32 32 32 30 26 29 29 30 31 31 30 30
65 65 51 41 39 41 45 52 47 52 44 39 48 44 36 40 40 38 41 45 48 47 44 44 43 43 47 45 44 44 42 40 42 41 40 39 37 36 35 35 35 34 31 32 32 32 32 32 31
81 68 52 49 53 61 62 54 54 56 55 45 44 48 54 43 41 36 36 37 40 48 49 48 48 44 44 44 43 45 46 44 43 44 43 42 41 40 38 37 38 37 36 35 34 33 33 33 32
74 70 65 64 72 68 73 63 58 61 56 51 51 53 60 53 45 42 38 37 55 45 51 50 47 45 44 47 51 51 46 44 44 44 46 46 44 44 42 41 40 40 39 38 38 35 34 33 32
91 72 64 73 60 62 78 62 73 75 64 58 56 65 58 47 48 56 45 41 38 39 49 52 50 47 45 45 46 51 46 49 48 45 46 47 47 47 46 44 43 42 42 40 40 37 34 33 29
88 87 81 76 53 77 66 30 73 47 16 30 40 55 46 49 46 53 48 44 41 39 45 51 51 49 48 46 47 56 54 51 48 48 46 48 47 48 49 48 45 45 44 41 40 37 34 29 33
76 67 66 45 45 77 74 57 40 26 30 26 26 25 23 35 50 49 63 54 43 45 44 46 50 52 52 52 49 47 48 49 50 48 50 49 48 49 54 54 46 47 45 40 39 36 30 36 34
59 83 75 62 62 72 73 62 53 56 60 51 42 44 39 28 31 48 56 64 47 45 51 49 48 50 50 52 53 54 54 54 51 49 48 48 50 50 56 54 47 46 42 39 37 31 36 32 22
80 64 61 61 68 73 71 66 56 62 51 62 53 61 58 52 35 36 41 56 62 60 48 48 50 50 48 49 51 52 58 59 60 54 53 52 50 52 53 53 46 46 40 41 33 37 29 19 14
58 70 64 56 55 71 71 66 59 62 60 60 49 35 48 59 59 35 35 37 60 68 52 52 45 48 50 48 46 45 50 57 60 56 56 55 50 50 48 48 46 42 41 36 38 28 23 23 19
75 69 60 57 61 67 66 61 57 54 47 35 25 23 24 29 32 55 24 23 50 40 44 42 47 43 48 48 43 43 42 48 58 57 58 52 46 45 45 45 48 43 39 39 31 36 40 41 41
85 78 71 66 66 68 67 34 46 20 14 17 18 16 16 19 22 28 30 22 23 31 32 35 41 45 45 47 42 44 45 54 59 63 60 52 46 46 46 52 48 44 40 35 43 40 39 38 37
83 80 74 70 70 74 64 44 23 37 26 19 14 13 15 16 18 22 25 29 23 24 27 36 41 45 45 42 41 44 50 58 59 63 62 50 46 50 53 57 53 42 40 45 44 48 49 48 47
79 73 75 80 80 65 72 49 36 29 29 32 35 27 18 18 22 23 25 26 30 25 27 32 33 42 48 41 37 41 48 60 64 61 58 56 51 53 91 63 46 45 45 46 50 54 54 54 54
85 89 89 88 83 82 61 68 44 29 25 28 32 39 43 38 41 39 26 25 25 36 36 29 37 37 42 44 46 49 60 68 61 60 60 56 60 84 94 66 49 46 49 50 55 57 57 57 56
97 95 98 94 94 86 56 51 40 29 23 29 30 37 38 44 47 46 25 26 25 29 48 30 36 38 39 49 53 57 62 63 55 58 55 51 58 99 68 52 51 51 51 55 59 60 58 58 58
100 99 71 82 93 64 35 38 39 29 32 34 38 39 38 42 52 58 51 26 26 27 40 31 35 42 41 50 60 62 60 52 63 61 59 58 66 73 61 51 52 54 55 60 62 61 60 61 61
100 96 62 52 38 34 37 36 35 36 33 40 38 44 44 50 70 64 40 38 29 28 34 30 34 44 47 58 62 54 51 58 56 64 58 90 53 56 50 54 55 56 59 63 64 64 64 64 64
96 96 73 81 67 63 47 40 38 37 38 38 43 46 44 59 62 75 57 41 41 46 38 33 37 46 54 62 59 51 56 58 57 56 87 69 48 48 54 56 60 60 62 65 68 68 68 68 68
94 88 92 95 80 54 34 33 33 32 35 37 39 42 48 65 75 64 57 54 44 57 52 36 44 52 60 62 54 54 56 54 79 85 64 49 46 52 57 62 63 63 65 68 72 74 75 74 73
99 100 99 87 88 74 63 41 37 39 42 41 39 43 66 73 69 52 47 58 39 61 55 40 57 58 63 61 53 56 57 84 71 99 60 48 49 56 60 63 63 65 68 73 78 79 79 77 71
84 94 91 96 70 93 86 70 53 47 46 49 49 67 56 58 56 40 48 58 45 62 54 54 66 67 66 60 56 58 57 88 77 81 50 48 52 58 62 64 64 68 71 80 85 84 83 80 56

GFSSGP_700_rhum_018.txt.gz
RH
32 33 35 36 45 51 42 34 30 27 29 28 32 34 37 39 45 48 47 47 41 35 33 34 30 28 29 30 28 27 27 27 25 17 13 14 25 28 9 5 4 6 7 8 8 8 8 8 9
30 32 35 35 57 49 37 33 30 29 26 35 30 31 36 42 46 46 46 44 41 35 34 34 32 32 33 33 31 29 28 29 28 24 16 11 13 27 25 9 7 7 8 8 8 9 9 9 9
27 32 37 58 56 49 39 30 30 30 28 28 34 33 35 48 50 43 45 42 38 35 36 34 35 35 37 36 33 30 29 30 29 27 24 16 9 16 27 20 10 8 8 8 9 9 9 9 10
28 31 34 48 47 41 36 32 34 33 32 36 39 39 35 48 52 44 44 41 39 37 38 38 38 39 40 38 35 32 32 32 29 27 26 23 15 9 21 27 24 19 14 12 11 11 11 10 11
29 33 59 50 38 40 36 32 34 36 35 37 39 26 40 43 42 36 48 46 40 40 40 42 41 42 40 40 37 35 33 32 29 27 26 26 21 16 12 20 24 24 22 21 20 19 18 16 17
32 31 54 53 48 41 36 31 35 36 38 36 36 31 47 49 42 37 46 48 44 43 43 43 43 44 41 40 40 37 34 33 33 31 28 26 26 24 21 20 18 19 21 22 23 24 24 24 24
35 61 56 48 42 35 31 32 34 39 38 37 36 36 38 48 41 42 45 47 47 46 46 44 44 44 42 41 42 40 36 34 34 32 31 28 26 26 27 24 24 25 26 26 25 26 26 26 26
38 62 64 53 44 37 33 30 35 40 41 37 36 37 42 64 47 45 45 44 44 46 45 44 44 44 42 42 44 43 40 36 36 36 36 35 33 30 29 29 29 26 25 27 27 27 28 28 28
44 81 72 57 48 44 36 33 36 38 39 39 40 38 43 46 48 45 45 46 46 45 44 44 45 45 44 43 43 44 44 39 38 39 40 39 38 36 34 32 32 32 31 29 28 28 28 28 29
48 51 51 49 49 44 39 38 40 45 46 41 41 41 42 44 46 42 43 44 47 46 45 43 42 42 43 43 47 47 44 43 40 40 42 42 41 40 38 36 34 35 35 34 32 31 31 30 29
48 42 47 27 48 45 45 46 49 48 51 50 36 43 47 40 40 44 41 40 41 46 48 46 45 43 42 42 44 44 44 44 44 44 42 45 44 44 43 42 39 37 37 36 34 33 32 31 31
72 76 50 32 51 61 53 49 53 53 54 51 49 44 47 52 51 40 39 36 41 37 42 47 49 49 46 47 45 45 46 47 47 46 44 44 46 46 46 45 44 41 38 38 37 34 33 32 32
81 69 68 64 45 65 67 56 46 48 55 45 44 50 49 59 62 51 56 45 43 75 38 36 48 51 50 47 48 47 51 51 53 46 49 45 45 47 48 47 47 47 44 39 39 37 35 33 32
85 86 84 62 65 47 46 34 38 31 18 38 37 45 50 53 59 54 58 67 52 58 45 39 38 49 51 50 48 49 48 50 52 52 52 48 48 47 47 49 52 52 48 42 40 38 35 33 29
87 84 72 54 34 39 42 52 46 25 26 24 20 20 24 33 35 42 44 62 68 49 46 43 40 41 52 51 51 50 50 53 54 50 49 54 55 48 51 52 53 54 50 44 42 38 35 33 30
76 80 73 48 44 43 67 58 35 59 50 37 29 29 26 19 18 19 31 46 65 65 55 50 44 43 44 52 53 53 54 55 51 52 50 49 47 48 50 51 54 55 51 45 42 37 34 31 31
83 75 66 63 60 64 68 64 53 65 56 59 59 55 39 29 25 23 24 40 46 65 67 70 62 40 41 44 52 52 54 54 55 58 57 53 52 54 53 52 52 54 51 45 41 36 33 33 26
71 72 64 59 60 58 60 71 64 55 63 64 51 40 36 36 36 24 19 22 37 50 67 70 69 58 44 44 49 51 50 50 49 49 50 55 56 56 56 52 50 50 49 46 41 35 33 31 34
79 76 67 58 56 59 61 60 54 32 34 19 29 28 21 19 23 30 32 25 19 29 57 69 70 66 57 47 45 43 45 48 47 43 41 49 58 58 57 49 43 48 50 47 39 36 34 36 34
83 83 76 65 55 62 56 35 29 19 13 14 14 14 12 14 14 16 22 35 29 23 30 62 70 67 50 51 50 52 49 48 44 41 50 54 59 60 60 49 45 52 52 47 40 37 39 40 44
77 84 78 72 70 65 56 33 21 29 26 19 16 13 10 8 10 12 15 17 27 25 28 37 66 71 49 47 52 52 52 48 43 42 51 56 64 68 60 49 47 59 56 44 41 42 42 46 49
86 74 73 72 76 71 67 72 25 21 23 22 16 10 13 18 11 12 16 17 21 23 26 41 41 52 50 47 42 45 50 48 44 47 54 66 72 69 58 55 50 67 58 45 45 46 49 52 52
81 81 76 78 84 85 61 73 25 22 20 20 24 27 28 32 34 33 30 27 35 35 40 30 48 57 50 32 43 44 49 47 43 53 66 73 72 63 59 65 74 89 52 48 49 50 55 56 56
91 91 84 81 87 96 50 51 16 23 20 28 29 25 30 29 38 43 45 43 38 32 43 48 54 65 66 45 39 41 51 47 43 56 69 72 66 64 60 69 95 86 53 52 52 54 59 60 59
97 90 88 94 94 88 35 48 33 26 28 31 32 33 34 42 44 43 44 44 36 40 31 44 64 66 63 47 49 38 43 43 53 61 72 72 67 75 68 78 100 84 54 55 54 58 62 63 62
95 88 76 77 83 67 52 52 41 33 35 35 34 36 35 36 39 44 40 35 40 38 40 40 63 68 69 56 55 46 44 47 60 66 70 74 73 69 82 100 100 67 56 57 57 60 62 64 65
97 96 58 86 68 76 55 38 35 33 32 32 33 37 36 39 46 48 56 45 41 39 36 45 62 65 69 60 54 57 49 51 65 65 69 71 70 66 98 90 89 56 58 60 60 62 64 68 68
94 79 91 89 95 81 47 40 38 38 37 34 36 36 38 37 42 45 62 68 54 52 53 42 70 59 59 51 56 60 52 63 61 66 69 70 86 92 81 62 57 58 62 64 62 63 67 71 72
84 94 92 94 91 94 80 48 38 40 43 44 43 40 39 46 48 52 58 59 52 42 56 50 60 66 64 45 53 58 66 65 64 63 71 73 90 95 57 54 57 62 65 66 66 68 72 76 77
89 88 84 90 75 79 74 73 53 46 53 48 48 49 49 60 61 60 54 38 28 48 59 54 68 76 54 46 54 67 74 67 64 66 73 99 96 61 57 57 61 66 69 69 68 73 77 82 80

GFSSGP_700_rhum_021.txt.gz
RH
42 38 40 36 32 40 39 24 35 31 27 25 28 31 34 38 40 44 46 47 43 38 34 34 33 29 30 31 30 29 28 27 27 24 18 11 15 27 22 7 4 6 7 8 8 8 8 9 9
37 39 39 40 46 54 35 28 35 34 28 26 26 28 34 40 44 45 47 46 44 40 35 35 32 32 32 34 33 31 29 29 28 27 24 16 9 17 27 16 8 7 8 8 9 9 9 9 10
35 37 37 41 43 37 28 31 37 32 30 26 24 23 29 40 40 41 45 46 42 38 35 35 32 34 36 38 36 33 32 32 30 28 26 23 13 9 22 25 16 9 8 8 9 9 9 9 9
34 37 35 44 37 30 24 25 38 34 32 31 25 37 37 38 46 45 41 42 42 37 36 36 36 35 41 37 38 35 34 33 31 28 25 25 22 12 12 24 26 23 20 17 16 16 15 16 16
29 33 36 36 26 24 31 34 41 36 34 34 34 33 39 42 40 45 45 45 43 39 38 39 41 40 42 37 39 37 36 34 33 30 26 24 24 22 16 13 16 19 19 18 16 15 16 16 16
31 31 42 32 24 25 21 32 32 34 35 34 36 34 35 45 47 41 41 38 48 40 41 43 43 42 44 39 40 41 38 35 34 30 27 26 24 24 24 22 21 22 22 22 22 22 22 23 24
32 32 29 30 26 30 28 32 33 34 37 34 37 36 36 40 42 41 40 44 48 46 43 44 45 44 44 42 41 42 41 37 35 32 35 36 34 29 26 26 26 25 24 23 24 24 25 25 25
32 42 34 30 29 27 29 36 36 35 36 36 33 38 40 50 52 48 44 43 46 48 47 47 46 44 44 44 43 42 43 41 37 36 38 41 40 38 35 32 30 28 28 28 26 25 26 26 26
35 68 51 34 31 26 25 34 35 39 38 35 36 40 39 42 52 55 44 47 46 45 45 47 46 44 44 44 44 44 44 44 42 40 40 42 42 41 40 38 35 33 32 31 30 29 28 28 28
41 54 48 31 27 35 43 43 39 42 40 39 37 40 42 40 43 46 48 45 46 46 45 45 45 45 46 45 45 44 47 47 44 42 42 43 44 44 44 44 42 39 36 34 34 33 31 30 30
39 43 36 26 34 55 56 48 45 43 46 42 37 42 43 43 41 41 46 43 43 42 47 46 45 45 44 43 43 43 46 47 44 45 45 45 43 45 46 46 46 45 44 42 38 35 34 33 31
37 43 44 29 30 56 54 47 43 48 44 46 42 38 44 48 44 42 41 45 42 40 37 41 46 47 45 44 44 44 44 45 45 46 48 47 45 44 45 46 47 47 47 47 44 39 36 33 31
62 53 62 42 48 56 57 54 40 46 49 42 43 40 45 52 59 57 55 48 44 39 33 32 35 39 42 43 44 43 48 46 47 52 52 48 49 48 46 47 47 48 51 49 48 43 37 34 32
72 72 70 64 63 51 56 55 46 32 40 46 42 40 42 52 63 66 61 53 51 63 51 42 36 39 40 39 42 46 50 50 49 52 53 51 52 51 50 50 48 48 50 51 50 45 38 36 33
84 85 82 52 28 36 29 29 30 17 16 19 21 20 37 47 53 58 64 59 50 66 65 54 43 41 43 40 40 45 51 51 49 47 50 54 51 50 56 52 49 50 52 53 52 46 40 38 33
83 86 76 33 41 36 42 40 26 30 33 26 20 22 18 26 40 49 48 54 55 50 70 65 50 40 46 45 44 50 52 54 53 50 50 49 50 52 50 47 49 51 52 54 52 47 42 38 33
75 81 63 61 54 63 61 58 40 39 47 50 37 29 24 18 19 27 27 25 38 48 49 72 64 44 40 49 49 51 56 56 55 55 55 52 54 54 52 52 54 54 52 51 52 49 43 38 33
78 74 70 66 64 72 71 70 57 57 48 34 39 31 30 24 21 20 19 18 16 29 50 66 73 66 50 41 53 55 58 57 55 54 53 53 52 53 55 56 58 57 51 49 54 51 45 37 33
74 84 78 66 65 64 60 60 61 40 43 42 32 26 21 20 21 31 28 24 30 24 45 65 73 73 69 54 45 50 53 51 51 50 48 47 45 45 47 56 59 59 51 47 54 52 45 37 37
78 80 71 61 62 60 57 49 41 29 18 16 13 14 13 13 14 19 31 39 35 34 35 46 70 73 72 69 61 56 59 57 54 56 54 48 45 43 48 60 60 61 53 51 56 54 43 40 41
85 82 69 70 52 48 52 28 15 13 14 18 14 13 13 13 13 13 14 17 28 31 33 38 51 71 72 71 65 61 55 59 58 56 52 48 44 42 57 66 70 62 51 53 61 54 42 44 46
85 79 76 78 73 66 60 76 11 18 18 19 13 11 12 12 11 9 7 7 14 20 26 38 50 59 70 70 70 72 57 52 49 54 56 55 49 52 63 74 74 60 56 63 68 51 45 46 49
90 80 76 74 73 75 54 61 20 15 13 13 20 24 19 20 21 20 16 8 7 10 18 27 38 57 61 64 66 69 61 60 53 57 59 57 57 63 71 80 71 64 83 77 71 50 48 48 51
88 84 71 67 74 85 36 45 30 20 20 23 26 26 25 25 26 26 21 13 8 16 20 35 47 44 67 63 64 66 58 47 54 60 59 56 55 67 75 80 73 78 89 88 84 51 51 51 56
91 81 85 88 93 88 48 58 32 21 24 29 28 30 30 28 29 30 28 23 19 16 20 37 50 58 55 66 71 66 59 55 60 68 65 58 58 69 77 77 88 94 93 98 82 54 55 55 59
78 79 74 91 96 80 61 62 39 28 25 31 34 34 34 33 33 34 36 35 32 40 39 35 32 39 58 63 65 74 59 60 70 66 62 55 66 73 84 92 100 94 98 99 88 58 59 58 61
84 91 81 85 76 83 52 38 27 28 33 35 35 34 34 35 36 35 35 35 38 37 33 37 33 36 47 59 78 85 72 65 72 59 61 67 68 79 82 100 100 96 100 100 87 62 64 63 64
81 72 85 88 100 95 67 51 40 38 40 39 38 41 41 39 37 39 40 43 39 44 39 39 52 43 48 53 69 77 74 73 72 68 70 64 74 79 97 99 92 96 99 100 74 65 68 67 67
82 96 90 86 91 98 99 62 41 39 39 47 50 50 51 50 52 46 45 43 41 48 47 47 44 56 65 60 61 79 80 76 62 68 66 75 81 88 93 100 96 100 93 100 66 69 72 71 70
78 68 85 81 72 80 83 71 51 46 47 48 55 75 73 80 67 58 61 60 54 55 47 29 36 40 66 76 68 68 80 69 64 70 79 79 77 99 100 100 100 91 99 77 69 75 74 71 78

GFSSGP_700_rhum_027.txt.gz
RH
50 50 48 45 36 32 27 23 34 34 30 28 27 30 31 34 38 41 41 40 42 37 33 34 34 34 35 36 35 30 32 32 32 30 26 22 13 13 24 16 7 6 8 8 8 8 9 9 10
50 48 49 48 40 38 23 19 24 36 30 30 30 30 28 32 35 42 47 43 43 33 34 34 33 32 35 37 33 31 33 34 34 32 28 25 17 10 21 22 11 8 8 9 9 10 10 10 10
56 52 51 53 44 32 24 19 36 36 32 30 30 29 26 26 32 40 45 47 41 34 34 35 33 32 36 40 34 34 34 35 34 32 29 26 22 12 14 25 24 19 12 9 9 8 9 9 9
57 57 54 50 35 23 22 30 37 36 32 30 28 30 32 29 26 33 39 44 46 43 36 36 34 34 38 41 36 38 36 36 34 34 28 24 24 20 13 16 24 26 26 25 24 23 21 20 19
55 55 57 50 34 22 21 28 37 37 34 35 35 34 33 30 24 33 36 41 42 43 38 37 36 36 40 41 39 39 39 38 36 36 28 26 23 22 22 20 17 17 17 18 19 20 20 20 20
44 48 48 46 27 21 20 25 38 38 38 37 38 36 34 35 31 38 39 42 44 46 40 39 38 39 42 44 40 40 39 40 38 35 35 40 39 37 28 23 23 23 23 22 22 22 23 23 23
27 30 35 30 25 23 19 20 32 36 38 37 38 38 35 31 35 43 42 39 43 44 43 41 40 42 44 45 45 41 40 40 41 38 37 42 41 41 39 36 33 30 27 25 25 25 26 26 26
31 30 33 28 26 22 20 21 21 30 39 36 38 39 36 29 32 40 45 42 34 39 45 43 43 43 44 46 46 44 43 42 42 41 38 40 43 44 45 44 42 40 38 38 36 33 30 29 28
43 41 39 30 27 22 19 20 27 35 39 35 36 38 37 34 30 32 40 41 37 36 44 49 47 46 47 47 46 46 45 44 44 44 43 40 42 45 46 46 46 46 45 44 44 43 41 36 32
44 42 38 32 28 24 23 24 21 32 39 39 40 39 38 36 36 32 33 36 39 39 43 49 55 53 51 48 47 46 46 45 45 46 48 44 42 43 45 47 48 47 47 46 47 46 45 43 38
44 44 36 27 28 26 28 25 24 25 36 39 43 42 40 39 38 36 34 34 38 50 47 48 50 53 50 49 47 47 47 47 46 48 48 46 45 45 46 45 47 47 48 48 48 49 48 47 44
34 38 26 24 27 28 31 28 24 23 28 37 42 44 42 44 43 41 41 41 41 42 43 44 46 49 50 50 48 48 48 47 46 46 47 47 46 47 48 46 47 47 48 49 49 50 50 50 48
34 34 23 21 20 26 28 26 22 18 24 45 43 45 43 42 41 41 41 41 42 40 40 39 42 42 43 47 52 51 49 47 47 47 46 46 47 49 50 50 49 49 51 51 50 50 50 52 51
38 31 30 24 20 22 21 20 26 16 18 29 46 49 47 44 43 41 42 43 41 40 38 41 36 39 41 40 34 42 51 52 51 50 49 48 48 52 53 51 51 51 53 54 52 51 52 53 53
45 47 31 26 25 27 24 16 16 20 19 21 36 49 51 48 46 44 42 44 47 39 40 43 43 42 36 34 34 37 38 44 48 47 50 51 52 53 55 56 55 54 57 56 53 54 55 54 53
59 60 69 36 28 26 33 19 19 21 18 20 25 36 46 53 51 48 46 46 48 48 42 35 44 43 42 38 39 41 45 46 43 41 47 52 53 54 57 59 56 57 54 53 55 56 56 55 55
90 81 67 36 40 46 56 47 22 22 20 18 15 15 24 36 42 44 47 48 55 56 58 56 54 57 43 43 46 44 47 46 47 50 52 53 54 54 57 54 54 55 56 57 59 59 59 57 56
92 77 62 60 53 66 62 61 21 34 33 41 23 15 14 14 14 17 32 43 54 57 68 69 70 66 65 52 48 50 38 42 47 50 55 54 53 57 57 56 58 60 59 61 61 62 62 59 58
72 74 68 65 58 60 58 70 39 28 42 35 29 23 20 17 16 18 19 19 31 30 46 64 68 74 71 69 62 53 44 43 44 52 53 54 53 52 54 56 52 51 52 54 59 66 64 63 61
89 83 76 73 73 78 67 56 41 31 31 36 35 32 27 26 25 25 30 30 26 17 20 42 53 66 73 76 76 72 65 54 52 55 56 58 56 53 52 51 50 51 51 54 65 68 69 65 63
98 84 88 84 72 71 66 56 38 31 31 27 19 14 14 17 17 16 21 28 32 32 25 26 33 39 54 70 74 75 72 66 59 54 51 49 55 56 55 54 55 54 52 60 72 73 73 65 67
89 84 82 80 77 73 62 70 34 24 16 14 12 13 16 15 17 15 12 11 15 20 30 35 42 48 45 45 49 56 67 67 61 54 66 67 60 64 65 65 62 60 58 73 81 77 78 69 75
92 87 86 79 68 67 51 59 29 17 12 13 13 14 22 19 17 15 16 13 13 16 18 21 30 40 51 54 46 47 69 74 75 73 73 73 72 71 70 68 70 67 61 60 100 92 82 74 80
96 94 85 73 61 78 54 57 19 18 21 20 18 19 19 20 22 22 20 20 21 20 19 19 19 22 34 46 56 57 58 69 72 73 75 80 79 74 72 74 69 70 67 67 98 99 97 84 96
99 92 60 63 87 75 60 66 20 21 29 30 22 23 24 25 27 28 27 28 28 29 27 26 26 25 23 24 36 63 67 62 65 66 75 79 81 81 74 73 73 69 70 74 91 100 100 99 98
87 82 53 54 86 82 62 66 29 23 28 28 29 31 32 32 33 33 32 31 30 31 34 39 34 31 30 29 26 37 55 69 69 69 68 78 85 90 87 79 75 68 75 74 78 99 99 97 99
78 84 71 69 92 91 56 42 21 26 29 36 39 39 39 40 39 37 36 36 36 36 36 36 36 36 36 34 34 37 40 52 61 66 68 70 83 96 93 83 80 75 82 84 91 100 99 97 100
82 68 77 68 70 85 64 54 29 35 40 44 45 46 46 43 41 43 48 45 42 43 40 39 39 44 41 39 34 35 38 40 41 48 62 66 72 85 94 83 80 85 85 89 93 98 100 97 96
88 89 76 70 74 89 95 48 35 39 46 51 58 76 73 71 69 69 78 71 61 54 59 64 76 72 60 48 42 36 30 28 26 31 37 60 70 76 85 88 86 91 83 86 89 91 99 99 100
92 75 70 62 76 94 96 61 44 47 58 70 90 81 96 98 93 78 80 73 71 84 72 81 79 73 68 56 50 43 35 39 40 39 41 44 65 72 81 97 91 86 84 96 99 100 99 100 99

GFSSGP_700_rhum_030.txt.gz
RH
51 49 47 46 41 36 30 24 35 36 32 32 33 33 32 32 42 42 40 39 40 37 33 34 35 35 35 37 35 29 33 33 34 30 28 24 15 14 24 16 8 7 8 8 9 9 9 9 10
54 53 50 49 45 41 28 21 29 37 33 31 31 29 30 33 36 40 38 41 40 38 33 34 34 34 36 38 33 31 32 33 34 32 28 25 19 12 20 22 14 9 9 9 10 10 10 10 10
56 55 55 56 49 36 27 21 35 37 32 33 34 32 29 27 33 42 46 43 47 39 33 34 34 32 37 39 35 35 35 35 34 34 29 25 23 16 14 24 25 22 18 14 13 13 14 15 16
63 62 61 57 40 27 24 24 29 37 35 33 32 29 30 32 28 28 39 48 46 38 34 35 35 33 38 39 36 38 36 37 36 36 28 24 23 22 18 14 17 21 22 22 20 18 18 17 17
67 67 67 58 39 27 24 30 37 37 35 34 34 34 35 32 30 27 30 34 46 46 40 36 36 35 38 40 38 39 38 37 38 36 36 38 37 28 22 22 22 20 20 20 20 20 21 22 22
62 66 66 60 34 26 25 24 31 35 39 38 37 37 36 34 30 26 36 43 37 44 42 38 38 36 41 43 40 39 40 39 40 38 38 40 39 39 35 27 24 24 23 23 23 24 25 25 25
48 56 58 47 34 28 23 24 23 27 40 38 40 38 36 34 33 35 36 39 41 41 42 41 40 38 41 45 45 42 41 41 40 40 38 42 42 41 43 42 40 39 38 37 35 33 30 27 26
33 42 52 44 34 26 24 25 22 27 38 38 38 37 33 35 30 33 42 43 37 40 45 44 42 41 42 46 46 45 44 43 42 43 41 41 44 44 44 41 42 44 44 43 44 43 41 37 33
33 34 34 32 26 26 24 24 23 21 32 36 39 36 37 36 34 32 34 44 41 34 34 42 45 43 44 45 47 47 46 45 44 44 44 43 42 45 46 47 46 47 47 46 47 47 46 45 42
46 37 30 27 24 26 27 28 24 21 19 26 38 36 36 38 38 36 35 32 40 39 38 38 48 48 47 46 48 48 47 46 46 46 46 47 44 43 45 46 48 48 48 48 48 49 49 49 48
49 47 43 36 33 32 31 30 27 23 20 23 38 42 40 40 40 38 38 35 42 50 44 42 40 50 55 52 54 49 48 48 47 47 47 48 47 46 45 46 46 47 48 48 49 50 50 50 50
45 47 44 36 34 33 33 31 32 25 17 24 37 43 45 43 42 42 40 38 36 38 44 50 48 49 51 54 51 50 49 49 48 48 48 49 48 47 47 48 48 48 48 49 51 50 51 52 51
51 51 42 34 32 30 31 28 26 18 18 18 31 41 47 46 44 44 41 40 40 39 38 41 45 44 46 48 52 51 50 50 50 49 48 48 48 48 47 49 49 49 50 50 52 52 52 52 53
54 56 38 30 29 26 26 21 19 12 13 14 17 40 47 50 48 44 43 42 41 39 39 39 38 39 41 44 44 47 51 54 53 51 50 50 50 49 48 50 52 50 52 52 54 56 55 53 54
47 40 30 23 22 25 18 13 12 11 13 11 12 25 46 50 49 46 45 43 42 41 43 44 43 43 39 38 44 47 48 44 48 51 53 53 53 53 52 52 54 53 55 54 57 58 57 56 56
46 48 40 27 21 23 21 16 20 18 15 12 12 17 22 40 52 50 49 48 45 45 43 46 48 47 39 37 40 40 44 43 42 44 50 48 50 55 56 56 56 60 60 56 58 55 58 59 59
77 68 48 37 31 33 29 28 27 19 16 17 14 14 15 23 40 49 47 50 50 50 50 49 51 49 45 38 41 52 53 52 48 47 45 45 48 54 55 56 59 64 59 58 57 59 60 62 61
90 83 52 43 37 37 47 58 23 20 22 23 19 12 10 11 12 25 42 46 50 54 55 56 56 56 52 46 43 46 51 56 52 50 47 47 49 55 57 58 57 56 57 61 62 60 58 63 61
83 79 67 49 53 53 42 47 22 20 22 18 19 18 16 15 15 19 19 19 22 37 51 54 58 57 60 61 59 53 43 44 48 51 51 51 52 57 58 62 63 62 62 57 54 53 58 58 62
84 79 69 66 69 74 63 56 27 20 20 24 26 23 22 22 23 25 29 30 26 26 27 35 49 54 61 69 69 72 72 62 62 66 62 58 56 60 63 62 63 57 58 53 52 52 54 59 66
84 76 74 72 78 76 68 53 32 23 27 28 26 23 21 17 19 22 26 32 34 33 33 33 30 30 39 40 64 70 75 76 71 64 59 52 58 60 59 59 62 60 55 56 55 55 57 70 71
89 80 82 82 81 75 63 64 31 26 19 16 15 15 13 22 21 16 16 17 17 19 29 37 38 41 43 36 33 50 67 69 71 74 68 63 49 62 62 62 66 68 62 63 63 60 66 77 83
99 89 87 86 81 74 57 56 28 18 16 17 16 14 13 14 24 23 22 18 17 14 16 18 34 40 49 57 58 50 42 44 56 60 62 68 66 68 80 78 75 73 73 75 72 81 73 82 85
98 89 93 89 79 71 55 52 14 18 23 25 25 24 24 24 23 23 22 22 22 22 21 22 21 25 30 33 38 50 66 63 53 48 52 65 66 71 74 73 76 74 72 71 78 80 81 71 100
98 95 78 63 73 72 58 58 17 26 28 26 24 22 24 24 24 24 24 25 27 27 27 27 27 30 31 33 30 28 31 46 63 69 66 62 70 77 76 76 78 79 75 78 78 81 85 81 88
96 93 61 54 76 74 71 62 31 33 33 30 26 35 36 34 32 31 30 29 30 30 29 31 33 30 30 32 34 37 34 32 27 48 68 71 72 69 71 74 87 88 82 77 79 77 88 86 84
93 93 78 64 82 85 52 36 26 26 31 34 44 48 48 44 42 40 38 37 36 35 35 35 35 36 36 35 35 36 36 36 39 41 49 64 70 73 72 72 84 98 91 85 83 79 88 94 95
80 74 77 62 68 70 53 48 30 37 35 46 56 57 56 61 63 58 52 47 43 42 43 44 40 38 38 38 37 37 39 40 39 38 42 48 56 65 70 70 78 76 100 84 88 87 98 100 100
90 86 68 63 64 82 78 37 36 38 46 64 77 82 85 79 76 59 44 46 53 54 55 61 63 52 46 47 47 52 48 41 40 34 33 37 42 44 62 63 70 82 92 95 95 100 100 92 100
88 82 71 58 72 88 88 49 45 49 57 77 83 89 86 90 92 63 50 47 39 44 42 42 47 72 68 62 72 70 60 49 44 40 38 40 38 36 54 67 76 85 85 99 98 98 100 88 100

GFSSGP_700_rhum_033.txt.gz
RH
49 47 47 46 42 36 31 24 26 28 34 35 37 34 32 34 35 36 38 36 39 34 33 34 35 35 36 37 37 30 30 32 33 31 28 24 17 14 21 14 8 8 8 9 10 9 9 10 10
52 50 50 51 48 41 30 23 27 40 36 33 35 36 37 35 41 41 38 36 40 38 33 34 34 35 37 37 36 32 32 33 34 33 27 25 20 14 21 19 11 9 9 9 9 10 10 10 10
54 53 54 58 54 42 30 23 31 38 36 34 33 32 30 32 41 43 37 38 42 40 33 34 34 34 38 37 37 35 34 36 37 33 26 23 22 17 17 23 25 22 19 17 16 18 19 19 19
57 57 59 61 47 34 29 25 25 40 38 37 35 31 30 30 29 36 46 39 46 44 33 34 35 32 38 38 37 37 35 35 38 35 36 35 27 22 20 16 16 16 17 17 18 18 18 20 21
64 63 64 63 45 34 28 26 32 38 39 36 33 32 35 34 32 27 28 44 47 43 35 34 35 33 38 39 38 39 39 39 38 38 38 38 38 34 24 23 22 22 22 22 22 22 23 24 24
71 70 70 65 42 34 31 28 32 39 38 40 35 35 37 35 32 30 33 31 33 46 45 38 36 35 37 42 38 39 40 40 39 39 39 39 40 39 40 38 34 31 30 28 26 26 26 26 26
67 67 65 49 40 38 30 30 28 33 34 39 39 38 37 33 32 33 30 39 42 36 44 41 38 37 38 44 42 40 40 41 40 40 39 42 41 41 39 40 43 42 41 41 40 39 36 33 31
56 67 68 53 43 35 32 30 26 24 24 35 40 40 36 34 33 31 36 39 40 41 40 43 41 40 39 44 46 45 43 42 42 40 40 41 44 43 43 44 42 44 43 44 44 44 44 44 42
37 59 61 48 39 33 30 29 25 24 23 31 37 40 37 36 33 31 32 41 47 41 38 43 45 42 41 42 47 47 46 45 44 44 43 43 43 45 46 47 46 47 47 47 48 47 48 48 48
38 36 33 32 30 28 29 28 25 24 22 26 29 38 38 36 34 32 36 35 35 44 41 37 43 47 46 44 45 48 48 47 46 46 46 43 44 45 44 46 47 48 48 48 48 49 50 50 50
45 38 35 31 26 24 26 25 28 26 22 21 22 29 37 37 36 35 40 38 36 40 49 42 38 42 51 51 49 51 50 48 48 48 47 47 46 43 46 45 46 47 48 48 49 50 50 51 51
52 47 42 37 33 29 30 32 33 30 22 20 19 24 35 37 37 40 40 41 38 40 41 44 47 46 47 54 57 56 56 51 48 49 48 48 49 48 46 47 48 48 48 48 49 51 51 52 52
60 52 48 43 42 38 38 41 39 31 24 20 19 22 36 42 40 41 42 42 40 38 39 38 41 48 49 51 54 55 52 51 50 50 49 48 49 50 48 47 47 49 49 49 50 51 53 54 54
62 57 43 39 39 39 39 43 42 30 24 17 17 20 29 38 44 44 43 43 41 40 38 37 35 38 41 44 49 52 53 53 52 51 51 50 49 50 50 49 48 49 51 51 52 52 55 56 56
74 65 54 37 38 40 38 35 31 24 19 14 13 14 17 38 44 42 45 44 44 43 42 40 40 36 36 39 41 46 47 51 53 56 56 53 52 52 52 52 50 50 53 53 53 54 56 58 56
57 70 44 30 29 31 34 30 29 17 14 11 10 11 12 13 38 45 43 41 41 40 40 40 41 41 37 37 41 42 44 48 47 46 50 53 54 56 56 55 54 56 58 56 59 58 58 58 58
62 65 47 39 28 30 24 28 19 16 14 12 13 11 10 11 16 28 43 45 44 43 42 42 43 44 40 42 44 46 42 49 52 47 45 45 51 54 50 54 59 62 61 61 65 60 59 58 61
80 75 41 30 28 25 37 47 31 25 22 20 17 13 11 12 14 18 24 38 42 49 51 48 47 46 45 40 46 46 45 44 51 57 53 46 48 48 48 54 60 59 61 65 64 59 60 62 60
54 44 40 33 40 49 51 53 24 22 21 19 17 16 15 16 18 20 18 19 28 41 49 52 53 54 53 54 51 47 49 44 41 45 52 57 54 49 49 55 59 62 61 64 61 61 62 57 54
76 67 62 57 54 59 54 47 21 21 20 21 20 18 18 19 20 22 21 20 18 18 18 24 31 41 52 56 56 57 58 57 57 53 54 57 54 56 54 55 60 59 62 66 67 65 57 54 53
88 73 60 71 72 72 70 46 24 28 30 30 25 22 22 24 26 25 24 26 29 28 26 24 23 22 24 33 50 55 60 61 70 59 52 56 49 55 60 60 62 64 65 66 69 64 57 55 54
76 78 83 81 80 72 66 61 27 29 30 29 23 23 21 19 18 20 21 21 20 22 28 30 30 30 29 28 28 30 35 42 47 56 65 72 73 73 72 61 60 68 68 68 65 66 62 59 56
89 89 89 83 82 79 65 55 27 28 24 26 24 20 19 22 24 26 27 26 24 21 18 16 15 18 31 38 41 48 42 37 36 40 55 68 70 70 75 74 67 57 68 71 63 74 71 72 72
98 95 92 89 87 74 58 51 25 26 33 33 31 30 30 30 29 27 26 24 23 22 22 20 19 16 24 44 48 49 56 54 53 53 57 54 55 58 63 72 74 66 69 86 90 88 93 83 85
99 95 86 65 75 73 57 53 25 29 34 32 29 28 28 27 27 26 25 24 24 25 25 25 26 26 24 30 37 36 33 36 35 37 48 65 66 63 61 60 66 71 69 73 84 85 85 85 85
99 91 73 61 57 58 63 61 34 37 34 33 34 41 41 43 42 39 35 32 30 30 28 29 29 28 28 28 28 28 27 29 30 34 34 34 46 61 69 74 70 72 78 86 87 88 90 86 87
98 95 76 61 76 72 44 33 28 30 35 43 52 45 36 35 38 40 42 42 40 37 35 33 33 34 33 33 35 35 34 34 34 36 36 35 27 36 62 69 75 75 75 82 89 95 93 94 92
81 84 80 68 72 60 44 40 29 38 43 54 55 54 54 58 56 52 49 46 41 41 42 42 41 39 39 40 39 37 38 38 38 37 37 37 39 42 56 67 72 75 74 74 81 93 99 94 98
85 78 65 60 56 66 56 32 36 38 45 52 57 62 64 62 58 52 38 30 25 22 22 27 34 44 53 55 60 59 49 43 46 45 44 43 39 36 42 52 67 74 76 73 74 88 97 92 92
90 87 78 55 67 72 78 39 38 44 55 64 73 78 78 73 63 44 37 29 24 26 20 16 16 16 29 42 51 73 67 70 80 70 59 48 39 35 37 44 48 62 73 75 76 92 95 99 100

GFSSGP_700_rhum_036.txt.gz
RH
48 48 46 47 52 42 36 33 22 29 27 30 26 27 33 35 41 37 35 32 38 34 31 34 36 36 37 36 37 32 30 32 32 30 27 24 18 14 19 13 8 8 9 21 10 10 10 10 10
49 49 48 50 49 41 30 32 25 43 35 35 38 35 31 44 42 38 36 33 39 36 32 34 35 35 38 36 36 35 32 33 30 30 25 23 20 15 20 21 15 10 9 10 10 10 10 11 11
52 52 54 62 54 42 33 27 32 40 37 34 36 39 40 42 42 44 38 36 37 35 32 34 33 35 37 36 36 36 35 35 34 30 28 24 22 17 17 23 24 22 19 17 18 18 18 18 17
55 56 55 60 51 46 40 28 22 38 38 36 33 35 29 32 44 46 37 38 43 37 33 34 34 33 38 37 37 37 39 37 37 36 37 36 29 22 20 17 16 17 18 18 18 19 19 20 20
61 63 66 63 53 49 37 31 26 40 39 37 36 36 30 31 30 33 44 42 45 41 38 34 35 32 38 38 38 38 40 39 38 38 38 39 36 34 26 23 23 23 23 23 23 24 24 24 24
72 72 65 61 56 52 41 30 29 39 39 38 36 32 36 34 32 30 27 34 46 46 38 34 36 34 37 40 38 39 40 40 38 39 40 40 38 37 40 40 37 34 31 30 28 27 27 26 26
77 80 62 56 58 58 32 32 29 32 39 36 37 35 39 34 32 31 33 33 28 35 46 40 37 36 35 42 39 40 40 41 41 38 39 42 41 40 40 38 39 40 40 41 41 40 39 37 34
75 86 68 62 62 58 48 32 31 29 35 33 38 38 42 34 33 31 30 33 37 40 41 43 39 39 37 40 42 40 41 41 41 41 39 38 43 44 42 43 44 44 44 43 43 43 43 44 44
62 81 66 67 67 56 40 33 30 27 27 27 29 39 38 36 34 31 29 34 43 40 40 43 44 41 39 39 44 45 43 43 43 42 43 40 41 44 45 46 46 46 47 47 48 47 46 46 47
47 72 60 62 68 51 39 33 30 28 25 24 25 36 39 38 35 32 28 31 38 47 43 38 38 46 43 41 42 47 47 45 45 44 43 44 41 40 44 45 47 47 48 48 48 49 49 49 48
43 60 62 62 47 36 37 34 30 28 24 24 23 28 37 38 38 36 33 32 36 34 43 44 38 40 48 47 44 44 48 48 47 46 46 44 44 44 42 44 45 46 47 48 48 49 50 50 51
54 46 64 49 34 29 29 30 27 25 34 25 24 24 27 33 38 37 36 34 32 33 32 45 42 39 37 50 55 50 48 52 50 48 48 47 46 47 46 46 46 47 48 48 48 49 50 51 52
54 60 46 42 35 33 30 30 30 25 29 29 25 21 21 28 33 35 37 37 37 34 35 36 44 44 45 46 49 58 59 58 57 52 51 48 48 48 49 48 47 46 48 48 48 49 50 52 54
62 74 52 47 43 38 41 39 37 32 34 32 26 22 22 20 29 34 36 39 38 38 35 36 37 37 35 42 48 48 54 57 55 54 51 50 49 48 48 50 49 48 48 49 49 50 51 52 55
76 71 60 50 48 50 48 50 40 40 37 32 26 22 20 20 19 24 33 36 41 42 42 39 38 38 39 35 33 40 43 52 57 55 53 52 52 51 50 50 50 50 49 49 50 52 52 53 54
88 76 79 44 49 52 49 51 51 30 29 27 23 20 17 14 16 15 15 27 40 44 42 42 40 40 37 35 39 40 39 43 49 55 57 57 57 57 56 52 51 52 52 51 52 56 54 57 57
84 60 63 65 37 49 43 51 46 28 19 16 14 13 11 10 11 11 13 21 31 38 41 42 43 42 40 35 36 36 43 45 46 46 49 52 52 54 54 57 56 55 54 55 57 60 58 62 60
64 59 71 59 44 30 26 37 28 20 14 13 12 11 11 10 11 11 12 13 15 23 33 39 40 42 42 40 37 38 34 47 48 43 37 44 47 50 51 52 56 54 52 57 60 63 63 69 62
75 69 63 35 51 34 44 63 28 19 19 13 14 14 14 14 12 12 12 12 13 16 18 24 35 40 47 47 44 40 36 32 37 47 44 47 57 59 54 53 52 51 52 59 63 63 64 65 60
76 65 65 52 49 47 65 43 26 21 18 16 15 14 13 14 13 14 15 13 13 14 15 18 24 35 39 42 42 40 46 47 42 48 52 54 51 57 63 61 56 56 55 60 63 61 63 62 64
88 75 65 70 57 62 57 42 22 23 23 21 20 19 18 17 17 17 18 20 22 21 19 17 16 17 19 24 30 36 41 40 44 48 53 55 56 56 56 59 57 62 64 60 64 62 64 69 72
87 74 65 67 75 56 56 33 45 40 38 37 34 30 27 26 26 26 26 26 24 22 22 25 28 28 26 25 23 22 21 24 30 46 52 55 60 66 62 55 63 67 64 61 65 66 68 69 66
80 62 82 85 80 74 66 54 46 38 38 34 28 24 23 23 24 23 24 26 25 23 22 21 20 21 21 23 25 28 29 28 28 35 40 44 53 69 74 70 63 66 66 68 68 71 69 69 71
92 89 90 87 82 80 67 58 38 39 41 34 34 32 31 30 28 28 28 26 26 25 23 21 19 18 16 16 15 22 37 44 43 44 47 52 49 48 53 60 66 67 73 71 69 70 66 73 82
99 94 88 84 91 64 51 56 40 34 38 36 38 36 34 31 29 27 26 25 24 23 22 20 20 21 20 18 18 19 34 51 56 58 53 49 44 51 58 63 62 64 63 69 76 76 75 81 96
97 98 70 62 50 42 51 47 39 31 36 37 38 40 38 38 37 36 33 31 31 31 31 31 31 29 28 27 27 26 26 34 44 43 38 35 33 33 39 46 63 70 76 68 73 77 80 86 90
98 97 72 53 54 60 40 37 37 37 37 41 45 42 44 45 43 40 39 39 38 37 37 36 36 35 34 31 32 31 31 32 32 33 36 38 37 34 34 34 43 60 69 71 70 70 77 81 84
92 83 78 69 71 53 34 35 31 37 45 58 57 52 51 51 51 52 50 46 41 36 33 31 31 34 39 40 38 36 35 35 36 38 38 38 40 39 37 36 33 36 60 78 77 73 77 82 92
82 91 73 71 56 43 29 25 35 45 48 55 58 64 64 61 56 53 46 29 23 20 16 15 14 16 18 20 28 41 50 52 51 48 43 43 46 46 42 37 36 43 62 72 80 80 83 83 86
91 83 68 57 73 70 64 33 37 44 53 52 58 62 64 62 61 55 40 26 25 20 17 18 14 14 16 19 20 19 20 27 40 60 73 65 68 63 52 45 39 37 40 48 72 81 77 83 88

GFSSGP_700_rhum_039.txt.gz
RH
45 45 46 45 55 43 33 28 29 35 33 35 30 25 28 32 40 44 42 38 38 32 31 33 35 36 36 36 36 35 31 27 30 28 26 24 18 14 18 14 9 9 24 26 10 10 10 10 10
51 49 48 63 50 41 31 32 32 34 38 34 22 14 24 33 42 42 38 31 36 38 32 33 35 36 37 36 35 37 37 30 29 28 24 23 19 16 18 21 15 10 10 10 10 10 10 10 10
56 53 74 58 51 40 34 33 29 41 26 37 37 33 41 53 41 39 34 34 35 41 32 33 34 36 37 37 36 36 39 36 31 35 33 26 22 18 16 20 24 22 18 16 16 16 16 16 16
62 60 72 60 45 44 36 33 29 41 32 34 39 39 40 45 42 46 40 38 38 41 32 33 33 35 37 37 37 38 39 37 35 36 36 35 32 22 21 17 15 17 18 18 18 18 18 18 18
72 74 66 56 47 41 39 39 37 40 41 38 34 37 49 33 43 46 40 38 44 42 32 33 34 32 38 37 37 38 39 39 36 38 39 38 35 36 29 23 22 22 22 22 22 23 23 23 23
79 76 65 53 48 42 41 43 40 41 40 37 34 37 50 32 31 34 39 44 46 41 39 35 34 34 35 38 38 38 40 40 39 38 40 40 39 38 38 39 38 36 32 30 29 28 27 27 26
100 84 69 53 46 44 43 45 42 38 39 38 37 37 48 33 31 30 28 30 36 45 45 36 35 35 34 40 38 39 40 40 41 39 37 40 42 41 41 41 40 39 39 39 39 39 39 39 38
100 88 76 61 49 46 46 50 47 41 37 38 36 37 43 42 31 30 29 28 27 27 35 44 38 37 35 36 41 39 40 40 41 41 39 37 41 43 43 43 44 45 44 44 44 42 41 41 42
96 96 87 67 52 48 53 54 48 44 38 35 37 40 44 46 34 32 30 28 28 31 40 42 43 40 38 37 40 42 40 40 41 41 41 40 38 38 44 45 46 46 46 47 47 48 47 47 44
64 86 72 60 54 56 58 52 44 33 30 36 37 35 39 40 36 34 30 28 33 39 38 38 40 44 43 40 39 44 44 42 42 42 42 43 42 41 37 41 45 46 47 47 48 48 49 49 49
47 67 68 59 56 61 60 56 45 36 40 38 39 40 32 38 37 35 33 30 27 33 44 41 40 36 41 46 43 41 45 46 45 44 44 44 44 44 43 42 42 44 46 47 48 48 48 50 50
76 53 58 55 60 60 60 55 51 34 40 42 44 30 24 34 38 38 37 35 33 29 28 42 43 41 38 42 51 47 44 45 48 48 46 46 46 46 46 45 44 45 46 47 48 48 48 49 50
67 67 66 66 65 58 55 55 50 49 49 32 27 24 23 24 32 37 38 37 36 34 32 30 34 44 41 39 38 47 55 52 51 53 52 48 48 48 46 47 48 47 46 46 47 48 49 49 50
90 77 79 70 61 50 50 59 54 39 55 33 26 27 24 22 24 28 31 33 35 34 34 34 35 40 46 44 44 44 45 50 58 58 57 56 51 50 48 48 48 49 48 47 47 48 49 50 50
96 78 85 75 58 58 45 62 64 46 58 34 30 30 26 22 20 20 22 25 35 39 40 39 37 36 36 38 37 40 43 47 46 51 55 55 55 51 50 50 49 49 50 49 49 48 48 50 52
96 86 77 63 54 60 59 54 57 51 48 39 50 41 32 23 19 17 16 20 32 34 37 40 38 34 32 34 34 34 34 39 40 41 45 54 56 55 54 54 52 51 51 50 50 50 50 50 53
84 65 67 64 38 62 58 57 55 54 35 30 37 34 28 23 19 16 15 15 15 22 37 42 43 40 39 36 38 37 37 39 40 44 45 47 52 56 56 57 59 56 57 54 53 54 54 53 56
59 65 49 52 59 49 72 69 55 50 43 26 22 30 22 18 16 13 11 12 11 11 16 27 39 45 45 43 43 40 41 37 42 40 40 46 49 47 48 50 53 51 50 57 58 59 59 58 60
44 56 42 47 52 51 65 57 55 57 32 18 14 15 19 15 23 15 9 9 9 9 10 11 17 33 37 44 45 32 34 40 39 39 42 51 52 51 46 53 57 55 54 52 56 54 54 59 61
63 51 51 57 60 47 48 56 59 56 19 15 17 21 19 18 16 10 10 10 10 10 11 11 13 16 22 28 33 34 25 30 37 39 38 46 43 49 52 55 59 65 64 61 57 55 56 60 63
60 58 54 62 68 53 59 55 33 36 20 17 12 13 13 13 13 11 11 11 12 12 13 14 14 14 14 16 20 25 27 19 22 28 29 36 45 53 59 59 62 60 64 68 66 65 64 64 70
57 65 72 83 71 42 54 22 40 40 22 20 18 17 16 15 16 14 14 15 16 16 17 18 19 20 21 22 22 23 24 25 23 23 25 27 39 49 57 60 61 66 63 62 60 64 69 73 71
70 73 85 77 76 74 60 51 39 42 42 38 35 31 28 26 26 27 26 25 23 24 23 22 19 18 18 21 25 28 30 31 31 29 28 29 27 35 56 71 77 74 66 69 70 66 62 68 72
82 74 78 84 79 75 58 46 36 41 43 46 35 31 27 25 26 26 25 25 25 24 23 22 22 21 20 19 18 18 17 16 19 27 38 43 44 40 38 48 60 68 72 70 72 70 68 69 76
85 79 77 80 91 60 63 60 36 36 40 49 41 40 33 31 29 28 27 26 23 22 21 19 18 18 18 18 17 17 17 17 17 19 34 48 53 56 55 56 53 52 55 60 68 72 69 66 73
90 80 74 63 59 49 61 49 38 41 37 46 53 36 33 32 32 32 30 28 26 27 28 28 30 30 28 28 28 27 26 24 24 24 31 46 60 64 64 58 57 56 60 66 66 66 68 67 70
99 99 83 57 40 46 41 42 43 41 36 38 38 35 36 35 33 30 33 36 37 37 36 34 34 34 34 36 38 39 35 31 30 30 31 33 38 39 39 41 35 36 39 46 58 68 71 70 73
94 97 90 69 76 45 36 29 27 36 38 39 41 50 46 43 44 47 48 46 43 39 32 26 22 20 20 23 28 38 44 40 36 35 35 37 37 39 43 42 44 44 42 40 38 45 65 75 74
97 98 92 78 63 54 29 25 34 34 49 50 55 50 54 60 61 55 50 46 40 26 20 18 13 12 14 15 16 19 21 28 40 48 48 44 42 42 42 44 47 51 51 49 49 48 57 62 69
92 82 79 62 70 59 60 40 41 53 60 51 51 52 64 63 59 52 49 45 32 27 27 24 18 14 13 13 14 17 20 22 22 22 23 26 31 46 70 64 60 59 55 51 50 48 50 68 77

GFSSGP_700_rhum_042.txt.gz
RH
43 43 44 42 49 49 43 30 28 30 29 28 28 26 27 33 37 40 48 44 36 31 32 33 34 36 36 35 35 35 33 25 29 27 25 23 18 15 17 15 11 10 11 9 10 10 10 10 10
49 47 48 54 62 50 39 33 30 30 34 36 27 21 27 54 37 49 42 39 39 35 32 32 35 37 37 36 36 35 32 30 29 28 25 23 20 16 19 20 17 12 9 9 9 10 10 10 10
62 59 54 64 64 52 40 31 31 32 35 32 35 23 28 59 58 38 41 34 33 37 33 32 35 37 37 37 36 35 34 30 31 33 33 31 22 20 16 19 23 23 22 22 20 20 19 18 18
79 67 60 71 55 49 40 33 32 32 28 36 38 36 39 63 52 38 33 35 33 35 38 32 34 35 37 37 37 38 37 33 28 34 33 33 34 24 22 19 16 16 16 16 16 16 17 17 17
97 79 72 64 60 45 40 38 31 36 38 37 34 42 42 37 43 45 41 37 34 36 41 33 33 34 36 37 37 39 39 38 34 31 39 40 33 36 35 28 23 22 22 22 22 23 23 23 23
95 94 86 70 57 49 41 39 38 37 39 36 35 44 45 36 42 46 43 40 45 41 40 33 33 34 34 37 38 38 40 40 40 38 33 40 41 40 39 37 37 37 37 36 36 34 33 32 30
91 96 84 79 58 48 41 41 41 36 39 36 36 36 46 42 32 38 37 41 45 44 40 37 34 34 33 37 38 38 39 40 41 41 41 37 41 43 42 42 44 43 39 38 38 38 38 39 40
100 97 98 78 70 55 43 42 43 40 36 38 36 40 65 42 32 30 30 32 36 40 46 44 37 35 35 34 40 39 39 40 41 42 40 39 39 39 44 44 45 46 46 46 46 45 44 43 40
84 97 99 77 73 59 45 45 46 43 39 37 37 40 59 47 36 31 30 29 27 27 29 33 41 40 37 36 37 41 40 40 41 42 42 41 39 38 37 43 46 46 47 48 48 48 49 48 47
94 88 72 73 66 63 56 48 51 49 38 38 36 37 43 52 41 33 32 31 28 26 26 27 38 42 43 40 38 38 42 41 40 41 41 42 42 41 39 38 39 44 46 48 48 48 48 49 50
67 70 67 90 70 66 85 57 51 48 42 33 37 37 37 42 42 37 35 31 28 26 25 29 35 39 41 44 44 41 40 44 44 43 43 43 44 44 43 41 41 42 42 45 47 48 48 49 50
61 45 74 72 74 78 68 60 56 46 43 41 37 39 31 34 37 38 36 35 32 29 27 28 31 34 34 36 39 46 46 43 43 47 47 46 45 46 46 45 44 43 43 43 43 47 48 49 50
65 71 61 61 62 65 68 58 54 50 45 43 42 36 29 28 29 36 38 38 37 36 35 32 30 32 37 37 37 36 39 47 48 45 46 48 49 48 47 46 46 47 47 46 44 45 45 47 48
62 70 70 61 62 63 62 60 57 49 50 42 39 33 27 23 22 24 34 38 38 38 37 36 35 33 31 39 43 37 38 37 40 49 54 54 53 54 53 50 49 48 47 48 48 48 46 46 46
90 82 80 73 68 62 55 58 52 50 52 54 36 28 26 24 23 21 24 29 33 34 36 37 38 36 32 34 40 42 43 44 46 48 48 50 54 57 57 56 52 50 49 49 49 50 50 49 47
84 80 84 70 73 60 46 45 44 44 51 48 52 34 28 27 27 23 21 22 25 34 38 25 24 33 36 34 36 37 37 36 35 33 36 40 43 51 57 57 56 54 53 53 52 51 50 50 50
82 73 79 75 65 58 47 60 50 56 60 55 47 39 45 39 32 26 21 20 20 18 21 31 32 22 26 36 37 36 40 40 38 39 35 34 34 40 51 60 61 59 58 61 61 58 58 56 54
69 72 66 70 69 56 41 48 50 55 56 52 33 40 43 36 32 28 24 22 18 16 14 16 24 34 35 31 35 37 36 40 44 42 42 42 40 36 42 51 56 53 52 50 53 52 53 63 65
68 68 59 58 62 56 45 60 49 56 55 48 36 26 24 23 30 31 26 20 17 14 11 10 11 13 18 33 47 43 35 41 45 48 50 48 45 42 38 46 55 54 50 50 59 58 56 60 62
55 52 53 51 52 55 58 50 50 50 50 36 26 22 17 21 29 39 23 16 14 11 9 9 9 10 13 19 23 35 33 24 24 28 36 50 51 46 42 42 45 53 57 56 59 62 66 64 61
56 54 48 54 60 60 57 49 44 48 26 26 17 12 11 13 17 18 13 11 10 10 11 11 12 12 13 13 14 16 19 17 14 14 16 22 38 52 50 48 45 51 55 62 65 64 64 70 71
59 57 55 55 72 64 44 36 28 18 26 15 12 12 15 16 15 13 11 10 10 11 12 14 15 16 17 17 17 17 18 21 24 22 22 22 24 26 46 54 53 56 60 61 63 70 70 71 68
64 56 61 64 64 77 63 58 32 38 33 32 26 17 14 14 15 16 18 19 16 17 17 19 21 22 21 19 18 18 20 24 30 36 34 28 25 26 27 30 38 57 67 65 72 72 69 68 74
79 72 70 72 76 84 57 51 46 41 34 34 31 31 31 31 30 29 27 26 25 25 24 24 23 21 20 18 18 18 18 17 18 18 17 16 15 18 22 32 37 39 44 57 62 74 81 78 74
96 76 86 91 92 86 54 55 37 38 36 35 34 37 35 30 27 25 23 24 24 22 20 20 19 18 17 15 14 15 16 17 17 18 19 19 20 32 21 48 52 52 57 58 61 60 60 62 63
89 66 69 72 91 74 61 59 45 40 38 41 40 43 31 30 30 29 27 26 26 24 23 22 21 20 19 19 22 25 27 28 28 30 29 27 26 26 37 41 55 58 61 67 70 71 71 70 70
92 82 81 69 42 57 54 47 47 41 39 42 47 35 35 32 30 30 29 26 24 23 26 30 31 30 30 30 31 32 33 35 36 38 37 34 33 33 34 41 43 40 40 40 45 42 44 55 57
88 85 94 79 88 63 45 38 35 39 38 36 40 35 34 33 33 32 32 35 39 39 39 38 29 21 18 16 14 15 16 21 27 34 41 43 39 37 38 41 45 45 47 48 49 49 50 50 56
89 90 87 84 70 87 58 37 33 28 28 35 37 38 39 40 46 50 49 48 44 41 40 30 22 20 17 13 12 12 14 15 16 17 20 23 31 43 49 49 47 46 45 46 53 59 59 60 59
98 92 86 87 77 55 59 50 40 38 37 41 45 47 47 51 58 58 54 48 44 43 35 27 28 30 32 26 17 15 18 24 32 37 36 31 27 26 26 28 30 32 46 71 72 64 67 69 70

GFSSGP_700_rhum_045.txt.gz
RH
44 45 44 43 42 44 36 31 31 27 26 22 23 24 28 31 34 38 46 43 31 32 32 35 34 36 36 37 38 33 25 25 26 26 24 22 17 16 18 16 12 10 9 9 10 10 10 10 9
45 44 46 50 52 60 38 30 35 28 27 25 25 24 28 30 34 45 46 42 33 32 32 34 36 37 36 37 37 38 35 24 29 32 27 23 20 17 18 20 20 16 11 9 9 9 10 10 10
67 53 51 53 59 53 35 35 33 30 28 28 24 24 27 31 37 43 42 41 36 33 32 33 36 38 37 37 37 38 39 33 23 26 31 31 24 21 18 16 18 22 23 23 22 21 20 20 19
81 72 60 67 62 38 40 42 31 29 31 31 30 23 27 39 35 41 42 35 36 36 32 33 35 37 37 38 38 38 38 40 33 24 29 30 34 28 23 21 20 17 16 16 17 17 18 18 19
91 94 74 66 56 36 45 44 33 30 30 27 38 38 40 50 47 40 38 36 33 35 36 33 33 35 37 37 38 39 39 39 40 33 28 39 32 35 35 34 31 27 24 24 23 23 23 23 23
82 99 96 72 54 42 50 38 44 34 37 33 39 46 40 37 37 43 38 33 29 31 44 37 33 34 35 37 38 39 40 40 40 40 35 33 42 40 36 36 35 35 35 35 35 35 35 36 35
80 90 97 83 62 48 50 42 38 37 38 34 38 56 50 45 38 45 44 42 38 43 43 38 33 34 33 35 37 38 40 40 41 42 42 41 38 40 44 41 42 45 44 44 42 40 38 35 32
85 87 81 85 67 48 46 52 43 40 39 37 37 48 49 46 33 36 43 38 38 43 43 39 35 34 35 34 37 38 39 40 41 42 42 42 42 41 37 44 46 46 47 48 48 48 48 47 46
85 99 99 94 85 39 61 62 46 43 36 38 38 38 46 48 37 32 36 35 36 39 41 46 43 37 36 36 35 38 39 40 41 42 41 42 42 42 41 40 40 45 47 48 48 49 49 50 50
96 99 75 59 67 66 76 74 52 44 36 40 39 38 53 57 42 34 32 31 30 28 26 29 32 38 42 40 38 37 38 41 40 41 41 41 41 42 42 40 40 40 42 44 47 49 49 49 50
87 79 60 70 67 93 95 80 59 50 45 39 38 37 37 59 43 36 34 32 32 29 26 23 22 31 37 44 44 42 40 39 42 43 41 42 42 43 43 43 42 41 42 42 42 43 46 48 50
66 73 75 69 69 99 99 80 75 52 46 39 38 38 35 43 49 39 37 36 34 31 30 28 24 21 24 31 37 41 45 45 42 41 45 47 46 45 44 44 44 44 43 43 43 43 44 42 42
43 74 71 72 69 69 83 97 74 63 49 42 42 38 34 30 38 40 39 38 36 35 33 33 34 31 28 24 29 33 36 38 45 48 46 45 47 48 49 48 47 46 46 46 47 46 46 45 45
36 70 73 76 92 81 89 83 65 56 49 46 45 44 39 35 29 29 34 38 38 38 38 37 36 36 35 28 26 24 28 33 34 38 43 49 54 53 51 52 54 51 49 48 47 47 48 48 48
76 64 78 76 62 80 66 73 74 54 50 44 44 44 42 38 30 25 22 25 34 38 39 39 40 39 36 31 29 30 33 32 32 39 41 41 43 45 46 51 55 58 58 54 52 50 50 50 50
82 68 82 66 69 75 67 60 64 62 58 48 36 36 37 37 30 26 24 23 22 25 31 35 36 36 36 29 34 35 38 37 35 36 36 35 35 35 38 42 46 52 58 60 59 57 55 55 55
88 82 78 75 73 70 52 42 43 41 48 38 36 35 30 28 26 27 28 26 26 25 24 23 24 22 26 32 28 37 40 39 38 36 36 35 35 36 37 38 39 42 53 58 60 61 60 59 58
80 69 67 66 65 68 59 45 49 46 43 39 43 38 34 32 29 32 32 30 29 23 21 22 19 14 12 14 24 30 43 45 43 44 45 45 39 42 42 41 42 38 40 48 53 53 52 51 52
69 71 68 64 70 69 50 52 48 47 54 51 41 40 37 36 41 35 34 31 28 26 23 19 18 18 15 12 12 12 16 30 50 55 54 52 51 48 47 44 43 47 42 45 58 58 54 52 66
70 64 62 63 65 66 62 56 47 49 45 42 36 35 36 32 36 30 26 26 28 25 23 21 18 15 13 12 13 13 11 10 12 20 38 54 60 54 48 42 38 45 48 50 50 51 58 61 64
73 69 60 61 70 73 68 63 49 41 43 44 33 27 29 29 24 20 18 17 16 16 18 18 15 12 12 12 12 13 12 12 12 13 14 16 20 30 48 46 45 48 49 50 54 56 60 63 66
70 61 55 57 60 67 60 62 34 30 33 32 28 25 21 19 19 17 14 13 12 14 14 12 12 12 12 14 14 14 16 17 17 16 18 19 21 23 25 32 34 32 39 43 49 54 59 73 68
72 59 58 57 60 61 66 57 34 23 28 21 19 17 16 14 15 19 18 16 13 13 14 13 13 14 15 17 18 19 18 18 19 22 21 21 21 23 27 31 37 41 41 43 40 42 58 66 79
71 65 62 63 62 78 60 65 40 23 14 23 22 24 24 20 16 16 19 18 18 19 20 20 21 21 21 21 21 20 19 18 17 17 18 18 18 16 14 14 15 26 39 46 53 56 59 57 66
85 69 90 88 92 89 55 57 53 40 34 31 35 34 28 24 25 23 27 27 26 25 24 23 21 20 19 17 16 16 15 14 14 15 17 18 19 20 19 19 21 70 52 55 63 62 67 72 74
88 73 70 87 98 83 56 62 45 28 40 37 36 37 36 33 31 28 26 25 25 23 22 20 19 18 17 16 17 16 16 17 19 23 28 30 33 33 32 31 30 28 30 38 50 56 58 63 68
97 96 74 81 57 69 56 54 50 42 41 39 37 34 33 32 28 28 29 29 28 25 22 20 20 21 25 27 27 28 28 28 28 29 31 35 40 41 41 38 36 36 35 34 36 55 44 40 41
96 87 88 81 100 70 59 49 39 40 40 41 42 41 38 34 32 31 32 29 26 26 31 32 33 33 32 26 20 17 15 13 12 13 14 18 20 26 33 40 42 41 42 42 42 42 42 43 45
97 94 87 75 77 89 63 43 40 38 36 39 43 44 39 34 35 35 39 41 42 45 42 38 35 34 26 22 22 19 14 11 11 13 16 19 23 25 26 28 28 29 31 37 46 54 58 61 66
98 93 97 78 79 65 64 47 33 31 36 42 44 43 38 39 48 56 56 52 50 45 39 38 37 31 28 28 30 30 27 22 24 32 40 44 45 44 43 40 35 33 34 35 37 42 53 73 74

GFSSGP_700_rhum_048.txt.gz
RH
46 46 45 44 40 40 26 26 32 30 20 24 25 23 28 36 42 44 45 34 35 34 37 36 36 38 39 39 40 39 29 20 24 25 24 22 17 16 18 17 11 9 9 10 10 10 10 9 9
44 45 46 46 49 49 27 34 34 30 26 24 24 22 27 35 36 35 44 35 34 33 34 36 36 37 37 38 39 39 39 28 20 27 26 23 21 18 16 19 21 17 13 10 10 9 10 10 10
57 49 46 50 51 49 30 33 38 31 27 25 24 24 25 30 35 40 45 33 34 33 32 35 36 37 37 37 38 38 39 40 28 24 29 30 24 22 19 16 16 18 20 21 20 20 20 19 19
64 60 52 54 54 38 40 44 38 32 31 30 25 24 23 28 33 42 43 41 32 32 33 34 36 37 37 38 38 38 39 40 40 31 24 28 32 31 25 22 22 21 20 20 20 21 21 21 21
67 73 66 60 48 37 46 46 39 35 32 29 24 25 27 28 28 33 43 36 38 34 33 33 35 37 36 38 38 39 39 39 40 41 35 28 30 32 34 34 34 32 32 31 31 31 30 31 30
80 79 83 78 47 48 48 45 41 34 31 30 27 27 37 36 28 29 33 39 36 37 34 33 34 36 37 37 38 39 40 40 41 41 42 38 35 34 36 34 35 35 35 34 33 33 33 32 31
88 78 75 85 74 46 49 54 39 42 35 37 39 39 39 38 30 30 28 29 34 32 41 36 33 34 35 36 37 38 39 40 42 42 42 42 41 39 38 40 40 41 44 44 45 44 44 44 43
84 86 77 73 77 56 56 52 42 41 38 36 37 54 44 42 36 38 43 42 40 40 43 45 37 34 34 34 36 38 39 41 42 41 41 42 42 43 43 41 40 43 46 47 49 49 50 50 49
97 86 93 82 79 69 64 60 44 44 40 39 37 37 47 44 35 42 45 42 40 42 44 41 36 34 34 35 34 36 39 39 41 41 41 41 42 43 43 42 43 42 43 44 47 48 48 49 50
97 88 74 58 64 71 75 64 55 45 41 39 39 38 43 52 42 40 41 40 34 36 38 42 45 43 40 37 37 37 36 39 40 41 42 41 41 41 42 41 42 43 43 43 43 44 47 48 48
80 87 84 69 68 84 87 68 67 51 49 38 37 38 46 60 54 47 40 34 32 31 29 27 26 28 31 40 42 42 40 39 39 42 41 41 42 42 42 42 43 43 43 44 44 44 44 44 44
84 98 88 67 95 95 84 86 64 57 54 45 38 38 38 49 61 52 42 34 33 32 30 28 26 24 26 32 37 41 44 45 44 42 43 45 46 45 44 44 44 44 44 44 44 45 45 46 46
68 80 86 84 91 97 99 98 97 66 56 52 46 39 36 38 46 43 41 41 38 34 33 32 31 30 29 26 25 27 32 36 39 44 47 46 45 47 49 49 49 48 46 46 45 45 46 47 47
61 85 90 96 98 99 94 86 92 68 59 54 45 40 37 36 35 40 41 40 38 39 38 37 36 36 35 34 30 26 26 26 32 37 38 43 48 51 52 52 54 56 57 57 51 49 49 48 48
70 83 85 84 76 97 83 95 78 83 59 55 50 46 41 37 33 32 34 36 39 39 41 40 39 38 38 37 35 31 21 26 32 38 33 36 41 42 41 43 44 47 51 56 59 60 57 53 52
82 65 88 67 61 69 77 60 62 93 80 57 50 46 45 45 42 37 32 25 25 33 39 40 40 40 39 38 36 31 22 22 30 35 38 40 38 36 34 32 30 31 36 42 47 57 61 60 61
86 70 84 76 65 57 60 66 64 78 84 62 53 51 42 41 42 39 35 27 24 22 21 25 32 36 39 39 37 38 35 26 30 35 37 37 36 37 38 37 35 34 35 35 36 39 49 55 55
63 49 59 66 60 71 60 57 56 58 62 56 56 57 43 32 33 32 32 29 27 25 24 22 21 21 25 27 23 23 24 21 28 34 40 41 42 43 42 43 45 51 48 43 41 39 41 47 53
64 70 70 78 71 64 58 68 58 54 45 42 40 41 36 33 33 29 30 32 37 31 31 30 26 22 20 19 18 17 17 23 31 39 47 45 47 44 46 45 47 52 49 49 52 50 47 50 53
77 64 69 63 66 70 69 60 50 54 49 48 44 38 39 40 37 36 33 35 38 35 34 34 30 27 24 22 19 15 12 11 13 17 29 38 46 45 44 48 46 43 42 44 48 58 59 56 58
74 74 69 65 65 73 73 67 53 36 45 50 46 43 39 35 34 33 35 40 38 33 29 27 28 29 26 23 18 14 11 9 9 10 12 14 18 21 27 36 34 29 26 25 29 40 56 57 63
87 73 67 61 64 73 76 71 50 42 36 42 46 46 42 35 31 29 30 27 25 23 20 19 22 22 20 16 14 13 13 12 12 11 12 13 15 18 20 23 26 29 30 28 28 32 37 44 50
70 70 61 59 66 69 68 66 50 39 32 26 32 40 41 34 30 28 23 22 22 18 16 16 16 14 13 13 12 13 14 15 16 16 15 16 17 18 19 23 28 33 43 48 46 44 50 52 54
72 66 62 70 71 75 61 59 50 37 24 22 19 24 27 27 28 27 22 16 14 15 16 15 14 14 14 15 16 16 16 16 17 17 18 17 16 16 14 14 16 18 18 21 61 52 52 52 68
80 68 80 83 87 82 57 60 50 34 26 21 18 21 24 29 31 29 22 19 18 17 18 20 20 19 20 20 20 19 18 18 18 17 16 15 15 15 17 17 17 19 21 24 46 76 74 64 73
74 68 70 88 97 81 60 63 30 22 28 34 38 34 35 36 36 30 26 25 27 26 24 23 21 19 18 17 16 16 15 15 15 16 16 17 21 26 30 34 35 35 35 33 31 33 35 42 46
84 79 81 85 71 78 56 43 32 28 18 21 37 37 38 36 34 33 32 30 27 25 23 22 21 20 19 17 17 17 20 22 25 25 26 27 28 27 29 33 38 41 42 40 38 37 37 37 38
91 84 90 87 96 72 57 58 39 24 20 24 31 36 34 33 31 30 29 30 29 26 25 23 21 22 25 29 31 30 28 22 17 15 12 11 11 13 14 17 21 28 33 36 39 41 41 40 42
99 100 97 86 79 90 80 52 44 39 35 31 35 39 40 39 33 32 31 30 28 27 30 32 35 36 36 33 32 26 20 20 19 15 12 12 15 18 24 28 31 33 33 32 31 31 31 31 30
100 98 94 90 91 74 68 54 37 36 41 38 41 43 45 47 39 37 39 42 47 50 49 43 38 36 34 33 29 26 27 28 27 25 23 26 35 39 41 43 43 39 31 29 28 26 23 24 33

GFSSGP_700_rhum_051.txt.gz
RH
45 40 38 40 37 38 26 24 17 16 28 29 28 26 26 45 46 43 43 33 36 37 36 37 38 40 39 39 39 38 31 18 20 25 24 22 18 16 18 15 10 9 10 10 10 10 10 10 10
50 47 46 44 46 45 28 21 29 29 21 22 24 25 26 36 49 43 42 36 35 37 37 38 38 39 39 38 38 38 38 31 18 21 25 24 22 19 16 18 21 21 19 17 15 13 12 12 12
60 47 48 49 50 45 30 22 38 33 31 27 25 25 24 38 39 41 39 38 37 35 36 37 38 38 38 38 38 38 38 38 35 22 24 28 26 23 21 19 16 16 16 17 17 17 17 17 17
71 52 50 52 49 38 45 35 38 36 32 30 26 24 22 28 39 43 41 33 36 34 34 35 37 38 38 38 39 39 39 39 40 39 29 25 29 32 31 27 24 24 23 23 23 23 23 24 24
75 68 62 51 46 38 44 51 41 39 38 33 29 26 23 22 37 45 43 32 32 33 35 34 35 38 38 38 39 40 40 40 41 40 40 31 27 29 31 33 34 34 34 34 33 32 32 32 31
84 74 75 57 44 41 44 55 46 40 38 35 31 25 25 24 26 40 42 41 36 31 33 34 34 37 37 38 39 40 40 41 41 42 41 41 36 34 32 32 35 38 41 41 41 42 42 42 42
92 78 80 70 47 41 43 54 53 39 39 34 31 31 23 25 24 30 36 42 38 37 33 32 34 36 37 37 38 39 40 41 42 42 43 42 42 41 41 40 36 33 38 43 46 47 48 48 47
97 88 71 74 62 46 44 53 61 42 42 38 36 43 32 27 26 24 28 30 34 36 36 35 33 34 36 36 37 38 40 41 42 42 42 42 43 43 42 42 43 42 41 38 40 45 47 47 47
100 100 90 70 63 52 47 52 65 46 42 40 38 39 47 38 36 31 24 27 28 31 34 37 40 34 34 35 35 36 38 40 41 42 41 41 42 43 43 43 44 44 45 44 43 43 44 45 44
89 100 91 70 57 49 54 60 65 47 41 41 45 37 43 44 41 45 45 45 44 45 46 45 43 36 35 35 35 36 36 38 40 40 42 42 41 42 43 43 43 44 44 45 45 45 46 45 46
99 93 94 83 76 65 64 70 72 54 42 45 51 49 38 42 46 40 45 44 40 41 43 42 43 42 42 42 40 40 39 38 38 40 41 41 41 42 41 42 43 43 43 44 44 46 46 47 48
77 81 80 88 88 74 76 80 88 77 53 49 52 66 55 50 48 45 40 38 34 32 32 30 28 27 30 33 39 43 44 45 44 42 41 42 44 44 43 43 43 42 43 44 44 44 45 46 46
66 79 88 99 85 70 81 93 99 72 56 50 50 57 58 46 56 58 51 40 37 34 33 31 29 27 27 26 26 29 31 35 36 40 45 47 46 46 47 49 50 50 50 49 48 47 46 46 46
85 100 88 88 84 92 91 94 100 66 67 53 50 50 47 40 39 55 50 46 41 38 35 34 33 32 34 34 33 31 29 27 26 28 36 38 40 46 52 53 54 56 60 63 64 64 61 58 55
93 96 90 96 96 88 86 100 96 73 80 61 56 64 62 39 38 39 43 46 45 42 40 38 36 36 36 37 37 37 35 31 23 30 38 42 38 37 41 43 46 47 46 45 45 48 54 59 62
78 94 93 94 94 83 98 95 65 94 90 64 64 72 64 47 39 36 36 38 38 38 39 38 37 37 38 39 39 39 38 33 27 25 32 40 46 44 40 37 36 35 34 32 31 34 37 44 54
92 66 88 81 66 61 72 74 68 73 87 67 66 64 55 50 44 37 35 34 34 30 27 30 31 33 38 40 40 39 38 36 31 27 28 35 38 40 38 35 33 36 36 37 38 37 38 38 36
62 63 48 73 66 82 71 76 65 62 77 80 65 58 55 50 47 45 43 38 33 29 25 24 24 23 24 26 28 30 31 29 21 21 24 30 36 42 41 40 42 42 43 44 46 47 44 42 43
63 57 63 82 73 67 81 82 72 62 66 59 57 61 59 58 57 55 42 38 33 31 27 25 26 26 25 23 22 22 22 22 20 20 22 24 29 39 48 48 49 51 51 48 48 46 43 43 50
63 64 70 80 80 75 80 80 73 62 60 62 54 52 50 45 50 46 37 35 36 32 27 26 29 31 31 29 26 24 21 19 18 16 14 16 19 22 27 37 43 46 41 43 45 41 40 44 48
71 60 58 65 74 77 81 81 72 47 57 57 52 46 42 40 44 42 41 40 39 37 32 32 33 34 33 30 29 27 24 21 18 15 13 13 13 14 16 33 30 35 36 26 23 21 21 30 31
84 79 67 68 69 79 80 79 51 42 41 47 50 47 43 41 40 40 37 37 40 44 43 37 31 26 23 22 23 21 18 17 15 13 12 12 14 15 17 18 20 23 25 26 27 27 29 32 36
80 78 77 76 63 68 75 76 54 45 37 26 36 42 43 46 44 42 39 37 38 39 37 31 26 22 20 18 16 15 14 13 13 12 12 14 17 19 20 22 22 23 26 31 35 42 42 39 39
77 78 71 63 67 82 69 70 54 41 25 26 29 29 34 40 46 46 42 37 33 32 30 28 23 18 16 15 13 13 13 14 16 17 18 19 20 21 20 18 18 18 19 20 22 28 34 54 54
80 79 93 91 93 91 64 65 51 36 33 29 28 23 22 28 34 40 40 35 34 31 28 20 16 15 14 15 17 18 19 20 21 21 21 21 20 19 18 16 15 15 18 21 23 26 28 36 55
81 78 72 86 95 81 63 66 48 32 28 26 29 22 19 21 26 32 34 31 28 29 26 19 18 20 22 22 22 21 20 19 18 18 17 17 17 18 18 19 22 26 29 33 36 37 37 36 36
85 86 74 73 75 81 62 56 44 36 31 27 20 28 24 17 26 32 34 37 37 30 28 29 27 25 22 21 20 19 18 17 18 19 22 24 25 26 27 27 27 27 30 33 39 40 40 40 40
80 77 88 79 92 81 60 57 43 32 26 28 22 18 30 32 34 39 42 39 35 33 30 28 26 24 22 20 20 19 20 25 29 29 24 19 16 13 11 11 12 14 18 21 25 30 34 37 38
92 97 90 81 76 82 88 53 40 38 42 30 29 24 33 35 35 33 35 36 34 32 30 28 28 26 26 29 31 32 32 32 29 23 21 20 16 13 13 16 22 29 33 35 36 36 35 33 30
97 93 93 91 94 84 78 62 45 40 35 39 39 41 42 43 42 38 34 33 33 34 37 40 42 41 40 37 36 35 35 32 27 27 29 29 25 25 28 36 41 43 42 42 31 24 25 24 22

GFSSGP_700_rhum_054.txt.gz
RH
32 24 23 28 33 33 29 24 20 24 27 29 31 31 30 31 34 41 43 33 37 36 36 34 34 40 39 39 38 37 26 18 22 24 23 21 18 16 18 16 13 11 10 10 10 10 10 11 11
44 32 34 38 35 38 30 23 18 21 25 24 26 28 27 29 43 42 42 34 37 38 37 34 34 40 39 39 39 38 38 30 19 19 25 24 22 20 16 17 19 20 20 20 19 18 18 18 18
56 49 44 44 47 43 28 23 22 31 29 41 27 26 27 28 45 45 42 36 39 39 38 36 37 40 39 39 39 39 38 38 34 23 21 26 27 24 23 22 21 21 21 21 21 22 22 22 22
52 51 50 46 46 36 35 32 24 38 35 35 29 27 27 27 38 49 41 37 38 37 37 36 37 39 39 39 39 39 39 40 40 37 27 23 27 30 32 32 32 32 32 32 32 32 32 32 33
62 61 52 52 46 36 38 47 34 40 37 35 32 27 25 32 34 39 41 35 35 36 36 36 36 38 39 39 39 40 41 41 42 41 39 30 29 29 30 33 34 35 34 34 34 32 32 33 36
82 73 57 53 47 36 34 52 51 43 39 38 35 31 28 26 36 39 42 32 34 33 35 35 35 37 38 38 39 40 41 42 42 43 42 42 40 34 36 35 32 35 37 38 39 40 42 43 45
79 72 60 56 47 42 34 43 55 44 41 40 39 34 29 28 32 43 44 33 32 32 33 35 35 36 38 38 39 40 41 41 42 43 44 44 43 42 42 42 42 42 39 32 30 34 37 36 37
96 77 78 76 54 48 36 40 55 47 40 40 40 40 32 28 28 30 44 42 41 35 32 33 34 35 37 37 37 39 41 42 42 42 43 43 44 44 44 44 44 44 45 45 44 44 43 44 43
94 99 95 73 67 41 45 44 50 54 44 42 47 43 36 38 29 30 29 38 40 38 37 35 34 34 36 37 36 37 39 41 42 42 42 41 43 43 44 45 45 45 45 46 46 46 46 47 47
100 100 89 65 54 41 55 56 53 58 46 46 48 47 49 52 40 37 30 27 26 28 32 36 36 36 35 36 36 36 37 38 40 41 42 42 42 42 43 44 44 45 45 46 46 46 46 47 48
98 92 84 75 65 66 70 63 60 61 48 48 56 48 55 61 56 46 49 49 53 45 42 42 44 44 37 35 35 36 36 37 38 39 40 40 41 41 41 41 42 43 44 44 45 45 46 46 47
87 93 91 86 82 70 71 64 63 70 65 55 53 52 55 61 62 53 55 51 48 50 48 47 45 42 40 40 41 42 41 41 40 40 41 42 43 43 43 42 42 42 42 43 43 44 44 45 45
75 88 91 88 85 78 86 81 72 74 70 66 69 57 59 63 63 64 51 49 43 37 34 33 31 32 33 33 34 37 40 40 42 43 45 47 47 47 47 48 49 50 51 52 53 54 54 52 51
87 95 87 91 83 81 99 90 80 69 79 67 65 63 64 64 66 68 57 44 37 35 34 32 31 29 28 28 29 28 27 27 26 26 28 34 40 42 46 49 52 56 58 60 60 60 59 60 62
88 96 92 94 88 90 97 96 71 64 82 70 64 59 60 58 58 55 57 52 46 39 38 35 34 32 32 35 35 36 36 35 32 29 24 26 31 37 37 37 44 49 48 45 42 39 37 39 44
89 96 93 96 95 90 89 71 71 72 97 65 78 60 60 52 49 47 47 48 49 46 45 42 42 40 37 37 38 38 38 39 38 36 30 22 28 38 45 48 45 41 38 35 35 35 35 34 37
99 85 91 79 79 82 79 65 62 84 79 64 72 74 70 64 62 53 43 39 41 43 42 41 40 38 38 39 40 40 40 40 40 39 36 31 30 36 40 41 41 41 39 36 38 42 46 48 47
88 91 87 72 76 100 84 69 72 70 70 92 71 84 86 65 58 55 49 45 40 38 36 35 30 26 26 30 32 34 36 36 37 38 36 35 33 30 32 34 39 42 43 46 46 49 49 48 49
57 73 78 83 80 80 85 79 81 78 74 77 94 81 70 57 56 56 51 51 48 43 41 37 32 26 24 24 24 23 23 23 24 25 24 24 24 25 28 26 29 47 52 53 54 51 45 42 50
56 49 57 60 85 76 81 78 85 74 68 54 70 64 63 56 53 53 55 57 57 44 37 35 34 32 30 30 32 31 29 27 24 23 22 22 20 17 16 18 19 22 29 37 48 56 62 47 33
88 51 57 58 81 87 87 84 76 66 71 62 52 53 61 54 57 52 44 45 52 41 35 33 33 33 33 35 35 33 32 31 30 28 26 23 20 18 24 26 22 23 17 31 43 24 21 21 24
86 77 63 66 67 86 88 87 56 43 59 68 45 34 47 47 42 40 40 40 44 44 40 39 39 38 38 38 32 26 22 21 19 19 20 19 19 17 15 15 16 17 19 20 22 26 32 60 45
85 78 77 73 76 80 81 84 59 48 49 24 41 53 55 48 47 43 43 44 45 41 36 36 36 37 36 30 26 23 20 16 14 12 12 13 13 13 14 15 16 18 21 21 23 25 41 35 25
83 84 82 76 74 81 68 75 52 48 33 28 27 28 35 42 46 48 50 48 48 44 38 34 35 34 31 28 26 21 16 14 13 12 12 13 13 15 16 18 19 20 20 20 20 21 22 22 23
83 80 91 88 92 92 69 70 55 47 49 38 34 34 30 30 41 47 49 50 48 47 45 42 38 35 29 22 16 14 13 13 14 15 16 17 18 19 20 20 19 18 17 17 19 22 25 29 34
88 81 74 86 97 82 66 72 51 37 28 30 32 31 30 26 27 28 40 49 50 51 51 44 39 33 26 20 15 15 17 19 20 20 20 19 18 17 17 17 17 17 19 22 26 32 37 47 49
89 92 76 66 78 80 62 55 40 31 30 30 27 26 24 24 23 24 25 38 48 45 43 42 38 33 25 21 23 24 23 22 20 19 18 17 17 20 25 28 26 25 23 22 24 28 33 38 45
75 79 84 77 89 88 66 58 43 34 33 36 36 28 25 24 28 26 26 36 41 45 43 42 34 31 30 27 25 24 23 22 20 20 21 27 29 28 21 18 14 12 12 13 16 18 21 26 31
94 90 84 78 75 86 83 56 40 42 38 35 34 32 26 24 29 36 39 44 45 42 39 35 33 31 30 28 25 24 24 27 28 30 32 31 27 23 23 19 15 16 22 33 38 39 40 40 39
95 90 79 79 89 85 82 62 45 41 42 42 31 36 35 41 46 45 42 42 40 36 35 33 31 30 32 36 37 36 36 35 34 34 33 29 27 28 29 28 29 35 39 43 40 40 24 20 20

GFSSGP_700_rhum_057.txt.gz
RH
47 35 29 28 36 36 31 25 25 26 37 33 33 34 33 42 47 41 40 35 34 34 39 31 38 40 39 38 38 32 20 19 24 24 22 19 17 18 19 20 19 18 15 13 12 11 11 12 12
41 31 26 31 35 36 32 25 22 22 30 43 30 32 30 30 33 40 43 34 36 36 37 30 39 40 40 39 39 38 35 24 19 23 24 23 21 18 17 16 17 17 17 18 18 18 18 18 19
50 43 36 34 40 34 30 27 22 21 24 26 29 29 28 28 35 40 43 34 38 38 36 31 38 40 40 39 39 39 39 36 28 20 21 25 26 25 24 24 24 23 23 23 23 24 25 26 28
61 56 46 38 34 29 30 27 24 21 30 39 30 28 29 28 33 45 45 35 38 40 38 33 36 40 39 40 40 40 40 41 39 29 23 23 26 30 31 31 31 31 30 31 31 31 30 30 29
64 58 54 44 39 28 31 33 24 24 35 44 36 35 28 28 30 48 46 34 38 40 38 35 35 38 39 39 40 40 41 42 42 42 37 29 30 30 29 30 32 33 33 34 35 38 41 43 44
87 70 64 46 43 33 28 47 32 39 39 35 32 31 30 33 32 39 48 33 36 38 37 36 37 37 38 39 40 41 42 42 43 43 43 42 39 35 38 40 36 32 30 33 36 40 40 39 39
89 85 66 54 44 39 31 45 50 51 43 38 34 32 30 38 31 36 44 33 34 35 36 35 37 37 38 39 40 40 41 42 43 44 44 44 43 43 43 42 44 45 45 44 43 41 40 38 39
92 84 81 60 51 42 39 34 48 55 45 41 38 36 34 33 43 39 45 34 34 33 34 35 36 37 37 38 38 40 40 41 41 42 44 44 45 45 44 44 45 45 45 46 46 47 48 48 48
98 98 93 72 52 43 42 45 41 54 48 42 42 41 37 34 43 45 47 41 33 33 33 34 35 36 36 37 37 38 40 41 42 42 41 42 44 44 45 45 45 46 46 46 46 46 47 47 48
100 98 94 73 62 54 55 55 52 52 49 43 50 43 43 52 47 47 46 43 42 40 35 32 33 34 36 37 37 37 38 40 41 42 42 41 41 42 43 44 44 46 46 47 46 46 47 47 47
95 73 70 72 65 76 63 50 57 62 52 51 58 54 53 53 54 51 49 45 44 41 40 39 35 34 35 36 36 37 36 37 38 39 40 41 41 41 41 41 41 42 43 44 44 45 45 46 46
93 99 88 75 73 88 67 57 54 67 62 56 64 54 53 60 57 55 52 56 42 37 35 37 40 39 38 36 35 35 36 37 38 39 40 41 42 42 42 42 42 42 42 42 43 44 44 45 46
87 99 93 100 92 93 88 77 67 57 66 73 66 57 52 57 61 60 62 65 58 55 52 50 50 48 43 38 36 38 41 42 44 44 45 46 47 46 47 47 48 49 50 51 52 54 56 58 60
72 99 99 96 83 81 83 78 71 50 62 71 75 77 58 57 61 65 61 63 60 47 45 44 43 42 43 42 42 39 34 31 30 31 30 32 37 40 44 47 49 52 53 54 55 57 55 52 49
72 84 87 82 86 82 72 69 65 58 58 68 72 79 69 64 62 63 67 62 67 52 38 36 35 32 30 28 28 29 30 31 32 32 30 28 24 27 34 38 37 40 41 43 44 42 38 34 31
87 80 80 74 83 92 86 49 58 70 66 67 73 76 82 70 65 64 69 68 67 55 39 36 35 34 33 33 34 36 36 36 38 38 38 37 32 22 25 32 41 47 45 41 38 36 34 34 36
90 78 83 79 83 89 78 87 64 64 83 78 73 79 78 64 60 59 60 61 64 61 52 44 41 40 41 39 38 38 38 38 39 40 40 41 40 35 29 30 40 45 43 40 39 38 40 43 44
78 84 85 81 76 95 98 94 78 65 69 69 76 74 65 60 49 49 48 48 46 45 48 47 43 42 41 39 38 38 38 39 40 42 43 43 42 37 32 31 34 41 41 40 40 42 47 51 54
51 80 97 96 79 91 99 100 90 73 72 62 69 72 72 60 58 50 50 47 47 45 41 40 38 36 32 28 25 25 25 26 26 27 30 31 30 28 26 24 24 31 32 34 38 53 56 55 56
75 88 90 92 85 82 85 77 70 73 55 64 51 64 71 72 69 60 56 53 51 52 46 41 39 38 36 34 30 27 28 27 28 27 26 25 24 24 23 22 20 18 18 20 26 32 34 43 66
70 67 77 77 86 90 79 76 56 59 53 54 51 63 69 70 63 56 55 53 53 57 52 41 38 34 32 31 32 30 30 29 30 32 31 30 29 28 26 24 24 25 37 33 24 23 19 18 19
84 62 48 54 53 78 76 83 34 39 48 46 39 48 60 51 63 58 58 58 53 45 48 48 42 39 38 36 35 35 36 34 29 25 22 19 18 18 18 19 19 18 17 17 18 19 20 25 28
82 86 69 62 68 76 89 88 43 38 46 26 41 52 51 54 67 63 54 48 45 42 44 41 42 41 42 42 41 39 35 28 25 22 18 15 13 12 13 13 14 15 16 17 19 22 22 21 21
83 87 80 79 84 82 78 82 67 42 32 36 35 29 30 45 57 57 53 46 43 41 42 43 42 40 40 38 36 33 29 26 22 18 14 12 11 11 12 13 14 15 17 18 20 21 22 22 22
86 88 94 86 85 83 68 73 60 44 49 45 40 41 38 33 28 40 54 50 48 48 45 45 46 45 44 41 37 34 28 21 16 13 12 12 13 15 16 16 17 17 18 17 17 18 18 20 21
85 75 71 86 91 81 70 76 50 35 30 34 35 38 40 35 34 26 33 39 48 49 52 51 50 50 49 47 38 32 26 20 14 13 14 16 17 18 18 17 16 16 16 17 20 24 27 31 35
94 80 72 66 79 77 63 62 42 32 33 36 34 30 30 30 29 31 32 37 42 44 51 53 50 49 48 41 34 28 23 17 15 18 20 19 18 17 16 16 17 22 26 22 18 17 16 18 19
88 80 83 79 87 83 67 57 35 34 40 41 39 34 28 26 26 24 26 27 28 35 48 55 55 50 42 34 31 28 23 21 21 21 20 19 17 16 20 26 27 22 19 15 13 14 18 24 29
89 91 81 78 73 78 75 50 39 35 38 37 42 34 32 25 26 26 30 31 28 32 43 49 47 43 41 33 30 30 28 26 23 22 22 22 25 27 30 29 25 25 22 19 23 33 38 41 40
98 86 83 78 85 84 82 62 45 44 41 43 48 46 41 32 26 28 41 40 49 57 55 51 45 40 35 32 29 28 27 28 30 33 34 32 33 33 32 28 29 32 30 31 34 40 34 31 18

GFSSGP_700_rhum_060.txt.gz
RH
51 44 42 41 40 43 32 35 30 30 32 36 35 37 51 57 44 37 38 33 30 37 32 34 37 37 37 36 29 19 20 23 23 21 18 17 18 20 20 19 17 14 11 10 10 10 11 12 13
50 44 36 37 42 38 31 36 25 27 45 32 34 34 33 47 42 44 39 34 33 36 31 34 39 39 39 39 38 32 22 20 24 24 23 21 19 17 16 16 17 18 18 17 17 17 17 18 20
49 42 35 49 43 35 28 31 25 23 31 42 41 32 31 30 32 40 42 35 35 36 31 32 38 40 39 40 40 39 36 24 20 24 27 27 26 24 24 24 24 23 23 23 23 24 26 28 29
51 49 40 47 40 39 40 30 23 22 21 41 40 34 31 29 29 40 41 35 36 36 32 31 34 39 40 40 40 40 40 39 30 22 22 26 29 30 31 31 30 30 30 30 30 29 29 29 31
54 65 62 53 43 47 32 28 26 23 21 20 31 31 29 30 29 46 42 35 38 38 34 34 32 38 39 40 40 41 42 42 41 37 27 26 29 28 29 30 33 34 35 37 37 38 37 38 40
73 78 62 52 51 43 31 28 28 26 22 24 29 31 29 29 29 48 41 36 38 39 37 36 36 36 38 40 40 41 42 42 43 42 42 38 35 35 40 40 36 32 32 33 33 33 33 34 36
95 80 63 53 51 40 30 34 34 32 29 30 36 37 34 32 31 49 42 35 36 37 38 38 38 38 38 39 40 41 42 42 43 44 44 43 43 43 42 40 43 45 45 45 45 46 45 46 47
99 87 76 65 65 59 31 38 48 49 42 37 37 35 34 38 36 45 47 35 36 35 35 37 38 38 38 38 39 40 40 42 43 44 44 45 45 44 44 45 45 45 44 45 46 47 47 48 48
98 99 94 85 64 62 38 36 50 52 48 41 37 34 33 38 36 42 48 36 35 35 34 35 36 37 37 38 38 39 40 40 40 41 42 44 44 44 45 45 46 46 46 46 46 46 46 47 48
98 97 90 84 77 61 48 48 45 50 51 43 43 39 36 34 46 53 52 40 37 35 34 35 35 36 36 37 37 37 39 40 41 41 42 41 42 43 43 44 44 45 46 46 47 47 46 47 47
100 78 93 88 88 69 61 54 56 55 54 48 46 44 39 38 40 44 49 56 58 44 36 34 35 35 36 36 37 37 38 38 39 40 41 41 41 41 41 41 42 42 43 44 44 44 45 45 45
100 92 96 96 93 82 71 48 60 61 65 57 54 57 50 47 46 41 40 45 51 57 54 41 35 35 35 36 36 37 37 37 37 37 38 39 40 40 41 41 41 41 41 41 42 43 44 45 48
100 100 90 100 95 83 86 65 61 62 67 68 64 69 59 57 52 51 44 42 43 43 45 48 45 38 36 36 36 36 36 36 36 37 38 40 42 43 44 45 46 46 47 48 49 51 52 54 55
68 100 92 79 91 87 81 78 76 51 63 70 71 70 60 65 58 58 54 47 42 49 60 63 58 54 48 44 38 36 36 38 42 43 44 44 42 41 42 44 48 50 50 51 51 51 50 47 44
94 98 99 80 94 84 83 98 78 58 55 62 65 75 70 66 60 58 57 58 63 61 63 60 54 49 46 42 40 42 43 41 34 29 26 26 28 27 25 29 37 38 36 36 39 41 41 39 35
88 96 95 85 88 80 96 80 58 68 71 58 59 66 76 77 67 60 58 60 64 65 60 57 45 45 45 44 40 33 28 29 31 33 35 36 38 38 35 24 26 30 32 37 41 41 38 37 37
97 66 77 90 75 75 73 74 88 59 65 63 54 61 70 82 78 68 65 66 62 64 56 48 46 42 41 37 34 33 34 35 36 37 38 40 41 42 42 39 31 30 32 35 38 40 40 40 41
73 66 66 76 77 92 97 98 76 59 59 65 64 60 65 78 87 73 66 70 70 67 56 48 47 44 43 42 40 38 39 40 41 41 42 43 44 44 42 39 36 33 33 33 37 39 40 41 48
64 70 74 76 94 78 98 98 75 66 52 51 62 65 66 70 85 69 64 64 64 66 63 58 55 56 53 52 51 48 41 39 39 38 37 36 36 36 34 30 29 28 26 26 25 30 34 42 42
76 70 72 92 73 80 96 94 66 73 66 54 48 51 55 63 72 68 61 54 53 52 48 45 44 43 41 39 36 33 29 26 25 25 25 25 25 25 25 24 24 23 23 23 22 25 32 31 30
79 70 85 73 84 87 94 87 78 64 66 51 37 41 50 59 57 71 67 72 57 54 48 47 45 42 40 39 38 36 34 32 30 29 30 30 31 31 30 30 29 27 26 28 31 34 40 39 29
90 87 74 72 79 63 75 38 52 64 50 37 38 47 48 55 58 63 73 72 61 55 50 49 47 45 41 38 34 33 32 32 30 31 31 31 28 25 21 18 16 16 17 19 22 20 20 21 21
82 66 80 72 63 66 71 60 40 46 40 32 30 35 46 76 74 82 68 62 60 59 54 53 48 45 40 37 36 35 35 36 37 36 32 28 24 21 17 14 12 12 13 14 15 16 18 20 21
71 66 65 69 70 66 54 60 42 48 40 37 26 31 35 60 72 89 78 76 65 61 60 55 41 40 41 41 42 44 45 42 36 31 28 24 21 17 14 12 12 12 14 16 18 19 20 21 22
79 73 74 72 79 57 67 71 41 52 35 38 32 29 27 26 48 61 62 61 74 69 59 49 40 40 45 45 42 41 39 37 34 32 28 22 16 13 12 13 14 15 16 17 17 17 17 17 18
79 63 58 60 55 46 66 58 44 31 31 35 35 34 36 35 31 27 51 66 70 70 63 49 45 46 48 48 47 48 47 46 43 34 28 22 16 13 14 15 16 16 16 16 15 16 19 24 26
84 85 67 68 68 60 48 61 39 34 34 38 38 34 30 29 35 31 28 32 59 59 53 52 52 53 54 53 50 49 47 45 40 31 25 20 16 17 19 18 18 17 16 18 23 24 20 16 14
75 80 71 73 75 56 47 49 31 36 46 44 41 35 33 30 27 29 28 29 28 28 37 44 56 58 60 59 56 50 46 38 31 27 23 21 20 20 20 18 18 18 25 28 24 20 17 14 16
87 90 80 72 72 56 43 32 34 40 42 40 40 39 36 32 33 26 27 28 26 28 33 42 52 54 59 62 56 48 37 34 29 26 25 22 21 20 21 22 26 27 29 25 24 23 22 28 36
89 89 82 67 76 76 67 49 41 39 41 42 46 46 45 45 38 32 28 25 30 31 33 44 58 65 63 57 51 44 36 31 28 26 25 23 23 22 29 32 32 33 29 29 32 32 34 35 33

GFSSGP_700_rhum_063.txt.gz
RH
52 48 47 45 48 38 33 35 34 43 40 38 42 50 53 54 43 53 35 31 31 36 29 26 27 27 23 18 15 19 21 21 20 17 17 18 20 19 17 14 11 10 9 9 10 10 11 12 14
53 49 42 56 53 31 27 31 38 38 46 36 37 52 55 66 44 38 36 31 36 32 31 32 33 35 34 31 23 17 20 23 22 21 19 17 17 17 17 17 18 17 17 16 16 17 18 19 21
53 48 61 55 46 33 24 27 36 42 49 46 34 41 55 68 48 43 35 31 36 33 31 36 38 38 38 38 36 28 20 20 25 27 26 24 24 24 24 23 22 21 21 22 23 25 27 28 28
52 50 68 58 42 36 26 33 35 46 33 48 42 56 40 40 37 44 34 32 36 34 34 36 37 39 39 39 39 39 37 26 21 24 27 29 30 30 31 30 30 30 30 29 29 28 29 32 37
56 82 63 56 45 36 33 44 47 39 34 40 49 67 64 39 31 36 34 33 36 35 32 36 35 39 40 40 40 40 41 40 35 24 24 25 26 28 31 32 33 34 36 36 37 38 40 39 38
82 85 66 51 46 38 42 54 28 36 39 46 43 72 63 36 30 38 38 35 36 36 34 37 35 37 39 40 41 41 41 42 42 40 37 31 31 34 35 32 30 31 31 32 31 31 32 33 35
99 91 78 50 45 44 59 46 37 39 41 36 48 67 59 49 33 38 40 35 37 37 34 38 37 36 39 40 41 41 42 42 43 43 43 43 42 41 40 36 42 45 45 46 46 46 47 48 48
93 84 73 56 48 52 66 42 35 46 50 32 24 83 58 44 32 44 45 35 37 38 36 39 38 38 39 39 40 41 41 42 43 44 44 44 44 44 44 45 45 45 42 45 46 47 47 47 48
90 94 86 72 55 65 70 45 38 36 38 26 34 40 31 30 29 32 48 36 35 37 39 40 38 38 38 38 39 40 40 41 42 43 44 44 44 44 45 45 45 46 46 46 46 46 46 47 47
96 99 97 69 60 70 60 67 44 44 41 40 37 41 35 38 40 43 52 36 34 34 36 41 38 38 39 38 38 39 39 39 40 40 41 42 42 43 43 44 44 45 45 46 46 46 47 47 46
88 93 85 81 78 92 62 74 45 54 66 70 41 38 35 34 46 45 51 42 38 38 34 34 38 39 40 39 37 38 39 39 40 40 41 41 41 41 41 41 42 42 43 43 44 44 44 44 45
95 91 95 86 97 87 70 66 61 67 88 47 45 42 38 36 41 48 57 51 50 48 42 35 34 35 36 39 37 36 37 38 38 38 39 39 40 40 40 40 41 41 41 41 41 42 43 45 47
98 100 90 94 90 90 82 68 77 59 61 64 53 51 45 42 40 46 55 58 58 56 52 46 39 36 37 36 37 37 37 37 37 37 37 37 38 39 40 42 43 44 45 46 47 48 50 51 52
87 92 92 99 86 82 95 68 67 61 59 67 62 68 61 53 47 44 46 48 50 54 56 55 53 45 37 37 38 37 38 37 37 36 37 38 42 44 45 42 41 43 45 47 49 50 48 48 44
97 87 99 100 70 88 98 88 85 52 75 68 70 71 72 71 63 55 47 44 43 44 46 53 56 49 49 44 38 39 38 37 36 38 43 44 36 28 27 27 25 26 28 33 34 34 36 41 41
88 98 100 99 100 97 82 77 80 78 78 82 68 68 73 67 72 62 55 49 46 46 45 47 50 52 51 50 50 45 39 37 43 42 34 29 32 35 37 38 38 31 23 25 29 35 39 40 39
89 79 98 96 82 99 92 79 86 98 84 68 80 73 74 71 66 67 62 59 54 54 55 60 57 55 52 48 45 42 42 42 32 31 34 36 38 39 40 41 42 41 37 30 30 34 36 36 35
67 60 62 88 96 95 100 82 90 82 90 61 64 62 75 72 76 71 64 64 66 68 64 64 56 50 49 46 43 40 35 35 37 38 38 40 41 42 42 42 43 42 39 35 33 32 30 29 30
49 51 40 59 96 88 74 91 91 78 69 51 65 55 62 69 72 74 72 72 73 68 66 67 53 48 46 43 42 38 38 40 42 43 42 41 41 40 39 37 33 33 33 32 29 27 26 24 35
48 51 52 54 89 88 88 89 82 79 80 62 56 51 62 65 69 76 80 77 75 74 70 67 56 51 49 46 46 48 48 48 41 32 29 29 27 25 24 25 26 26 28 28 29 30 34 32 37
52 53 65 72 82 93 74 65 70 79 85 75 49 61 70 64 67 74 62 75 72 71 68 68 65 59 54 54 50 46 43 39 36 33 29 27 28 29 30 31 32 32 33 30 28 26 28 35 39
60 57 55 61 81 64 71 43 52 57 67 63 57 49 48 60 54 78 75 69 71 66 61 56 52 47 46 43 41 40 38 37 36 34 33 33 33 33 33 32 29 25 21 18 16 15 16 17 19
65 62 70 81 71 49 69 55 34 40 50 62 65 42 43 44 55 76 81 66 71 66 62 60 50 47 46 46 45 43 40 38 37 38 38 36 36 36 34 29 26 23 19 15 12 12 13 15 17
70 83 84 78 58 61 51 46 31 37 44 39 46 51 28 25 50 50 65 72 65 70 67 60 55 53 53 55 49 50 45 41 42 43 42 41 37 31 27 23 20 16 13 12 12 13 15 17 19
70 70 63 63 71 57 55 43 36 45 42 48 49 51 33 49 37 58 72 76 80 76 67 60 58 56 57 57 69 65 49 45 45 44 41 36 34 32 30 25 21 15 12 13 14 16 17 18 18
67 51 50 54 51 42 62 49 37 42 44 45 35 36 34 31 30 33 59 75 81 77 70 66 62 62 72 66 51 49 50 46 42 44 45 46 44 41 34 27 20 14 15 16 17 17 17 17 19
83 82 70 60 50 43 45 42 43 33 32 31 36 33 30 26 23 28 35 66 68 73 59 62 67 75 66 63 57 55 55 50 49 50 48 44 41 38 32 25 19 17 18 18 17 17 19 22 25
86 78 62 73 65 42 38 35 28 39 46 48 44 38 35 34 32 28 26 31 31 33 44 55 66 72 75 75 62 55 58 57 55 53 47 40 32 27 24 21 19 19 19 18 19 21 27 25 22
84 89 76 66 63 53 34 28 38 41 49 52 41 40 37 35 34 35 33 26 29 30 30 33 58 64 66 56 54 58 58 60 57 52 44 34 30 26 23 22 21 21 22 25 26 30 28 27 25
89 75 68 59 69 58 58 44 35 41 43 41 43 38 42 42 39 38 37 30 25 28 29 30 30 37 44 51 57 61 62 62 60 49 39 34 28 26 25 26 26 28 32 34 33 33 30 33 35

GFSSGP_700_rhum_066.txt.gz
RH
54 50 49 49 44 42 46 37 36 46 51 51 54 63 66 66 55 46 33 29 33 31 23 17 13 12 11 12 15 18 18 17 16 15 16 17 17 14 11 9 8 8 8 9 9 10 12 15 17
56 53 46 46 48 53 37 34 36 51 50 55 41 50 67 60 51 45 33 30 35 28 27 24 24 22 18 14 13 16 19 19 19 17 16 16 16 16 17 17 16 14 13 14 16 17 19 22 25
57 53 46 49 60 52 37 27 33 38 42 41 54 65 71 70 56 36 32 32 35 31 31 31 32 32 30 27 19 15 17 20 22 22 22 22 22 22 20 19 19 18 19 20 23 27 28 27 27
56 58 64 67 53 35 33 24 33 38 46 44 53 64 74 85 56 39 32 35 35 34 34 37 36 36 36 36 36 32 20 18 21 25 27 27 28 29 29 28 28 28 28 28 28 29 32 34 34
66 82 70 74 54 44 29 36 36 40 37 44 48 60 76 77 60 58 34 36 37 32 35 37 37 38 38 38 39 40 38 32 22 20 23 24 26 28 30 30 30 30 30 31 32 33 33 31 29
89 84 76 67 61 45 35 39 38 39 39 41 51 54 57 67 60 50 35 38 38 35 34 38 38 38 38 39 39 40 41 41 40 37 30 24 25 26 27 26 27 28 28 28 29 31 35 38 41
89 87 83 67 54 49 49 51 40 38 38 46 52 56 55 68 62 53 37 66 39 36 35 38 39 38 39 39 40 40 41 42 42 43 42 41 41 40 38 36 39 42 44 44 45 46 47 47 47
80 86 93 82 59 47 49 55 42 42 45 46 48 76 71 63 67 69 53 91 65 37 38 38 39 40 40 40 40 41 41 42 43 43 43 44 44 45 45 45 45 45 45 44 45 46 47 48 48
79 97 95 80 65 49 51 54 46 44 48 46 38 57 65 72 69 72 65 77 82 37 38 39 39 39 40 41 41 41 41 42 42 43 44 44 44 44 45 46 46 46 46 47 47 47 47 47 47
93 98 92 64 66 66 68 61 42 41 50 46 33 35 41 48 70 72 64 57 42 38 38 39 39 39 39 39 40 41 42 41 42 42 42 42 43 43 44 44 44 45 46 46 46 47 47 47 47
90 88 83 69 86 74 76 65 61 46 53 49 28 26 40 38 53 56 62 61 67 46 40 41 40 41 40 39 39 38 39 39 40 40 40 41 41 42 42 42 42 42 42 42 43 43 44 44 44
97 80 80 74 100 76 84 78 62 79 65 42 29 24 32 38 45 53 52 60 57 49 40 41 42 40 39 39 39 39 39 39 39 39 40 40 40 40 40 40 41 41 42 42 42 43 44 45 48
94 79 86 83 84 96 88 76 74 83 72 59 43 34 36 39 41 49 58 60 51 43 52 38 36 38 40 40 40 40 38 38 38 38 38 38 38 38 39 40 42 44 45 46 47 48 49 49 50
82 85 84 98 77 100 96 77 66 70 69 66 58 57 50 44 42 42 51 59 64 54 50 43 43 40 41 38 38 37 38 37 37 38 37 37 37 38 42 42 36 29 29 30 34 38 38 37 34
84 86 83 88 89 92 84 82 60 53 72 77 64 73 66 51 52 44 48 58 61 64 58 51 48 48 46 39 37 37 37 38 37 37 37 36 38 44 32 27 31 32 32 28 21 22 24 28 33
80 82 89 90 74 100 82 77 60 58 74 74 70 75 74 69 64 48 51 46 44 47 52 59 57 56 55 51 47 40 38 37 37 37 37 40 43 29 31 36 37 38 38 37 36 28 24 25 28
84 95 96 90 98 98 98 86 75 67 65 58 61 80 71 72 73 66 54 56 53 49 48 49 52 49 53 48 45 45 43 44 42 38 42 38 30 34 36 38 39 40 41 40 36 36 33 28 26
80 89 97 80 74 88 98 85 94 84 68 62 56 66 77 77 74 68 75 58 56 59 52 51 52 51 49 48 46 49 50 45 42 44 35 34 36 36 38 39 40 39 40 35 32 28 28 28 27
76 79 90 80 82 97 100 84 78 81 67 63 59 53 58 65 70 73 65 72 73 65 61 59 59 61 59 56 52 48 47 46 44 39 39 38 39 39 39 39 34 28 26 26 26 27 28 28 30
66 67 75 80 86 86 94 78 62 70 76 56 41 43 62 62 68 80 72 59 73 75 67 66 66 63 58 52 52 51 49 45 43 44 45 44 38 31 27 25 25 26 28 30 32 33 34 33 31
53 51 50 89 89 81 91 82 55 51 56 76 78 61 72 70 66 66 68 63 60 73 73 68 66 65 60 51 50 49 45 45 50 49 48 32 32 30 29 28 29 29 30 31 31 28 24 20 17
52 50 65 73 71 77 78 57 46 46 58 73 82 58 53 70 68 72 76 70 59 64 77 75 70 66 66 61 53 54 54 52 49 46 56 38 38 35 33 33 31 32 33 30 27 24 22 18 15
57 83 62 67 63 57 66 64 36 44 54 60 51 66 52 67 66 72 72 69 59 53 58 74 72 71 68 67 60 52 48 44 42 40 40 38 36 35 35 36 37 35 31 28 23 19 16 14 13
56 60 73 73 73 72 59 60 39 43 45 50 53 52 49 44 57 58 59 65 59 54 59 72 72 65 61 51 49 50 48 48 46 44 42 41 39 39 42 41 34 31 30 26 22 17 13 13 14
72 69 76 78 78 76 49 51 42 44 42 41 40 47 53 53 33 30 30 46 67 75 74 73 76 71 60 53 56 56 51 56 60 59 57 47 46 44 40 38 43 42 38 30 25 17 14 14 16
75 50 57 63 81 65 50 48 44 42 43 42 43 45 43 43 52 49 35 42 41 52 76 80 80 77 65 57 62 63 65 66 63 67 73 68 42 42 45 45 42 40 38 31 24 18 15 16 17
68 66 64 59 47 58 54 42 46 28 40 44 43 35 35 32 32 36 39 46 53 41 67 79 77 72 79 75 72 71 75 79 82 68 57 50 49 50 50 44 38 34 30 26 22 19 18 17 18
74 77 65 60 70 50 45 40 37 35 43 46 41 39 35 34 33 32 30 27 38 40 60 74 80 81 79 82 70 69 79 77 86 76 62 58 55 53 51 42 36 27 24 22 21 21 21 20 22
90 88 70 63 62 84 57 42 35 38 46 51 48 44 42 39 37 37 36 34 31 38 39 40 46 77 75 63 54 64 74 81 82 73 61 59 59 57 48 38 30 28 25 24 24 25 29 30 31
82 76 69 67 69 59 58 49 43 44 46 47 46 46 60 48 37 40 37 35 36 33 28 30 36 34 36 37 51 68 72 68 63 59 61 60 56 44 35 32 28 26 26 27 29 32 34 37 38

GFSSGP_700_rhum_069.txt.gz
RH
57 56 51 50 47 45 38 41 43 43 59 62 50 63 72 58 68 54 39 27 32 24 16 11 11 12 14 15 15 15 15 14 14 15 14 12 10 8 7 8 9 9 8 9 10 12 15 18 20
60 57 51 52 50 51 36 32 49 45 43 55 52 70 74 80 68 47 30 29 29 23 16 13 12 11 12 13 14 16 16 15 15 15 15 16 16 16 14 12 10 11 13 16 17 19 22 25 25
61 59 52 51 55 45 36 29 35 42 52 55 62 68 95 90 65 38 29 30 29 26 23 21 19 17 14 13 13 15 17 18 18 18 17 17 17 16 16 17 17 18 19 21 24 25 26 26 28
63 70 65 56 48 37 31 29 33 48 53 52 49 61 84 87 81 51 31 32 32 31 30 29 27 27 25 23 17 14 15 19 21 23 23 24 25 25 25 25 26 26 27 26 26 28 29 30 29
79 76 79 60 46 42 30 32 44 41 42 40 48 55 72 94 81 80 36 35 36 36 35 34 31 32 34 34 33 29 22 17 18 21 23 25 26 26 27 27 27 28 29 29 29 28 27 27 30
88 83 88 66 49 42 34 38 47 39 44 43 45 60 64 72 85 89 54 38 38 39 38 38 35 34 36 38 39 40 39 36 31 24 22 22 23 23 24 24 24 25 26 28 32 35 39 42 44
86 84 84 67 58 50 47 48 42 39 39 44 46 49 60 59 73 86 81 52 39 39 40 40 38 36 36 39 39 40 41 41 41 40 39 38 39 38 37 35 33 34 36 39 41 44 47 48 48
88 86 83 80 62 56 53 52 45 38 43 42 52 45 57 67 67 74 98 61 57 40 40 40 40 38 36 37 39 40 41 41 42 43 42 43 43 44 44 45 46 46 46 47 47 47 48 48 48
94 96 91 82 70 56 52 55 47 41 39 50 54 54 53 61 72 73 85 75 65 55 40 40 41 41 39 39 40 41 41 41 42 43 43 43 44 44 45 46 47 47 47 48 48 48 48 48 48
99 98 73 68 71 60 60 54 53 44 37 40 50 66 66 69 72 66 87 89 67 59 55 39 40 41 41 41 42 42 42 41 42 43 43 43 43 44 44 44 45 45 45 46 46 46 46 46 46
97 71 58 71 75 66 80 58 53 46 48 46 37 49 60 50 68 70 65 60 91 76 65 42 39 40 40 41 42 42 42 42 41 41 41 41 42 42 42 42 42 42 42 42 42 42 42 43 43
98 77 73 70 77 96 82 68 54 50 45 44 45 42 44 31 34 50 64 65 76 79 70 50 40 40 39 39 40 40 40 40 40 40 40 40 40 40 41 41 41 41 42 43 44 45 46 47 49
89 91 81 76 87 81 90 76 62 62 53 42 36 34 31 39 41 43 60 74 68 71 67 57 50 45 42 41 39 39 39 39 39 39 39 39 39 38 38 39 41 40 38 34 33 34 31 33 34
66 98 88 88 95 91 86 81 72 70 73 68 54 38 32 36 39 45 54 71 84 74 78 69 60 47 44 41 40 41 41 40 38 38 38 38 38 37 38 42 32 26 28 28 28 25 19 18 20
98 85 77 80 85 95 98 91 84 82 92 81 70 57 45 44 46 42 48 65 65 72 70 62 72 69 39 40 40 39 39 40 38 38 37 38 38 37 39 36 27 31 32 34 34 34 32 26 21
95 90 100 100 98 82 100 86 86 97 92 80 74 78 65 60 54 49 43 48 60 68 66 63 62 57 48 46 45 44 39 37 37 38 37 38 37 38 43 28 32 33 34 34 35 33 29 30 30
99 91 99 100 100 100 99 93 98 90 80 70 68 78 73 69 63 67 50 50 65 63 60 61 62 58 58 56 52 50 50 44 43 41 39 38 39 44 30 33 34 35 34 32 28 27 25 24 24
90 91 82 100 95 94 87 100 90 89 74 66 58 60 62 57 67 61 78 61 61 58 58 58 50 51 52 56 54 52 46 45 51 49 44 41 45 34 36 37 38 38 33 27 24 24 24 25 26
95 71 94 83 96 87 98 88 91 89 76 67 64 56 58 61 56 69 69 71 75 68 61 59 59 60 56 53 48 47 49 50 56 52 44 46 38 38 38 41 41 37 27 24 25 26 27 27 29
83 86 87 100 91 81 90 93 79 88 62 58 61 54 54 54 67 69 56 62 67 69 67 70 64 64 60 60 57 55 54 51 52 52 50 42 42 41 43 36 29 27 27 28 29 30 30 27 26
88 76 74 90 85 90 80 88 90 83 80 62 51 51 57 53 55 66 63 56 60 61 62 63 64 68 68 66 64 57 55 51 50 49 45 45 50 43 34 33 32 33 33 33 31 30 30 28 26
79 66 58 70 95 99 94 91 65 59 68 62 50 42 46 65 73 56 68 60 61 68 63 57 61 72 70 69 70 68 55 54 56 56 51 50 52 59 40 40 40 39 36 35 32 32 30 27 22
71 60 62 60 80 77 62 79 42 49 48 57 56 48 50 62 64 54 60 64 67 68 68 63 64 65 68 74 67 72 77 62 63 61 52 47 48 48 46 44 41 40 40 38 34 30 29 26 23
72 61 71 80 68 74 70 62 48 42 41 45 37 38 42 49 58 68 65 67 74 69 61 55 54 55 63 75 74 74 76 73 64 56 46 45 48 46 43 42 43 44 42 36 39 40 37 32 26
65 79 94 84 76 75 60 63 44 45 48 51 55 57 59 52 53 70 67 67 66 70 68 70 74 69 68 74 76 69 67 68 65 62 56 53 54 61 64 61 51 43 40 44 43 40 38 35 30
69 54 59 82 92 69 53 48 42 43 43 43 42 48 57 52 53 46 54 56 42 36 45 60 53 72 77 87 78 62 58 58 60 63 64 67 70 71 79 73 60 45 46 46 40 35 33 32 28
58 62 61 54 54 62 49 44 43 44 45 40 46 51 50 48 51 44 38 34 28 29 44 52 59 79 83 94 96 88 71 70 69 76 78 86 77 78 81 81 54 48 47 48 40 33 26 24 22
68 74 59 57 65 59 60 44 39 46 41 44 43 39 31 34 34 30 34 37 35 35 34 35 38 64 82 78 78 86 96 90 88 85 78 80 87 87 76 61 59 56 54 44 35 29 27 24 22
76 66 61 57 64 83 60 44 42 42 36 34 36 39 42 44 43 40 37 35 37 35 30 32 34 44 70 80 79 82 86 90 86 75 69 75 81 75 74 66 58 54 44 34 31 28 25 24 25
84 70 77 61 65 58 59 48 41 43 47 45 48 47 46 44 42 42 39 34 35 33 33 30 30 31 38 47 57 70 69 59 53 55 70 78 84 78 65 61 57 43 37 29 26 29 31 31 33

GFSSGP_700_rhum_072.txt.gz
RH
62 62 53 50 50 48 50 40 44 51 65 65 62 65 68 62 55 52 42 26 25 19 16 14 15 15 16 16 16 14 13 12 11 10 9 8 7 10 42 36 21 21 10 9 11 15 17 20 23
66 64 61 56 55 50 43 36 47 39 48 53 63 64 68 69 62 54 32 28 23 18 13 12 14 14 14 15 16 15 14 15 15 16 15 13 10 8 9 10 10 10 13 17 18 21 23 24 23
72 65 66 58 57 51 40 34 45 47 56 65 64 58 76 77 60 47 29 31 22 16 13 12 12 12 13 15 16 16 16 15 15 14 15 16 16 16 15 15 16 18 19 22 24 25 25 26 25
80 65 73 64 54 41 36 32 34 43 52 52 67 65 75 78 69 40 28 26 20 17 16 15 14 12 12 13 14 17 18 19 19 19 19 19 19 19 19 20 23 26 26 26 26 27 26 24 24
97 81 87 74 53 47 39 36 36 37 38 55 57 61 69 94 74 55 44 24 23 25 24 23 22 20 18 15 13 15 17 19 20 21 22 24 25 25 26 26 27 26 26 26 25 25 28 33 36
100 91 95 87 57 49 44 36 44 40 52 57 51 57 58 87 99 73 60 31 30 32 32 32 31 31 30 29 26 22 19 17 18 18 20 20 21 21 22 22 22 24 25 30 34 38 42 44 46
95 100 94 73 65 52 45 39 43 40 52 63 48 43 51 57 67 82 77 54 38 35 37 37 36 38 38 38 38 38 37 35 31 29 30 32 32 31 31 31 32 33 34 38 41 44 46 47 48
92 100 88 86 86 60 45 46 45 40 46 51 51 51 47 47 50 85 98 77 57 43 38 39 39 40 41 40 41 41 42 42 42 41 41 41 42 43 43 44 45 46 47 48 48 49 49 49 49
94 100 96 86 85 62 48 54 44 47 42 43 54 50 49 52 52 56 90 90 81 54 41 40 40 41 41 41 41 41 42 42 42 42 42 43 44 44 45 46 46 47 48 48 48 48 48 48 48
98 100 91 75 79 60 52 55 50 45 45 45 50 56 59 55 46 64 64 84 95 66 45 40 40 41 42 42 42 41 42 42 42 43 43 43 44 44 44 45 46 46 46 46 46 46 45 45 45
81 98 93 83 79 61 57 53 58 46 46 50 55 58 47 62 62 45 65 67 84 96 81 49 42 41 42 42 43 42 42 42 42 42 43 43 43 42 43 43 43 43 43 43 43 43 43 44 45
90 96 92 84 78 65 57 61 62 55 47 43 43 56 54 65 50 58 59 68 72 82 96 87 64 41 42 42 43 43 43 43 43 42 41 42 42 42 42 41 41 41 41 40 41 42 43 44 45
79 92 88 92 79 71 66 67 72 58 53 47 41 40 68 69 61 64 65 76 75 69 61 90 80 52 41 41 42 42 43 42 42 40 40 40 40 40 40 40 40 41 32 28 26 26 24 25 26
70 83 85 86 75 78 94 86 83 69 57 50 47 45 50 58 50 47 50 68 68 74 68 68 84 70 47 40 40 40 40 40 39 40 39 39 39 39 38 38 41 38 27 29 30 31 30 29 24
94 75 90 89 67 97 88 94 83 75 63 53 46 44 41 41 44 46 48 44 72 71 75 73 74 87 74 55 42 40 39 40 41 41 39 39 39 39 38 38 43 29 31 31 31 29 28 27 25
94 89 97 91 83 99 100 94 97 83 75 71 56 47 45 43 43 42 46 44 64 62 69 72 76 82 72 72 59 48 42 43 42 40 39 38 38 39 38 39 39 30 34 34 34 31 29 26 23
96 95 90 98 90 95 81 100 97 98 98 97 84 66 61 55 44 61 60 51 56 68 63 57 75 78 76 80 64 50 48 46 43 40 38 39 40 39 38 43 32 34 37 38 37 32 28 25 25
90 97 87 100 96 99 98 86 100 99 94 96 88 77 69 68 64 75 82 69 64 56 58 66 74 76 73 73 63 60 60 55 52 50 49 46 42 40 40 42 33 36 38 38 34 28 25 26 28
91 84 88 90 99 98 100 93 100 100 92 92 87 83 73 64 67 70 79 77 79 66 62 67 74 70 64 60 62 60 56 55 52 49 49 48 47 42 46 36 38 39 40 33 27 26 28 27 28
94 92 78 96 97 100 99 94 100 99 98 88 83 75 68 71 65 62 68 70 71 71 66 62 59 67 64 58 59 58 57 56 55 53 57 60 47 48 42 42 43 44 34 30 30 31 31 29 30
90 72 74 82 100 98 97 96 90 89 78 73 67 62 68 59 62 65 58 59 63 68 64 68 66 60 68 66 67 65 62 60 55 53 51 50 51 50 48 46 44 34 34 35 34 32 32 32 30
98 86 56 89 99 97 96 91 73 70 62 66 68 66 64 59 56 59 64 64 61 63 62 61 64 68 74 75 68 66 65 65 62 67 73 64 55 56 52 51 48 43 38 37 36 35 35 34 31
85 75 79 86 97 99 100 74 55 74 76 59 56 59 55 52 56 55 51 51 65 66 60 62 62 64 62 62 64 72 74 73 75 74 71 73 83 82 75 68 52 46 41 42 42 41 38 37 42
68 82 87 91 91 98 84 85 51 54 54 52 58 61 46 44 48 47 52 58 65 67 68 66 64 68 66 72 76 79 89 85 94 85 74 72 83 81 78 69 62 52 52 52 54 45 39 43 42
84 76 98 98 98 86 62 84 48 47 46 44 46 55 51 55 66 63 64 63 69 70 69 72 68 68 70 72 72 64 81 93 92 98 90 82 83 89 90 82 84 79 72 79 77 63 49 45 42
81 68 63 88 92 74 70 64 48 45 44 45 53 56 60 62 64 68 74 74 70 72 72 73 74 74 70 65 68 70 80 87 85 89 96 92 92 94 92 88 77 68 69 80 77 72 53 50 45
78 61 62 56 67 58 54 49 50 47 46 42 44 49 50 57 55 45 56 64 67 65 63 60 45 41 55 57 80 85 83 76 74 76 74 73 73 78 86 89 88 88 90 77 59 58 53 49 37
72 67 58 52 73 66 62 48 47 51 45 46 53 59 59 56 54 53 54 54 50 40 36 32 29 50 59 59 69 83 82 80 85 83 87 87 86 96 93 84 86 78 81 72 66 63 56 42 32
67 57 56 60 65 74 66 46 44 49 46 45 44 44 42 40 42 40 40 41 40 38 34 28 25 26 31 35 54 80 82 81 82 86 83 91 96 93 80 74 81 87 78 70 63 60 52 34 28
70 62 55 52 59 61 55 47 39 45 45 43 42 44 47 49 49 48 44 41 38 36 35 33 32 32 28 29 35 52 80 84 83 88 88 89 82 79 76 78 81 87 80 66 62 55 38 30 32

GFSSGP_700_rhum_075.txt.gz
RH
75 67 56 55 57 59 54 40 43 56 64 84 74 61 56 65 59 40 44 26 25 22 18 17 19 17 17 17 15 13 11 10 9 7 6 10 63 79 70 71 74 52 10 10 13 17 22 22 22
77 70 69 62 68 57 54 48 39 46 55 54 72 65 59 67 67 44 49 28 25 21 17 14 18 17 17 16 15 13 13 12 11 10 8 8 22 54 25 17 11 9 12 17 20 23 23 24 24
80 81 80 74 71 60 46 48 44 48 58 62 83 76 75 72 64 52 40 27 28 20 16 14 16 18 17 16 15 14 15 16 16 16 14 11 10 10 11 11 14 17 20 24 25 25 24 24 22
87 91 87 98 89 51 45 39 39 50 62 66 58 75 74 87 73 64 37 28 24 18 15 13 16 17 17 16 16 15 15 15 16 16 16 16 16 16 17 18 20 24 26 26 25 24 23 25 28
87 90 100 99 80 58 49 43 38 55 64 60 59 70 69 75 86 67 36 27 20 18 16 14 15 16 16 18 17 17 17 19 20 21 21 21 21 22 24 25 26 27 26 23 23 25 30 34 39
66 96 100 100 71 61 57 48 39 41 48 45 50 54 66 74 96 63 36 29 20 20 17 17 16 16 17 17 18 18 18 19 22 23 24 24 25 25 25 25 25 24 25 28 31 32 34 37 40
44 89 98 84 58 63 59 49 44 42 41 50 52 55 59 69 85 75 64 46 32 30 21 19 20 19 18 17 17 16 16 16 17 19 20 21 22 23 24 27 29 32 34 38 40 42 45 47 48
28 96 100 98 88 62 57 52 42 41 42 43 58 60 52 57 58 98 96 60 44 43 38 26 29 29 29 30 29 29 29 27 26 29 31 33 34 36 39 41 42 45 46 48 49 49 50 50 49
65 100 99 96 99 59 54 52 47 45 41 51 58 66 65 52 52 88 100 88 74 64 61 44 34 35 38 39 40 41 42 42 41 41 41 41 42 41 43 44 45 46 48 48 49 49 49 48 47
72 98 94 86 95 93 61 56 48 50 46 48 52 57 64 63 56 72 86 93 91 84 72 53 35 35 39 42 42 43 43 44 44 43 43 44 44 44 45 46 46 46 46 46 46 46 45 45 45
85 82 64 98 80 92 69 62 49 55 56 50 51 60 64 63 58 57 64 67 97 94 97 64 46 36 38 41 43 43 44 44 44 44 45 45 45 45 45 45 45 44 44 43 43 43 44 44 45
99 61 90 96 81 92 73 64 54 58 56 49 54 54 60 55 60 66 64 60 70 93 96 92 71 51 38 39 42 44 44 44 43 44 44 45 45 45 44 44 43 42 42 42 42 41 40 38 35
100 75 84 99 95 91 80 69 67 58 58 52 53 70 63 49 50 60 61 64 93 75 79 96 89 78 49 44 41 43 44 44 45 45 44 44 43 42 42 42 42 42 42 36 30 28 28 27 25
84 90 85 99 85 86 76 74 68 55 58 62 54 64 63 52 49 67 69 65 71 83 72 74 88 87 74 67 41 42 43 44 44 43 43 42 41 41 41 42 40 40 42 29 29 31 32 33 32
86 89 90 83 97 98 90 97 81 72 65 70 60 66 76 73 73 71 67 59 59 79 64 74 80 71 90 67 62 44 42 43 43 42 41 40 40 40 40 40 39 40 40 29 32 32 32 32 29
84 99 88 95 92 97 99 90 85 84 74 76 66 62 61 62 66 69 59 49 64 86 70 76 87 78 78 78 93 78 47 43 42 40 40 41 41 40 39 40 39 40 38 32 34 34 32 29 26
89 98 82 94 90 98 100 87 73 99 85 79 70 60 54 56 55 57 69 61 58 73 80 73 80 80 84 76 88 79 71 69 61 45 44 44 43 41 40 40 39 42 36 34 36 36 32 25 25
87 90 86 87 87 92 99 91 92 98 98 86 75 66 61 54 58 57 70 68 50 63 59 72 66 70 98 98 94 93 78 62 59 54 48 45 42 43 42 41 39 44 34 36 39 40 31 26 27
84 85 87 76 90 79 99 86 79 100 96 92 81 79 66 62 66 55 70 72 67 58 70 70 64 74 82 86 78 90 91 80 60 61 60 59 55 55 47 42 41 46 36 40 42 38 29 30 30
90 87 92 93 99 99 100 100 100 90 99 90 91 87 79 69 70 65 68 59 71 70 65 64 74 85 81 73 61 70 77 82 74 64 50 48 51 54 56 46 49 42 41 44 43 32 34 33 32
96 80 92 78 71 98 99 99 95 99 99 98 95 88 80 76 67 64 67 70 72 69 72 79 81 76 71 77 68 61 75 74 62 52 49 49 54 65 59 50 52 48 50 48 34 37 36 34 35
89 90 74 82 90 99 86 96 89 86 89 92 90 83 73 68 66 58 55 66 63 66 68 70 73 74 78 71 61 70 72 77 85 82 74 74 70 66 57 61 61 64 59 52 48 43 42 41 41
76 87 83 82 85 98 98 93 65 62 62 66 81 71 64 57 55 62 60 59 66 65 67 67 69 70 71 69 69 69 70 72 82 96 99 99 96 88 75 74 81 82 82 80 84 59 52 63 65
98 95 95 87 98 98 99 80 57 65 49 56 58 61 64 62 60 66 63 64 67 63 57 62 69 68 69 68 75 78 73 78 88 93 98 100 98 95 99 99 99 100 99 92 89 79 72 74 80
100 89 99 97 97 93 80 88 56 50 50 56 58 60 63 64 62 66 68 69 61 62 67 70 70 67 70 70 74 80 82 79 94 85 87 85 94 95 100 99 98 97 99 96 73 90 83 78 76
97 82 91 92 92 78 77 78 50 46 46 44 45 52 65 56 57 61 69 60 56 64 73 77 76 78 84 80 81 81 78 86 89 89 97 94 92 92 96 99 100 98 96 91 89 86 88 84 61
82 63 60 64 68 74 71 55 47 46 44 46 44 46 55 61 58 56 64 64 76 76 74 78 80 81 76 73 72 76 71 72 79 80 87 89 84 92 96 99 92 94 97 86 78 78 81 70 67
72 58 51 54 85 68 64 52 48 49 45 41 45 54 57 59 63 69 71 58 59 58 60 61 61 60 55 48 33 40 56 60 80 79 80 78 80 92 95 93 98 97 94 79 82 81 75 76 70
77 62 53 59 60 80 68 48 46 53 52 49 51 56 58 64 69 66 59 49 42 40 40 36 33 30 29 30 33 48 57 56 78 82 76 79 88 85 88 94 99 99 97 81 85 83 87 86 69
68 60 58 48 62 61 54 54 45 46 56 56 52 49 49 48 44 44 44 43 42 41 38 37 34 32 32 30 30 32 36 41 65 83 81 81 80 89 91 90 95 94 83 82 82 83 86 69 66

GFSSGP_700_rhum_078.txt.gz
RH
65 74 66 59 59 67 57 44 41 49 58 72 65 76 67 62 65 45 42 39 23 23 20 18 18 26 18 16 14 14 10 8 6 9 75 80 77 77 76 74 71 60 13 11 16 19 21 21 21
45 76 73 72 73 76 54 44 41 45 53 68 71 81 78 78 69 58 45 38 25 23 20 18 47 23 18 16 15 12 10 9 8 7 40 72 77 69 58 53 31 10 14 19 22 23 22 21 21
45 81 76 90 88 88 58 42 43 42 50 69 69 75 80 84 71 73 51 32 26 24 21 19 45 18 18 16 14 13 12 12 10 8 11 57 62 32 13 10 12 17 22 24 24 24 22 21 21
36 86 83 95 100 77 63 46 42 44 46 54 62 69 81 87 83 81 55 29 26 23 22 22 33 18 17 16 15 16 16 16 16 13 10 20 24 11 13 17 20 24 26 26 25 23 24 27 31
20 82 96 98 97 73 54 53 49 47 47 56 64 62 81 83 91 93 64 33 30 24 24 38 52 18 17 16 16 16 16 16 16 16 16 15 16 17 19 23 26 26 26 24 25 28 32 34 38
22 54 97 96 99 64 60 54 50 46 46 53 60 58 64 79 85 96 74 63 33 32 44 30 58 18 18 18 17 17 19 20 20 19 19 19 20 24 25 26 24 23 24 28 32 33 35 41 45
20 36 82 83 81 68 67 61 49 48 48 53 58 61 69 74 87 85 96 71 58 53 56 38 48 19 20 20 21 20 23 26 25 24 24 24 23 23 23 22 25 28 30 34 36 39 44 47 49
30 56 78 89 88 59 61 70 49 46 49 59 62 61 59 64 62 78 97 84 80 55 56 46 50 20 20 21 21 22 22 24 23 22 21 21 22 24 31 36 40 42 43 45 48 49 50 49 48
59 74 92 77 80 39 61 72 61 50 50 46 56 56 52 54 64 78 91 85 66 62 53 44 22 20 20 20 19 20 19 21 24 27 30 31 34 34 38 41 44 46 48 49 50 50 49 48 47
88 82 44 27 24 36 76 78 64 68 53 47 42 47 55 67 71 75 80 96 81 65 59 54 36 24 24 25 27 29 33 35 38 39 41 42 43 44 44 45 45 47 48 48 48 47 46 46 45
75 66 29 33 39 51 86 80 71 74 67 48 41 48 52 59 75 77 69 86 87 72 72 65 49 31 29 31 36 40 42 43 44 45 45 45 46 46 46 47 47 47 46 46 45 44 43 43 43
54 33 68 44 58 82 86 78 82 83 70 53 47 44 52 60 69 76 70 86 91 96 80 74 79 50 34 33 36 42 44 45 45 45 46 46 47 47 47 47 46 45 44 42 42 42 41 38 34
65 27 59 59 78 84 60 87 96 88 65 61 54 52 51 55 67 66 64 61 64 91 96 84 83 78 45 37 36 39 43 45 45 46 46 46 47 47 46 45 44 43 42 42 37 32 30 30 30
66 49 47 89 84 86 94 71 100 78 77 62 64 63 68 67 67 60 59 65 64 87 98 91 92 97 72 45 39 39 41 44 45 46 46 46 46 45 44 43 43 43 42 42 32 30 32 32 33
76 91 75 88 77 88 98 80 83 99 81 72 71 68 74 65 67 48 54 66 64 74 76 79 69 79 92 90 66 49 40 43 45 46 46 46 44 43 42 42 43 43 41 43 32 32 34 34 34
80 88 97 69 78 96 93 71 85 100 77 74 74 79 78 85 65 72 83 84 74 67 76 72 66 85 77 87 95 74 65 56 44 44 44 44 43 42 42 42 43 43 41 43 34 34 35 37 33
95 94 82 92 76 92 97 91 99 99 84 70 80 78 84 92 92 89 92 94 72 78 83 94 80 77 82 82 82 84 82 71 64 45 43 44 43 43 43 42 42 42 40 42 37 35 38 40 33
84 99 82 94 75 86 99 99 92 80 89 76 78 86 92 89 98 95 96 90 94 93 79 88 96 81 97 91 91 93 82 76 75 78 71 58 51 48 47 44 43 42 40 42 40 38 40 41 32
90 96 98 93 70 68 79 95 99 98 94 89 74 82 81 85 88 87 84 80 82 77 75 79 96 97 90 89 85 100 98 81 78 89 88 64 65 61 51 46 46 44 43 46 42 39 42 44 31
98 95 89 92 73 80 98 87 97 98 82 96 91 84 87 74 69 71 72 77 75 68 73 73 74 86 96 99 100 84 82 85 86 76 83 75 73 71 69 64 60 50 48 51 43 44 48 36 36
92 71 84 92 99 98 82 79 99 96 81 89 100 100 84 79 67 65 64 65 70 58 67 65 72 78 80 77 82 99 88 84 94 98 82 84 80 64 91 75 84 71 73 58 59 57 45 40 42
95 76 70 82 72 97 85 98 97 95 78 72 90 94 87 82 74 77 76 74 72 71 67 78 80 78 78 83 79 100 99 99 99 98 86 86 92 82 82 89 95 85 75 70 73 73 61 60 47
100 85 78 82 80 84 84 98 93 66 62 66 82 91 90 85 75 75 75 74 76 73 72 76 75 78 82 79 83 84 84 87 86 99 81 81 87 92 97 98 95 96 98 96 92 77 73 67 61
87 81 81 72 80 89 97 94 64 62 57 68 87 95 91 91 70 67 63 59 64 66 72 73 73 74 72 76 79 80 85 94 91 96 91 80 88 88 97 98 99 100 100 98 97 99 96 92 95
92 79 98 95 96 99 95 98 65 63 63 76 79 77 86 79 72 62 63 66 67 63 61 69 69 68 66 66 68 72 79 82 91 84 81 74 77 99 92 94 88 91 98 96 98 99 98 93 93
98 93 87 93 93 93 90 74 56 51 52 68 71 78 97 77 75 71 67 71 70 63 64 60 60 76 77 75 74 74 75 75 78 79 80 83 90 98 98 99 98 96 97 91 96 98 97 83 80
95 90 73 76 79 82 66 60 54 52 52 55 57 62 66 72 73 68 63 66 64 56 58 57 69 75 78 79 76 76 75 73 75 70 68 78 85 95 98 92 96 100 98 97 92 94 87 82 79
76 65 61 73 85 78 67 54 55 58 48 57 57 59 61 75 69 70 70 70 66 59 58 63 71 72 76 78 75 69 63 49 43 61 64 76 80 89 89 87 88 95 96 92 99 98 93 81 85
66 58 54 59 59 74 69 51 50 62 63 54 64 63 64 65 68 71 76 76 64 49 44 47 47 49 51 50 43 35 33 33 46 58 65 72 78 75 78 81 90 93 97 99 100 99 95 93 84
73 63 54 48 65 55 51 56 50 56 59 59 54 54 56 58 58 56 51 47 46 43 43 41 38 35 33 32 29 27 27 28 30 42 50 52 77 81 78 83 89 93 94 99 94 87 78 78 80

GFSSGP_700_rhum_081.txt.gz
RH
20 45 72 70 62 62 58 52 46 45 56 70 67 60 58 67 73 59 46 38 37 23 21 24 26 19 18 16 14 14 10 7 7 17 22 42 49 55 59 74 73 61 28 10 15 19 20 21 20
19 41 75 75 70 77 70 52 46 48 46 52 76 70 61 72 80 73 51 44 37 24 21 22 42 32 17 16 14 12 9 7 16 56 60 59 69 75 72 72 65 15 12 18 21 21 21 21 20
19 37 74 83 84 80 69 56 44 45 49 49 58 75 73 68 81 76 76 52 30 25 23 26 60 42 18 16 14 11 10 8 11 59 71 76 72 54 49 47 11 16 21 23 22 21 21 22 25
20 42 84 87 84 84 73 56 47 42 48 55 60 68 78 67 80 75 77 47 27 25 25 38 69 48 18 16 13 12 11 9 9 45 75 77 74 13 11 12 19 23 24 24 21 21 25 29 33
23 33 83 95 87 91 71 54 53 48 46 49 56 61 69 68 70 80 89 38 32 28 34 38 81 48 18 16 15 15 15 14 10 15 62 71 18 11 15 20 23 26 25 22 23 27 31 36 38
26 25 76 98 91 79 60 57 59 56 49 45 55 58 68 58 61 80 98 58 38 42 62 56 72 43 19 18 17 17 17 17 15 12 18 18 15 18 22 25 26 25 23 25 29 33 35 41 45
40 28 39 56 76 75 50 60 66 60 48 46 48 51 58 50 43 66 97 99 65 59 81 60 76 47 20 18 17 16 17 17 17 16 16 18 22 26 27 27 24 25 29 31 33 39 44 48 48
24 42 63 36 74 42 36 54 56 64 51 48 59 67 55 44 45 50 66 100 89 59 72 58 72 44 21 19 19 19 21 22 23 24 25 26 27 26 24 25 28 31 35 40 44 46 48 49 48
70 76 54 38 26 19 23 42 47 67 54 59 58 62 64 59 52 54 62 97 94 66 70 53 71 36 22 22 23 24 26 27 26 25 25 23 23 24 30 36 40 43 44 47 50 50 50 49 48
75 72 37 15 25 29 26 54 44 66 64 58 57 60 65 60 60 64 75 98 100 79 75 63 67 37 25 25 26 27 24 24 23 22 24 28 32 36 38 40 42 46 48 49 49 48 47 45 44
44 47 36 44 33 72 76 70 71 77 82 55 63 63 58 70 70 66 66 71 95 91 75 70 64 48 30 28 28 26 22 23 27 32 35 38 40 42 44 46 48 49 49 48 48 46 44 43 42
45 23 48 32 51 54 72 75 88 74 73 63 64 64 63 57 74 66 77 92 87 80 81 80 61 56 35 32 28 26 28 34 38 41 44 45 46 47 48 48 48 48 47 46 44 42 41 38 33
31 16 26 31 44 64 79 82 79 79 81 76 71 66 68 80 62 59 73 94 95 86 80 98 73 68 42 35 31 30 35 41 44 45 46 46 47 48 48 48 48 47 46 44 42 39 35 32 32
36 29 24 30 39 49 72 52 73 56 78 71 66 87 76 69 65 73 81 77 84 74 77 98 92 71 68 38 36 34 37 41 44 46 46 47 47 48 48 47 46 45 44 43 43 38 31 32 33
48 69 68 41 30 73 68 76 80 41 78 70 81 72 86 80 67 65 66 83 70 65 71 78 98 94 71 54 49 37 38 40 43 45 46 47 47 47 47 46 44 43 43 43 43 40 32 34 34
64 84 76 29 45 40 84 70 48 51 75 88 84 79 97 92 89 75 73 81 78 67 72 68 98 90 85 91 76 64 42 40 42 44 46 47 47 46 45 44 43 42 44 44 42 44 33 35 37
86 94 91 49 51 52 81 77 55 89 57 75 91 84 94 92 92 92 87 77 77 75 83 98 96 90 80 82 76 73 65 43 42 44 46 47 46 44 44 44 44 44 45 45 43 43 36 37 39
91 99 93 74 42 66 74 85 89 76 69 77 82 94 96 97 96 96 99 87 89 71 85 92 79 83 88 78 75 78 91 79 56 57 56 55 49 49 50 51 49 48 47 46 45 45 42 39 42
97 98 92 84 75 68 70 98 96 99 95 65 82 98 86 86 95 92 98 97 100 88 99 87 98 83 96 92 92 87 83 85 78 71 79 80 76 68 54 57 55 56 52 50 47 45 46 41 44
100 99 92 89 61 89 69 93 96 96 98 99 100 98 79 82 90 95 100 100 98 92 98 93 97 99 100 94 100 99 96 92 75 73 78 87 90 82 77 77 76 61 54 56 50 47 50 45 49
96 93 86 98 99 96 75 90 82 83 90 94 100 100 88 88 88 93 96 94 100 97 100 98 80 87 94 95 91 96 97 95 92 80 84 88 97 89 96 99 91 93 84 81 60 57 55 54 58
98 82 82 73 86 98 93 96 79 85 82 97 87 98 99 95 96 87 87 90 83 88 89 86 87 83 90 98 96 92 95 99 99 95 92 91 94 97 100 98 81 82 88 99 96 94 81 80 76
92 76 74 76 76 77 77 71 71 80 98 86 81 88 86 100 100 100 97 94 98 93 83 84 93 88 89 83 90 99 99 100 99 99 97 100 98 97 96 97 97 99 96 100 99 100 94 96 95
94 82 82 79 70 92 98 61 72 85 87 81 68 66 78 98 98 98 97 97 96 85 80 80 81 80 82 85 92 95 91 92 91 93 85 94 97 99 100 98 98 89 98 98 100 100 100 98 93
84 76 93 90 88 95 99 96 88 75 86 71 83 72 74 99 99 97 100 94 83 76 75 76 74 74 73 72 76 76 80 81 89 87 91 89 92 88 96 92 99 93 92 97 96 98 89 92 92
91 88 80 89 90 94 98 94 83 69 61 67 72 90 99 100 100 95 91 76 68 65 65 62 59 64 70 67 68 76 73 70 69 73 76 77 81 82 89 87 91 97 100 95 94 97 100 95 94
95 78 71 78 80 79 79 76 82 77 70 79 85 85 92 100 90 100 87 72 68 66 65 64 62 62 63 62 72 77 74 72 73 75 72 74 75 75 78 83 93 97 87 95 99 99 87 90 85
92 74 70 72 82 95 73 57 77 68 62 54 72 84 99 98 99 95 78 63 67 72 65 60 62 67 70 75 77 76 75 74 75 71 60 46 58 65 75 83 95 93 87 90 95 92 85 97 99
72 64 58 59 60 80 75 55 70 72 73 69 70 75 82 88 90 76 70 70 71 72 61 49 48 52 57 65 68 68 67 65 62 53 46 38 47 61 71 78 84 90 89 93 93 94 92 100 99
69 59 50 45 60 53 54 56 59 71 73 73 73 74 74 72 71 72 75 75 70 53 43 40 35 35 35 37 36 35 34 31 30 28 29 35 49 60 67 75 78 82 88 91 97 93 97 100 96

GFSSGP_700_rhum_084.txt.gz
RH
21 18 31 61 70 69 53 47 59 51 58 64 70 67 70 72 73 67 57 53 39 30 23 22 46 18 17 14 13 12 10 7 6 5 29 61 50 64 66 93 83 68 43 12 15 19 18 18 18
21 17 33 73 72 52 48 49 60 49 58 66 81 64 63 70 69 61 51 52 40 35 25 24 54 21 19 15 14 13 9 7 9 20 58 58 62 59 61 78 71 40 12 15 20 19 19 18 18
22 21 46 87 72 55 44 52 57 51 42 51 82 70 74 71 67 66 54 53 47 34 27 28 62 34 20 15 14 12 8 12 52 57 54 54 59 68 75 74 52 12 16 21 21 20 19 18 21
28 27 47 87 64 56 51 48 56 49 48 56 59 83 71 71 71 70 71 60 55 30 38 43 76 72 25 16 14 11 9 18 63 73 76 77 65 71 68 57 12 17 22 22 21 19 20 24 29
32 36 79 78 66 59 59 58 53 55 50 49 64 81 79 67 68 68 75 76 50 30 60 62 72 67 30 17 13 11 9 15 63 82 81 85 62 43 42 13 20 24 24 22 21 24 27 31 34
39 50 70 63 60 61 66 71 63 62 60 49 56 66 92 70 69 68 78 89 72 44 56 60 81 74 32 18 13 12 11 10 57 78 85 92 20 12 14 22 25 27 24 22 25 29 32 36 39
40 80 69 56 48 56 65 71 74 56 64 57 67 61 70 55 72 66 70 87 76 69 66 68 85 78 36 19 15 15 14 11 23 72 83 73 12 16 24 27 28 25 24 27 31 33 38 42 44
21 94 79 63 50 48 57 72 72 53 58 66 63 74 64 62 60 56 54 59 89 86 84 73 82 86 32 32 22 18 17 15 12 35 55 15 17 23 27 28 25 26 30 31 34 41 46 47 47
25 94 72 60 55 53 52 55 67 41 63 75 65 75 73 75 50 48 50 48 72 99 98 91 91 93 40 33 29 19 18 17 15 16 18 18 24 27 28 24 27 30 34 40 46 49 50 49 47
43 89 72 59 60 61 68 65 68 75 68 60 62 68 68 59 53 54 55 61 73 96 99 98 98 97 44 28 32 20 20 19 19 19 23 27 28 26 25 29 35 42 46 48 50 51 50 48 45
70 89 82 85 86 90 86 86 84 82 79 72 69 57 68 61 65 70 64 63 72 70 100 98 98 98 47 28 32 30 26 26 26 27 27 27 25 26 36 41 42 44 48 50 50 47 46 43 43
42 60 49 65 98 82 51 94 86 88 78 80 80 81 82 70 67 75 70 71 72 74 82 100 99 99 56 31 31 39 30 29 28 25 24 26 32 36 39 43 46 48 49 49 47 45 42 40 39
27 23 58 65 54 40 59 59 65 85 73 55 59 78 70 73 79 82 90 84 86 75 66 82 98 98 66 33 34 34 35 28 27 27 32 36 41 44 47 48 49 49 49 48 46 43 40 37 32
58 24 25 47 48 36 37 40 96 42 52 76 73 51 74 68 75 75 95 91 77 74 85 78 90 100 83 43 35 36 37 33 31 35 40 44 46 48 48 49 49 49 48 47 44 42 41 34 32
27 27 26 26 23 86 29 38 28 37 56 55 84 82 61 70 76 86 96 94 91 90 82 73 98 100 84 64 48 37 33 36 39 39 43 45 46 48 48 48 49 49 47 45 43 42 42 34 34
90 84 92 17 30 20 69 44 27 58 81 54 68 76 73 58 61 78 87 100 96 95 84 94 91 93 98 87 67 41 38 36 38 41 44 45 46 47 48 48 48 47 46 44 43 43 44 39 35
100 74 70 72 78 58 92 39 35 74 80 53 50 80 67 49 52 73 76 83 96 83 76 82 87 84 90 93 80 76 47 40 42 44 45 45 46 47 48 48 46 44 43 43 44 45 43 44 36
86 97 90 74 69 88 78 32 59 82 92 70 73 78 74 51 57 83 90 96 98 88 74 86 94 99 100 83 96 87 66 66 44 42 46 48 50 52 49 47 44 44 44 45 47 48 47 45 43
95 96 94 96 83 82 78 66 66 80 73 73 75 73 76 65 69 96 99 100 100 97 86 90 98 100 100 83 98 84 84 92 84 53 48 49 49 58 57 54 57 52 52 54 54 52 49 46 46
97 97 95 92 80 91 74 68 75 96 98 73 73 61 89 82 86 100 99 98 99 98 97 97 99 97 98 95 96 90 80 76 69 86 82 74 77 70 70 81 75 68 66 70 67 59 55 51 48
97 97 92 96 84 98 81 78 97 95 87 95 83 73 88 95 97 100 95 100 100 100 99 100 99 98 99 100 98 98 81 84 74 73 88 90 98 93 86 95 98 93 87 92 88 80 67 63 60
97 94 98 90 98 88 89 71 94 82 68 74 75 82 98 100 99 98 100 100 100 100 99 99 100 99 99 98 99 97 96 90 78 84 98 95 91 92 97 100 100 97 100 99 99 99 94 89 84
96 92 94 90 92 91 87 73 75 66 76 62 55 90 95 99 100 96 94 84 85 89 91 96 97 94 98 100 97 99 98 98 100 100 90 96 100 94 98 98 99 99 100 100 98 100 90 99 99
85 99 98 99 77 93 94 93 81 89 84 83 94 96 99 100 99 100 100 98 91 96 96 98 99 99 96 85 98 100 100 98 98 100 97 99 100 99 100 100 98 99 98 98 97 93 98 100 100
97 98 90 89 76 83 97 86 86 72 83 87 84 79 93 100 86 92 99 100 99 100 99 92 87 86 85 91 98 94 94 88 94 95 93 85 85 96 88 97 95 98 100 98 96 99 97 100 100
92 89 83 72 83 92 94 80 76 75 69 59 91 80 98 96 96 96 100 100 99 99 94 88 80 77 77 76 76 80 78 74 76 74 77 79 77 83 87 96 97 99 98 98 99 94 87 77 91
78 97 77 80 79 64 79 87 82 84 92 79 92 99 87 99 94 85 100 98 100 93 83 79 74 70 68 66 70 70 75 88 82 78 77 79 76 77 81 83 88 89 98 97 95 93 98 100 96
93 87 82 73 73 81 54 60 71 85 85 98 99 91 98 100 98 94 100 100 100 95 79 70 65 65 68 67 72 73 79 86 82 78 78 80 79 74 70 74 73 75 85 92 90 89 93 84 85
82 79 62 60 66 50 47 56 79 86 79 88 89 99 100 100 100 100 98 92 95 84 76 66 55 51 56 66 73 78 79 79 79 78 75 72 67 60 52 55 66 68 80 91 92 90 90 92 99
71 58 61 56 55 56 46 56 76 80 80 88 96 99 100 99 97 93 94 93 80 75 66 49 42 39 36 38 40 43 48 53 55 53 46 37 31 34 37 49 68 73 76 86 93 94 96 98 98

GFSSGP_700_rhum_087.txt.gz
RH
14 20 22 47 74 58 52 44 38 32 32 37 46 53 56 53 58 71 69 61 61 54 36 28 21 18 19 17 12 12 11 10 8 7 8 11 51 65 67 90 90 80 62 26 12 16 17 17 16
18 24 33 88 70 53 44 40 38 34 43 43 46 62 69 65 75 76 66 56 56 50 38 24 23 25 18 17 13 12 11 8 6 5 8 32 55 60 76 100 90 67 38 14 16 19 18 17 16
21 26 92 74 72 63 40 38 37 40 46 55 60 70 72 73 73 69 61 55 54 46 39 25 32 44 21 18 14 13 10 7 6 13 66 69 55 63 69 84 72 42 15 17 20 20 18 18 18
27 43 88 81 52 52 51 37 37 42 43 52 62 63 65 80 78 66 61 62 66 57 43 30 50 72 28 19 15 14 10 17 11 53 71 63 60 59 66 76 54 14 17 20 21 19 18 20 24
38 94 75 63 65 57 46 43 38 46 42 43 46 58 68 78 70 70 64 64 79 76 52 58 58 78 65 22 16 14 9 41 53 72 65 69 64 70 78 72 20 18 22 22 20 20 22 26 29
91 90 67 55 49 51 51 46 48 42 43 43 43 46 56 92 58 60 66 67 66 93 73 73 66 82 74 34 18 13 10 55 74 85 80 85 76 69 65 44 16 23 24 22 21 22 27 31 31
94 75 61 51 42 39 46 47 50 49 45 45 45 47 47 64 68 61 66 70 70 87 99 87 80 90 85 42 32 13 10 50 91 88 89 96 76 49 41 15 22 25 24 22 25 29 33 36 38
91 84 66 59 52 43 39 44 47 51 50 50 51 47 52 66 70 55 66 73 78 71 95 83 92 95 91 55 31 15 11 30 83 90 95 100 34 16 15 23 26 25 23 25 29 34 40 42 43
86 91 64 59 53 45 42 38 45 50 56 58 57 59 56 67 87 61 63 70 72 79 90 96 82 94 96 55 38 22 13 15 65 91 97 96 14 15 23 28 28 25 28 31 32 39 45 48 46
92 82 65 54 48 44 43 45 43 42 50 58 67 68 73 75 87 91 57 57 59 62 59 82 99 97 100 65 54 39 18 13 22 78 94 40 17 23 27 30 26 30 32 36 43 48 50 49 46
82 84 72 62 58 66 73 77 74 52 56 52 58 58 74 95 67 75 52 46 48 66 71 77 97 95 99 95 53 58 21 18 13 23 71 41 21 28 28 27 29 32 40 47 50 51 48 46 43
64 74 75 71 74 80 89 82 84 78 68 61 65 67 68 80 85 66 67 54 58 58 63 72 63 91 100 92 60 58 29 19 17 14 30 22 26 29 28 28 33 42 46 48 50 49 48 45 42
82 82 71 61 63 72 82 86 86 81 85 83 79 88 70 89 95 76 77 78 74 85 83 72 63 88 100 90 54 65 49 23 20 18 20 26 30 28 28 36 42 45 48 50 49 49 45 42 39
72 74 82 86 81 76 74 76 77 42 80 82 72 81 70 83 98 94 75 88 86 90 89 77 64 57 97 98 51 66 58 46 29 28 30 31 29 30 39 42 46 49 50 50 49 48 44 41 38
85 87 85 70 68 73 83 78 68 22 44 75 73 82 90 69 97 82 75 80 89 92 97 79 78 82 78 100 51 51 67 59 44 34 32 32 32 40 45 47 49 50 50 50 49 47 44 42 40
90 83 69 54 50 54 73 66 58 43 44 58 74 85 90 70 64 64 73 87 92 100 96 77 74 74 87 90 72 61 50 64 55 40 37 36 40 44 46 48 49 49 50 49 48 46 43 42 43
97 85 62 55 55 55 62 64 48 47 42 46 62 70 83 78 73 75 70 75 86 98 96 83 75 83 76 99 82 69 55 53 57 51 46 42 43 45 46 48 48 49 49 49 47 45 44 44 44
66 80 76 67 58 55 64 62 57 54 42 57 57 69 83 96 79 73 63 66 73 99 98 85 77 83 91 96 73 77 71 53 56 53 56 50 45 46 47 48 48 49 49 47 44 44 46 48 48
98 90 79 73 75 94 76 57 52 49 72 69 71 80 88 100 76 70 66 77 72 94 98 96 93 90 99 97 91 85 91 74 48 47 50 50 48 55 51 50 53 50 49 45 45 47 50 51 54
98 100 95 90 86 87 79 56 57 52 76 75 90 81 86 90 67 84 71 87 87 92 99 98 99 96 100 97 99 99 97 89 83 49 49 49 51 52 52 54 54 52 59 52 56 58 57 58 60
89 95 94 96 96 82 80 60 55 53 82 82 87 80 81 82 64 78 84 81 86 96 100 98 99 99 100 99 97 100 94 96 92 80 68 67 71 68 69 70 71 70 61 72 82 84 80 74 71
95 95 99 98 98 78 74 53 47 68 86 83 86 76 69 68 67 74 72 72 93 100 100 100 99 98 100 100 100 100 100 99 97 88 76 89 99 89 82 78 82 90 90 88 99 89 100 97 90
90 99 97 100 100 98 74 65 52 72 80 89 96 74 74 76 59 87 78 70 95 99 100 100 100 100 98 99 99 100 100 99 97 100 99 96 90 99 97 98 92 90 87 88 94 100 98 100 98
98 98 81 85 98 94 96 87 77 81 82 89 98 79 63 89 68 71 94 100 91 86 93 99 98 100 100 100 98 99 100 99 100 100 100 98 99 92 96 93 97 98 87 93 97 98 100 97 98
99 99 92 97 97 71 90 98 85 80 80 89 85 98 94 98 86 99 100 100 100 100 99 99 94 99 99 100 95 97 99 99 98 94 92 84 93 95 73 95 100 99 100 96 96 98 99 96 97
99 100 97 84 79 82 92 99 98 100 82 75 96 95 99 96 98 98 100 100 100 100 100 99 98 93 94 97 97 99 98 90 85 88 90 96 92 79 77 91 95 95 98 96 99 98 99 87 80
89 99 98 98 88 85 98 98 98 98 98 86 100 97 96 88 99 97 100 100 98 99 99 97 93 87 85 82 75 82 88 94 90 88 84 81 82 82 82 89 96 96 97 98 97 96 98 90 86
95 88 86 79 84 74 55 67 90 98 99 100 100 95 97 100 96 98 99 100 99 99 98 86 83 80 80 77 73 71 80 83 87 87 89 84 84 85 85 84 85 78 73 76 92 96 96 91 92
91 76 72 67 60 70 45 68 89 100 99 99 100 100 98 96 100 100 100 99 98 99 99 91 74 68 68 72 75 76 80 85 86 90 88 83 83 84 78 70 70 59 55 64 73 90 92 84 92
80 78 66 54 47 49 44 73 98 99 99 100 98 99 100 100 100 99 100 98 99 96 88 68 58 50 44 42 46 50 54 60 66 72 72 70 69 66 64 54 44 45 58 67 72 85 94 90 86

GFSSGP_700_rhum_090.txt.gz
RH
8 13 20 35 55 50 72 66 48 42 36 31 34 36 41 48 52 56 60 76 67 52 58 54 36 27 20 18 13 10 10 10 11 11 10 12 46 56 72 66 87 78 68 50 17 14 16 16 15
11 14 26 86 77 79 56 46 49 40 35 34 35 36 44 50 65 67 62 69 66 53 56 55 35 26 22 18 15 12 10 10 10 10 9 7 40 66 69 78 86 84 69 34 13 16 17 16 15
13 19 78 70 92 88 58 45 41 38 37 37 42 41 47 58 84 65 76 70 64 55 55 47 32 27 29 19 16 13 12 10 8 7 12 26 41 65 68 77 92 80 48 18 16 18 17 16 17
13 27 90 94 72 58 59 46 41 38 36 42 42 49 66 64 71 67 72 72 66 59 53 46 33 49 51 22 18 14 13 9 7 12 41 53 59 55 68 90 86 60 23 15 18 18 17 16 19
16 98 78 84 80 69 50 48 39 41 38 43 44 46 58 65 59 87 74 65 61 62 60 51 50 73 78 34 20 15 13 12 8 58 78 78 75 57 63 65 73 42 15 20 20 18 17 19 23
53 65 91 79 67 56 57 53 48 43 39 43 42 45 42 54 73 63 73 69 69 61 64 62 62 70 75 68 27 17 12 40 24 69 78 80 72 59 58 66 62 18 18 22 20 19 20 23 27
70 94 77 76 63 52 45 46 45 47 46 41 42 41 42 47 58 63 72 74 72 66 64 70 64 74 77 78 46 18 12 59 65 78 80 81 76 70 74 69 41 16 23 23 21 24 28 29 30
43 93 94 79 61 53 44 40 41 44 46 47 46 42 44 47 49 50 64 68 62 66 66 72 90 78 93 91 63 22 12 50 75 85 87 92 91 76 73 59 16 23 24 23 25 30 33 35 37
65 90 90 76 67 59 52 44 40 39 45 48 47 49 49 50 82 74 74 71 63 58 69 70 73 92 81 88 74 34 14 30 83 87 92 96 96 72 58 23 19 25 24 24 29 33 39 43 44
43 82 73 64 59 54 49 45 43 40 38 48 49 54 53 64 66 86 71 96 68 64 72 67 66 89 98 92 88 48 25 12 74 93 95 93 98 45 20 17 25 27 25 27 32 37 44 47 47
46 63 69 75 65 58 55 50 52 56 50 43 44 52 47 64 63 79 72 66 95 73 66 65 63 61 90 95 96 83 41 13 25 90 97 100 70 17 14 23 27 26 26 32 36 43 48 49 47
65 76 83 78 71 70 76 80 66 63 55 56 58 68 56 56 72 86 68 70 76 59 68 67 72 87 71 99 100 100 70 26 13 49 97 100 79 16 19 26 29 26 30 34 46 50 50 47 46
75 76 76 73 69 64 65 70 74 53 58 69 72 81 84 69 68 67 69 85 77 56 64 72 76 81 77 61 96 97 93 56 19 13 50 99 77 18 24 31 28 28 33 44 49 50 49 50 46
64 75 73 72 79 77 71 56 65 53 41 48 64 75 78 64 62 71 94 97 76 58 74 89 88 80 82 65 83 100 99 74 24 18 14 32 65 21 29 33 27 32 42 47 49 51 51 49 44
87 83 79 74 50 49 47 50 49 48 28 26 24 45 67 65 63 75 81 88 84 84 91 95 91 76 78 100 70 93 100 97 47 22 17 16 37 25 31 29 28 38 45 50 51 51 50 49 46
75 79 86 56 63 61 61 60 49 67 52 26 17 20 37 67 64 49 82 95 72 82 90 98 93 77 91 91 90 75 87 97 98 40 24 22 23 30 33 30 38 46 49 51 51 51 50 49 45
91 86 79 70 60 57 51 56 59 55 52 49 44 18 29 76 88 74 61 78 63 75 85 84 93 92 99 98 92 88 71 77 97 93 38 30 31 35 33 36 44 48 50 50 50 50 50 48 45
79 85 94 82 72 63 70 55 54 40 53 52 41 41 39 60 79 72 88 53 54 69 79 90 87 88 97 98 98 99 84 83 78 96 82 43 37 38 37 42 46 48 49 49 50 50 49 47 46
94 96 81 70 71 70 80 79 63 60 46 63 44 54 56 70 88 64 85 69 70 71 72 67 94 84 98 98 99 100 99 63 62 82 94 74 55 41 42 45 46 48 48 49 51 49 47 44 48
97 98 88 73 75 91 89 79 62 54 53 51 79 60 69 78 92 42 73 78 62 68 67 72 94 98 96 99 98 97 99 95 62 62 72 82 91 65 51 49 51 51 50 51 51 50 50 52 59
88 96 88 96 87 92 87 89 78 50 52 52 72 89 85 88 59 45 60 71 66 72 69 85 80 94 95 98 100 99 96 99 96 76 69 76 79 65 56 56 65 63 52 52 53 56 61 59 63
98 96 98 99 98 96 78 84 58 56 51 57 58 62 56 60 62 58 57 76 72 67 67 67 95 95 96 94 100 100 99 98 98 99 72 65 69 80 65 68 72 63 65 68 67 79 81 84 72
92 100 99 98 95 96 85 88 49 48 63 65 74 91 66 52 64 51 59 64 70 60 64 87 90 100 100 95 99 98 99 100 95 99 100 90 77 85 91 94 89 87 82 96 86 90 94 99 98
98 100 100 99 98 97 82 84 44 47 62 76 86 94 91 70 66 70 53 67 69 80 76 75 89 97 98 100 100 99 100 100 100 99 100 99 96 97 99 100 98 87 84 92 98 87 84 95 95
98 98 98 97 97 98 97 96 99 96 84 85 85 98 97 70 99 80 72 73 75 77 70 78 91 98 100 100 98 99 99 100 100 100 100 100 98 100 100 99 96 94 78 67 80 82 80 94 96
96 98 99 96 96 96 89 99 99 94 86 84 86 91 95 99 99 98 100 98 92 92 91 96 100 99 100 100 98 100 100 100 98 100 98 100 91 91 100 76 87 82 80 93 99 96 93 98 99
79 96 97 98 89 98 99 98 98 99 94 93 100 100 100 100 98 99 100 100 100 100 100 100 100 99 100 99 88 92 95 93 100 98 96 89 77 69 76 77 94 90 73 80 100 99 100 98 98
98 82 85 82 97 94 97 97 99 98 99 99 100 100 98 98 98 99 100 100 100 100 100 100 92 92 90 90 88 85 83 88 89 90 97 90 87 87 89 93 99 95 95 82 84 96 98 98 98
86 74 68 76 61 96 70 97 98 99 99 100 100 100 100 100 97 99 100 100 100 99 100 96 87 80 83 88 89 87 86 88 89 84 87 85 83 80 80 85 91 86 78 70 66 78 90 92 98
78 70 58 58 60 52 67 98 97 99 98 100 99 100 100 100 100 100 100 100 100 100 88 66 63 58 55 53 54 57 62 67 73 77 79 81 85 82 78 77 74 70 66 64 61 59 66 78 96

GFSSGP_700_rhum_093.txt.gz
RH
7 8 14 19 31 40 70 44 25 27 36 28 38 38 36 42 44 49 54 55 63 60 52 53 57 45 35 24 20 14 11 11 11 13 17 28 44 66 63 57 90 80 74 68 49 11 13 14 14
8 10 13 32 52 85 59 17 18 15 38 38 37 36 37 44 43 52 60 60 63 65 61 59 57 52 36 25 21 15 11 11 11 14 11 14 36 56 70 57 91 80 76 69 32 12 14 14 13
8 12 16 26 78 86 55 22 17 40 34 34 35 38 38 46 48 50 66 65 62 62 56 53 60 51 34 27 21 16 12 11 11 11 23 19 25 56 72 68 89 82 79 62 18 15 16 15 14
8 15 18 56 47 43 44 27 34 46 40 39 38 39 42 63 65 62 64 80 73 64 59 58 52 43 34 34 24 18 14 13 11 8 10 26 42 56 71 74 86 85 77 37 14 17 17 15 16
9 13 26 36 40 45 46 50 44 47 45 42 44 40 41 57 66 75 68 68 71 71 67 62 61 50 37 47 32 21 14 13 9 7 18 26 62 73 63 71 83 87 53 22 16 18 16 16 20
11 21 45 42 35 40 40 53 61 59 47 41 42 44 42 43 54 54 62 62 72 70 66 60 64 67 62 63 54 27 16 13 9 26 72 78 69 73 61 61 81 70 36 16 20 19 18 20 24
13 23 51 77 69 61 52 46 48 48 49 42 43 46 46 45 45 47 60 58 59 64 61 60 64 73 69 67 67 44 18 32 19 58 82 85 86 76 62 58 58 58 20 19 21 19 20 24 28
14 51 60 48 61 60 54 54 46 43 46 44 46 47 46 49 55 56 55 64 66 65 69 67 66 63 70 71 72 69 20 40 38 62 85 92 91 78 63 62 68 45 18 22 22 22 25 28 32
20 58 78 72 80 66 43 55 46 44 42 44 45 48 48 48 48 49 55 65 66 71 68 65 68 71 92 81 85 81 32 19 66 73 83 90 93 82 72 72 66 29 23 24 22 24 30 34 37
23 31 40 32 32 59 64 58 52 46 41 39 45 47 50 51 55 64 66 72 86 77 77 72 86 88 87 70 82 96 67 27 82 78 87 94 94 90 79 65 53 18 25 24 25 28 33 40 43
23 20 22 35 43 56 65 58 54 50 44 41 39 47 49 54 62 64 65 55 59 80 82 81 84 81 72 60 60 100 86 68 37 91 89 98 95 98 90 60 30 20 26 25 27 30 36 44 48
28 32 39 40 36 63 66 64 54 60 51 44 47 45 49 52 55 64 62 56 70 72 78 87 82 82 76 81 65 85 100 67 59 57 100 99 97 96 92 38 17 25 26 26 31 36 42 47 49
35 49 64 74 72 58 63 64 64 54 53 48 47 49 50 55 54 62 78 59 66 80 73 78 70 73 75 85 83 62 78 91 86 31 67 100 100 100 58 20 21 30 29 28 33 41 48 48 49
25 27 34 53 54 54 48 38 57 56 39 47 47 51 60 59 63 66 73 77 64 68 69 86 79 78 76 70 77 75 66 86 78 72 21 69 99 94 32 20 27 31 30 32 34 47 50 52 51
23 27 28 24 44 68 68 48 31 40 41 42 40 51 59 63 62 65 71 70 69 71 90 88 98 88 78 83 80 74 82 91 99 94 43 19 58 100 28 23 31 33 29 32 40 50 52 52 51
36 43 46 33 54 61 73 54 37 34 36 30 27 25 50 63 65 64 65 69 83 79 74 97 99 98 92 87 83 90 89 77 100 93 56 26 18 42 94 27 31 34 29 32 47 52 52 52 52
40 52 61 49 59 75 67 61 57 47 49 47 26 24 18 22 38 62 57 54 59 79 67 72 87 90 90 85 83 87 92 86 75 78 76 46 23 19 63 51 34 36 34 42 49 51 52 52 51
56 65 58 57 39 63 77 75 74 73 58 56 52 51 35 18 15 24 44 17 30 64 73 72 75 76 77 72 84 93 90 87 84 93 86 56 29 27 50 43 36 39 39 45 50 51 51 51 51
81 75 75 50 60 89 74 54 62 62 62 62 56 54 49 37 16 24 48 29 43 53 63 66 67 70 81 90 84 98 100 97 98 100 98 92 45 36 35 33 39 39 40 46 50 50 50 50 50
86 95 69 71 85 97 84 67 57 57 51 50 51 61 55 48 57 64 62 54 60 61 61 72 69 69 68 85 96 98 97 98 100 99 97 100 79 60 41 40 42 42 44 47 49 49 50 53 54
82 93 90 98 89 96 91 79 54 48 50 44 44 55 69 57 60 55 58 59 47 70 71 72 73 71 66 84 86 100 98 98 99 98 96 96 97 82 82 55 46 47 47 48 49 50 58 63 61
93 85 93 99 98 96 96 91 56 51 43 48 54 62 78 74 64 65 70 58 59 71 79 70 80 79 80 94 100 99 100 99 100 97 100 95 96 99 92 90 83 50 53 52 57 58 58 56 67
92 96 99 99 94 96 73 93 55 49 44 51 41 53 76 78 68 61 59 52 50 65 67 68 64 62 74 94 85 90 99 100 97 100 100 98 97 96 97 98 99 94 82 81 77 74 73 95 87
88 98 98 97 96 99 68 75 58 51 67 52 48 65 76 67 66 61 58 64 54 60 72 74 66 75 72 68 80 99 98 100 100 96 99 100 99 100 99 99 94 98 84 82 98 85 76 81 93
94 100 97 97 97 93 96 88 73 62 77 75 80 84 87 90 64 63 78 68 68 75 83 79 82 91 84 84 94 94 100 100 99 100 100 100 100 99 100 90 86 90 98 99 98 92 84 86 75
86 99 98 96 97 98 98 98 99 98 89 96 90 84 95 100 95 98 99 96 100 100 98 100 100 95 97 99 99 100 96 99 100 99 100 100 100 100 100 100 98 91 98 95 100 99 92 75 68
94 97 96 98 98 96 96 98 99 97 90 93 92 84 99 98 99 100 100 100 99 100 100 100 100 98 100 100 100 99 100 100 100 98 98 99 100 96 96 98 100 100 99 96 98 99 89 80 99
86 86 89 86 97 96 98 98 98 98 99 95 94 96 100 100 99 99 99 100 100 100 100 99 98 100 100 99 100 100 100 98 99 96 100 92 90 98 98 96 96 99 99 100 99 100 99 87 98
83 76 68 71 72 92 89 97 98 98 98 99 99 100 100 99 99 100 100 100 100 100 100 100 100 99 100 100 99 98 96 90 87 92 94 99 99 100 99 99 100 100 99 97 96 98 97 99 99
78 70 63 63 65 63 73 98 98 99 99 99 99 99 99 99 99 99 100 99 99 98 98 96 68 56 54 54 53 54 56 64 72 82 89 94 94 95 93 95 96 96 91 93 87 81 80 78 90